GFSSGP_sfc_thetae_000.txt.gz
Theta_e
322 324 325 319 307 306 299 300 304 302 303 308 308 307 305 307 303 300 321 328 335 336 342 345 347 350 351 351 351 350 350 346 345 345 344 342 341 339 340 341 341 341 342 342 346 350 351 350 350
323 320 322 314 303 299 298 301 300 303 306 307 307 307 306 304 311 313 317 328 335 335 340 344 343 347 348 351 350 350 349 347 345 344 344 342 341 340 342 342 344 343 342 343 347 350 350 349 349
318 317 314 308 303 297 298 301 303 304 305 305 305 306 306 305 309 312 323 327 334 334 339 342 338 343 347 348 349 349 349 348 345 344 343 342 341 342 344 345 348 346 345 344 348 349 349 348 349
317 315 310 303 297 300 300 303 303 304 305 305 304 303 307 311 309 315 324 327 331 333 336 338 336 341 343 346 348 348 348 347 345 343 342 342 343 343 347 347 348 348 347 345 349 348 348 346 347
315 310 304 300 298 301 303 303 302 302 303 304 303 302 303 309 312 314 321 326 329 331 333 336 334 338 342 344 346 347 346 346 345 345 344 345 346 346 346 345 345 347 347 346 349 348 346 345 345
309 308 301 298 298 300 303 304 302 302 303 304 301 302 304 308 309 314 319 324 329 330 331 334 332 335 339 342 346 346 345 345 344 343 344 344 344 345 344 344 344 345 348 349 348 347 345 344 343
306 305 300 298 298 299 301 302 302 303 303 304 303 301 307 308 312 313 317 323 328 329 330 332 336 335 333 338 340 342 342 341 342 342 341 342 342 342 343 343 344 345 348 349 346 345 344 343 342
309 305 298 299 298 298 302 302 302 302 303 302 303 302 304 307 312 315 318 321 324 327 329 330 334 335 338 340 334 335 338 338 338 338 337 335 335 336 337 336 339 344 345 346 344 342 342 341 338
307 303 299 298 297 300 302 301 304 303 302 303 303 303 306 307 310 312 313 317 321 323 325 329 332 335 337 338 337 332 332 333 333 333 330 329 336 337 336 335 336 341 340 341 341 341 339 333 330
305 302 299 301 302 302 303 301 301 301 304 303 304 307 307 307 307 306 306 307 310 314 320 325 329 332 335 336 338 340 339 337 336 335 334 334 334 336 336 329 329 333 333 336 340 338 330 326 326
302 301 300 301 302 302 302 302 301 301 301 302 300 303 305 307 305 303 303 304 305 308 313 318 324 329 330 334 335 337 339 338 337 336 335 334 333 334 336 338 337 338 325 328 330 328 325 324 322
299 301 300 301 301 301 300 301 301 299 302 303 304 305 307 302 300 300 300 302 303 304 306 310 316 323 328 329 332 332 335 337 336 336 335 333 332 333 334 334 334 332 326 322 325 323 322 322 320
299 300 299 300 299 299 299 300 298 300 302 306 306 305 302 298 298 300 301 302 303 303 306 306 310 317 323 328 328 331 330 333 335 334 334 332 330 330 332 331 330 329 325 322 325 320 321 320 320
299 299 299 298 298 297 298 299 298 300 304 302 303 300 298 297 298 298 298 299 301 303 305 308 308 312 318 323 328 327 329 331 333 332 332 331 330 330 330 330 328 329 325 322 321 320 320 318 319
297 296 300 299 299 296 298 297 296 302 302 299 300 298 297 297 298 297 298 299 301 303 305 307 309 312 314 318 323 326 327 327 329 331 330 329 330 330 329 329 327 328 327 323 319 318 319 318 319
296 297 293 299 298 296 299 292 299 301 298 298 297 296 295 296 296 298 298 298 299 301 301 303 308 313 316 316 320 324 324 325 326 329 330 328 328 329 328 326 325 328 324 319 319 319 317 317 319
297 291 291 293 298 296 297 294 299 298 297 295 294 293 293 294 295 297 297 297 298 298 299 300 303 306 310 319 318 319 322 323 324 325 329 327 327 327 327 324 324 324 322 320 317 318 317 315 319
291 291 291 291 295 296 295 295 297 295 294 292 292 292 292 293 294 296 295 296 297 297 297 299 301 303 306 312 320 319 321 321 323 322 323 323 325 324 324 322 320 320 319 316 316 318 319 318 317
293 292 291 293 296 294 293 293 292 293 290 290 290 289 290 291 295 296 294 295 295 297 296 297 299 302 306 307 310 313 314 320 320 321 321 321 320 322 322 320 317 318 316 316 315 316 315 313 313
293 290 290 293 295 291 291 289 290 291 287 288 289 288 289 290 293 293 293 293 294 296 295 296 298 300 305 306 307 309 311 315 320 321 320 320 319 319 320 318 316 316 315 313 313 313 311 310 312
291 289 290 288 290 292 289 287 288 289 288 288 288 289 289 289 289 291 290 291 293 294 294 295 296 299 303 303 303 304 307 310 313 318 318 318 319 317 318 317 316 315 315 314 313 312 311 309 311
287 291 289 286 285 282 288 279 287 288 286 285 286 287 287 288 288 289 289 290 292 293 295 294 295 298 302 303 299 297 299 302 306 310 318 318 317 318 317 317 316 315 315 316 313 313 312 312 308
290 289 287 286 285 284 284 281 286 290 283 282 285 286 287 287 288 288 289 290 291 294 294 294 294 297 299 301 299 297 296 299 304 306 312 316 316 317 315 316 316 314 315 316 314 314 313 312 309
288 287 287 286 285 279 281 278 281 282 279 282 285 286 286 286 287 288 289 290 291 293 293 295 293 293 296 297 299 296 296 297 299 302 305 314 315 315 315 315 315 314 314 315 313 313 314 311 310
286 284 278 277 279 278 281 277 280 281 282 283 283 284 285 286 286 287 287 289 290 291 291 292 291 291 292 293 296 297 296 296 297 301 303 306 313 313 313 314 314 313 313 312 311 311 309 311 310
284 284 277 270 273 275 279 274 280 283 284 285 285 284 285 285 286 286 288 289 289 290 291 291 291 291 292 292 294 297 296 296 297 298 301 305 304 314 315 313 314 314 313 312 311 313 310 310 310
284 280 282 275 274 272 276 279 283 283 283 283 283 283 283 283 285 286 287 288 288 289 290 290 290 291 292 292 293 296 296 295 295 296 297 297 304 306 314 313 313 313 313 312 312 311 309 310 311
281 283 276 277 268 267 274 275 276 278 279 281 280 281 282 284 285 286 286 287 288 289 289 289 289 289 291 292 293 295 296 296 295 294 295 295 298 303 308 312 312 312 312 311 310 311 311 309 310
278 276 276 275 274 268 267 273 280 279 280 279 280 281 282 284 285 285 286 287 287 287 286 286 286 287 289 291 292 293 295 296 295 295 295 295 296 294 298 311 311 311 310 309 307 307 308 305 306
279 278 276 271 269 272 271 270 282 281 281 281 280 281 283 284 284 284 284 284 282 280 279 278 279 280 282 284 286 292 293 295 295 295 294 295 294 294 296 304 310 309 308 308 306 304 302 302 301

GFSSGP_sfc_thetae_003.txt.gz
Theta_e
325 327 327 321 310 307 300 301 305 304 305 309 310 307 306 307 304 301 323 327 331 334 340 344 346 351 352 352 352 352 353 351 348 346 346 345 344 343 342 341 341 342 341 341 341 345 351 351 350
324 323 323 317 304 300 299 303 302 305 307 309 309 308 307 305 311 312 315 327 330 333 338 343 344 348 350 352 352 351 351 350 349 347 346 345 344 343 341 342 343 343 342 341 341 345 352 350 349
323 320 316 309 304 298 300 303 304 306 307 307 306 309 307 306 311 312 322 326 328 333 337 341 343 346 347 350 351 351 350 350 349 348 345 345 343 342 341 344 346 346 344 342 342 345 350 349 348
319 318 313 304 299 302 302 304 305 305 307 307 307 304 310 313 312 315 319 324 327 331 335 339 338 342 346 348 349 350 349 349 349 348 345 344 343 344 345 346 347 348 347 346 343 346 350 348 347
317 313 305 302 300 302 305 305 306 304 305 306 306 304 307 313 314 315 316 319 324 327 333 337 336 339 343 345 347 349 349 348 348 347 346 345 345 345 345 347 348 347 347 347 347 349 349 347 346
310 309 302 300 300 302 305 306 305 305 306 306 304 305 307 313 313 315 316 317 321 325 331 334 333 334 338 343 346 347 348 347 346 346 344 345 345 346 345 346 347 345 346 348 349 349 347 346 345
308 306 302 300 299 301 303 306 305 304 305 304 307 302 308 309 311 313 316 319 321 324 328 332 334 334 331 337 340 344 346 345 344 344 343 342 342 343 343 343 345 345 346 347 347 347 346 345 344
310 307 301 302 300 300 304 305 306 305 304 307 307 302 302 307 311 312 313 314 315 320 324 327 330 333 336 337 333 337 339 341 340 340 338 335 335 336 337 336 339 344 345 346 345 345 344 343 341
311 304 300 299 300 302 305 303 307 307 304 306 306 306 308 310 309 308 307 307 308 311 313 318 324 328 332 335 335 333 333 334 334 334 331 330 336 336 335 333 336 340 342 343 342 342 342 338 335
307 303 301 304 304 303 305 303 303 303 304 303 304 308 308 305 304 303 303 302 304 306 309 311 313 320 327 331 334 336 337 338 338 337 336 335 334 335 335 328 330 333 332 337 340 340 334 331 331
306 301 303 303 304 305 303 303 303 302 300 301 301 304 302 301 301 300 301 301 302 305 307 311 312 312 319 326 332 333 334 335 337 338 337 337 334 336 337 339 336 338 327 337 336 332 333 329 329
301 303 303 303 304 302 301 303 301 302 301 303 304 302 300 299 298 298 299 300 301 303 305 309 313 314 315 322 325 330 332 333 335 336 337 336 335 335 334 336 337 332 331 330 327 326 324 323 324
302 302 302 302 302 302 302 301 300 301 303 304 302 299 298 298 298 299 299 299 300 300 302 304 308 314 317 317 321 325 328 330 332 335 334 335 334 333 333 334 333 330 328 328 325 327 323 321 320
303 302 302 301 301 301 300 300 300 302 301 300 297 297 297 297 297 297 297 297 298 299 300 302 305 308 311 318 319 321 325 326 330 332 333 333 334 333 332 333 331 328 328 326 323 323 322 321 320
301 298 301 300 300 299 301 298 298 302 299 298 296 296 296 296 297 295 296 296 297 299 300 301 302 305 308 310 316 321 324 323 325 329 332 331 332 331 331 330 331 328 326 325 325 324 322 321 321
299 299 296 299 299 299 299 293 300 300 298 296 294 294 294 295 296 296 295 296 297 298 299 300 301 303 307 309 311 316 322 322 324 326 328 328 329 330 330 327 329 326 325 323 321 321 320 319 319
299 294 295 295 299 297 297 294 300 297 296 292 292 292 292 293 295 296 295 295 295 296 298 298 300 301 304 308 311 313 318 321 321 324 324 326 326 326 328 326 327 326 323 322 320 319 320 317 318
291 291 294 293 296 297 296 295 297 294 292 290 290 290 291 291 293 295 295 294 294 296 298 297 298 299 301 306 309 310 311 314 317 320 325 325 324 325 324 325 324 325 321 321 320 318 319 318 318
294 293 292 295 297 294 292 292 293 290 290 289 288 289 289 289 291 292 293 293 293 294 295 296 295 297 298 300 304 303 303 305 308 311 317 324 325 322 323 322 322 323 320 320 321 318 317 316 318
294 292 291 294 296 293 291 290 291 288 287 288 287 288 288 289 289 290 291 292 292 292 294 295 294 295 296 298 301 303 302 301 304 308 311 311 323 323 321 321 320 320 319 318 319 317 315 313 315
293 290 290 289 292 293 291 288 288 287 287 288 288 289 289 288 287 289 289 290 292 292 293 294 295 295 295 297 299 300 302 300 299 300 302 307 309 321 320 320 319 318 318 316 316 315 315 310 313
288 291 289 289 287 283 290 280 288 286 286 286 287 287 287 287 288 288 289 289 290 292 294 294 295 294 295 297 296 296 296 296 297 298 300 303 306 308 319 319 318 318 317 316 315 316 314 312 310
290 289 288 289 287 286 286 283 288 289 287 284 285 286 286 287 287 287 288 289 291 292 293 293 294 294 294 296 295 294 294 298 299 299 298 300 304 306 308 318 318 316 316 315 315 314 313 313 312
289 289 289 289 287 280 285 282 284 286 284 283 285 285 285 286 287 287 289 290 290 292 292 293 293 292 294 293 294 293 293 294 296 297 296 297 302 304 305 316 318 316 316 314 314 315 314 313 312
289 286 280 281 282 281 283 279 283 283 283 283 283 284 285 286 286 286 287 288 289 290 290 291 291 290 291 291 292 292 293 294 295 296 296 296 296 296 300 303 315 314 315 315 314 314 313 312 312
285 284 279 273 276 279 281 276 282 285 285 285 285 284 285 285 286 286 287 288 288 288 289 288 286 287 288 289 290 292 293 294 294 296 296 296 296 296 299 302 300 315 315 315 314 313 313 313 311
286 282 285 279 279 274 279 282 284 285 284 284 283 283 283 284 285 286 287 287 287 287 286 284 281 281 281 282 282 283 289 293 293 295 297 297 296 296 296 296 303 302 314 314 314 313 312 312 310
283 286 277 278 270 271 278 278 279 280 280 282 281 282 282 284 284 285 286 286 286 285 283 281 279 278 278 279 280 282 284 285 288 294 295 296 296 295 295 295 296 300 312 313 312 311 311 310 310
280 278 278 278 277 271 271 276 282 280 281 280 281 282 282 284 284 284 285 286 284 282 280 278 277 277 277 278 279 280 281 283 284 287 294 295 296 295 294 294 294 297 297 312 310 310 308 308 308
280 280 280 274 274 274 273 272 284 283 283 282 281 281 283 284 283 284 284 283 281 280 278 277 276 276 276 277 277 278 279 281 283 285 286 294 295 295 294 292 292 293 297 307 308 308 307 307 306

GFSSGP_sfc_thetae_006.txt.gz
Theta_e
328 324 324 318 305 303 296 297 299 301 301 303 305 302 300 302 300 295 316 323 325 327 339 342 347 349 353 353 353 353 353 351 349 349 348 347 346 345 344 343 343 342 342 342 341 343 347 353 352
321 323 319 314 299 295 294 297 299 300 302 303 302 302 300 299 306 306 313 321 322 328 332 341 343 350 352 352 352 352 352 352 350 349 347 347 346 344 344 343 344 342 342 341 342 342 347 352 351
322 320 311 305 298 293 294 299 299 302 304 302 301 301 300 300 306 306 311 317 321 323 331 341 343 347 348 350 351 351 351 350 350 350 347 346 346 345 344 343 344 345 344 342 341 342 347 352 350
315 314 309 298 295 297 297 299 301 301 302 304 301 298 304 308 307 309 313 313 318 322 328 338 340 341 344 347 349 350 350 350 350 350 349 348 347 346 346 345 345 347 346 347 344 344 346 350 350
314 309 301 297 296 297 300 302 301 299 299 301 300 299 300 306 308 310 311 315 314 317 325 332 337 337 338 342 346 348 349 348 347 347 347 348 347 346 345 345 346 347 347 347 347 348 346 349 348
306 305 297 294 295 299 301 302 300 300 301 301 298 297 299 306 306 308 309 310 314 316 324 328 331 334 335 337 341 345 347 348 347 345 346 346 346 346 346 346 345 345 345 346 347 348 346 348 347
304 302 296 294 296 298 300 302 299 299 299 298 301 296 300 301 305 306 305 306 307 308 309 314 324 329 330 333 335 338 342 345 346 345 343 343 343 343 343 343 344 345 344 345 346 346 347 347 346
305 302 296 295 295 296 299 300 302 300 298 303 303 296 294 299 304 304 304 303 304 306 307 309 309 311 324 329 332 332 336 339 341 340 339 336 336 337 337 336 339 344 344 345 345 344 345 346 344
309 299 295 295 296 297 301 299 302 302 300 301 303 298 298 301 302 300 299 300 301 303 304 307 309 310 310 316 325 329 331 333 334 335 332 331 332 333 332 331 335 340 340 342 343 344 343 340 337
302 298 297 299 299 298 300 299 297 298 298 297 299 298 300 298 297 296 296 296 297 298 300 302 305 310 312 313 318 326 329 332 333 334 333 333 332 331 331 328 329 334 332 335 341 342 338 333 334
302 297 300 301 302 301 299 297 298 297 294 296 294 294 296 295 295 294 294 294 295 297 298 299 301 303 308 313 314 319 324 328 330 332 332 333 333 330 327 328 327 327 322 330 333 332 332 333 331
297 301 301 303 301 299 297 298 297 297 296 297 295 296 295 294 294 293 293 294 294 295 296 297 300 301 303 306 312 314 318 323 326 329 330 329 330 329 327 327 328 326 328 322 325 323 322 324 327
299 299 301 301 299 298 299 296 297 295 297 296 296 296 293 293 292 292 293 294 294 294 295 296 298 299 301 303 306 308 313 316 321 325 327 328 328 328 327 325 327 328 327 326 323 321 321 320 321
299 299 299 299 299 299 296 295 297 296 296 294 295 293 292 292 292 291 292 292 292 293 295 296 296 298 300 301 303 306 309 314 318 321 324 326 327 327 326 325 326 326 327 326 322 321 320 318 318
298 295 296 297 297 296 296 293 294 296 296 293 292 291 292 292 292 291 291 290 291 292 295 296 296 296 297 298 300 304 307 309 313 317 320 323 324 325 325 325 326 326 326 325 323 322 321 319 319
294 294 291 296 297 296 294 288 293 295 295 290 289 288 289 291 292 292 291 290 290 291 293 295 296 294 295 295 297 301 305 306 307 312 315 319 322 323 323 325 326 326 326 324 322 321 320 319 318
294 288 289 293 297 295 293 289 293 295 292 288 287 287 288 289 289 288 289 288 289 290 290 291 294 292 293 294 295 298 302 302 303 303 306 310 314 320 322 323 325 326 325 323 322 320 320 318 318
285 286 288 288 293 293 291 291 291 292 289 286 285 285 285 286 286 288 288 289 289 288 289 290 292 292 293 293 293 294 297 300 300 300 301 302 309 309 316 320 322 324 323 321 321 318 319 319 318
290 289 288 292 294 289 290 289 290 290 287 285 284 284 284 284 286 287 288 287 288 287 288 289 290 291 292 291 290 291 291 294 297 299 300 301 305 305 306 305 319 322 321 320 319 318 316 316 318
291 288 288 290 294 290 289 288 287 287 287 286 284 283 283 284 284 286 286 286 287 287 288 289 290 291 291 292 291 291 292 293 295 299 299 299 300 302 303 304 303 319 320 319 317 317 315 315 318
289 287 286 286 289 290 288 285 283 285 285 286 286 285 284 283 283 284 285 284 286 287 288 289 290 290 291 292 291 291 292 292 292 293 296 299 299 300 300 304 305 307 320 318 317 316 315 312 316
285 288 287 287 283 279 285 276 282 282 282 284 284 282 281 282 284 284 284 285 286 287 288 289 289 289 290 291 289 289 287 287 290 291 294 296 299 299 300 302 304 303 306 316 318 317 316 315 312
288 288 286 285 283 282 282 278 281 283 280 282 282 282 281 281 282 282 284 286 287 288 287 288 287 288 288 287 285 286 287 287 288 291 291 293 297 299 299 298 302 303 301 311 318 316 316 316 314
290 287 286 285 282 275 280 279 280 280 283 281 282 280 282 281 281 283 286 286 286 287 286 286 286 285 285 283 281 280 281 281 284 287 288 291 294 297 297 297 298 302 304 306 317 316 316 315 315
287 282 275 275 274 274 280 276 279 280 281 281 280 280 280 280 282 283 284 284 285 284 285 284 283 281 280 279 278 278 278 279 280 282 287 290 292 295 295 296 296 298 299 302 314 316 315 315 314
283 281 275 269 271 273 278 273 279 282 283 283 282 281 281 281 282 283 283 284 283 284 283 282 281 279 279 278 277 277 278 278 279 282 283 284 290 294 296 296 296 296 297 302 303 314 315 314 314
283 278 282 276 268 267 273 279 281 282 281 281 280 281 279 280 282 282 283 283 283 283 282 281 279 278 277 277 276 276 277 277 278 279 281 282 285 292 295 295 294 295 295 297 301 301 313 313 313
280 283 275 275 264 264 273 275 276 277 278 279 278 278 278 280 282 282 282 282 283 282 281 280 279 277 277 276 275 275 276 276 276 278 278 281 283 285 294 294 294 294 293 295 300 300 309 311 312
277 275 277 277 276 268 266 272 279 278 280 277 278 279 279 280 280 281 281 282 282 281 280 279 277 276 275 275 274 274 273 274 276 276 277 280 282 283 286 294 293 292 291 293 294 300 308 310 310
278 278 278 270 271 272 271 272 283 281 280 279 279 279 279 281 280 281 281 281 280 279 278 277 276 275 275 274 273 273 272 274 273 275 277 278 278 283 282 284 292 291 291 291 292 297 298 309 308

GFSSGP_sfc_thetae_009.txt.gz
Theta_e
326 319 316 311 300 295 289 293 294 296 296 297 301 300 299 299 298 293 314 318 319 323 339 342 346 349 351 352 350 350 351 351 349 349 348 348 347 346 344 345 346 343 343 342 343 343 344 350 353
316 319 313 305 294 288 289 291 294 296 299 299 300 299 298 296 303 306 306 311 320 321 336 341 343 349 350 351 350 349 350 348 349 349 349 348 347 347 344 343 346 343 343 343 342 343 344 347 352
318 317 305 299 291 287 289 292 294 297 300 299 296 300 297 297 303 303 307 312 316 320 334 340 342 344 345 347 349 350 350 351 349 348 347 348 348 347 347 346 346 344 343 343 343 342 345 347 351
309 308 303 294 290 292 293 293 296 297 299 301 299 295 299 303 303 305 307 308 309 312 321 336 340 340 340 339 344 347 348 348 347 347 347 347 347 347 347 347 346 345 344 345 345 345 345 345 349
307 301 294 291 289 293 294 297 297 297 296 297 298 294 296 301 303 303 304 306 306 307 309 311 324 334 338 338 339 342 345 346 347 347 346 347 346 346 347 347 346 346 345 345 346 347 346 345 347
300 298 291 288 290 294 294 297 296 295 296 296 296 295 294 300 301 301 302 302 305 306 308 311 316 320 324 335 338 339 339 342 344 345 344 345 344 345 345 345 346 346 345 345 345 347 346 347 346
300 294 291 290 292 294 296 297 295 295 293 296 297 293 294 297 299 300 300 300 301 303 303 306 309 314 318 320 327 335 337 339 341 342 342 341 340 342 342 342 343 345 345 345 345 346 346 346 346
299 296 292 293 291 292 295 297 298 297 295 299 298 291 288 294 297 298 298 297 298 299 300 300 302 307 311 313 320 324 330 332 334 336 336 335 335 335 336 335 337 341 344 344 344 344 345 345 345
302 295 291 290 292 293 296 295 298 298 295 294 296 293 294 295 296 294 294 295 296 297 297 298 299 301 304 306 313 318 323 327 328 330 330 329 332 335 333 332 334 338 338 340 342 343 343 341 339
297 293 292 294 294 293 295 295 295 295 293 292 292 294 295 294 292 291 291 291 292 294 295 296 297 299 301 303 306 309 313 319 321 325 327 329 330 331 332 328 328 332 333 335 339 339 338 333 335
296 293 296 297 298 297 295 295 296 293 290 290 290 291 292 291 290 290 290 290 290 291 293 295 296 298 299 301 303 304 306 312 317 319 321 324 327 329 330 329 327 327 323 329 331 332 332 331 333
292 298 298 300 298 297 294 295 293 293 291 293 292 292 291 289 289 289 289 290 290 291 293 294 294 295 297 299 300 302 304 308 310 313 319 320 322 324 327 328 327 326 327 325 326 326 327 329 331
294 296 298 298 297 295 297 294 292 290 292 293 293 292 289 289 289 289 289 289 289 289 292 293 293 293 295 294 295 297 300 305 306 308 312 316 318 320 324 326 326 326 324 325 325 323 323 323 324
296 296 297 297 297 296 294 293 294 291 291 291 291 289 289 289 289 288 288 287 288 289 290 292 293 293 293 292 292 293 295 300 304 305 306 312 312 314 319 322 324 326 327 327 325 323 322 322 323
295 292 294 295 295 294 294 290 291 292 291 290 290 288 289 290 289 287 287 287 286 288 289 289 291 292 292 292 293 293 294 296 298 302 305 303 305 306 308 312 320 323 327 326 324 322 320 319 320
291 290 287 294 295 295 291 285 290 291 289 287 286 285 287 288 287 286 286 286 286 287 287 289 291 291 291 291 292 293 293 293 294 300 301 301 301 302 301 309 309 318 323 325 323 321 318 318 318
289 285 285 289 295 293 290 287 290 292 288 285 283 284 285 284 285 284 286 285 286 286 286 288 289 290 291 291 292 292 292 291 293 295 297 299 300 301 304 304 305 306 310 323 324 321 319 316 315
283 283 285 285 291 291 289 289 289 289 287 283 283 282 283 283 283 285 286 285 285 285 285 286 289 290 290 291 291 291 291 291 292 292 294 298 299 300 298 301 302 303 304 305 322 321 320 318 316
287 286 284 288 292 289 288 288 287 288 284 281 281 281 281 282 283 285 285 284 284 284 284 286 288 288 289 288 287 288 289 290 290 291 293 294 297 298 298 298 298 301 302 304 303 320 318 318 318
289 286 285 288 290 288 287 286 289 286 284 283 282 281 281 281 282 284 283 283 283 283 284 287 287 288 288 288 288 289 287 287 289 290 292 294 295 296 298 297 297 299 301 301 303 303 318 318 318
287 285 284 285 287 287 285 282 283 284 284 284 284 283 281 281 282 282 283 282 282 282 283 286 287 287 287 287 286 285 285 284 284 287 288 290 291 294 297 297 297 297 298 300 301 301 303 314 316
283 286 286 285 281 277 282 276 279 280 282 283 282 279 280 281 282 282 282 281 281 283 284 285 286 286 286 284 282 280 278 277 279 280 282 283 289 292 296 297 296 295 295 294 301 302 301 308 313
286 286 284 283 281 278 280 276 279 281 279 281 279 279 279 281 281 280 282 283 283 284 283 283 284 284 284 283 281 279 277 278 278 278 278 280 284 289 291 294 294 294 294 295 298 301 300 299 315
288 285 284 282 279 273 279 278 276 276 280 280 279 279 280 280 280 280 283 283 283 282 282 283 283 282 282 281 280 278 276 276 276 276 276 279 282 284 287 292 295 295 295 295 296 298 301 300 311
285 280 275 273 272 274 277 275 280 281 282 282 278 278 279 280 279 280 280 281 282 281 282 283 282 281 281 279 278 278 276 276 275 275 276 277 278 280 282 286 289 294 295 295 295 296 299 300 297
283 280 276 270 270 274 277 274 278 280 281 280 280 279 279 279 280 280 280 280 281 281 282 282 281 280 280 278 278 277 276 275 275 276 276 275 276 278 282 283 286 293 294 294 294 295 298 300 299
281 278 281 276 263 266 273 276 279 279 279 279 278 279 278 279 279 280 280 280 280 280 281 280 280 279 278 277 277 276 276 274 273 274 274 275 277 278 279 283 286 287 294 293 293 293 295 300 299
280 283 276 277 270 264 271 274 277 276 277 277 277 277 278 278 279 279 279 280 280 280 280 280 279 278 277 277 276 276 275 274 274 273 274 274 274 276 278 280 281 285 291 293 292 291 293 297 299
276 276 277 277 276 271 267 274 278 278 279 276 277 278 278 278 279 279 279 279 280 279 278 279 278 276 275 275 275 275 274 274 273 272 272 273 275 275 276 277 280 282 283 291 291 291 291 293 297
278 278 279 276 274 273 273 274 281 281 280 278 277 278 279 280 279 278 278 278 278 278 278 277 276 275 274 274 274 274 273 273 272 271 271 272 272 273 275 275 277 279 282 287 290 290 290 290 292

GFSSGP_sfc_thetae_012.txt.gz
Theta_e
320 315 315 309 299 292 288 290 291 294 294 296 299 299 296 295 296 294 309 311 315 325 339 341 347 348 349 350 349 348 347 348 348 349 348 348 347 346 346 345 346 344 344 343 342 342 343 346 348
315 317 311 302 293 286 287 290 292 294 298 298 299 296 295 293 301 302 303 307 311 315 331 335 342 345 342 343 346 348 349 348 347 348 348 348 348 348 347 344 345 345 344 344 343 341 343 346 347
316 314 304 296 288 287 287 291 292 296 297 297 295 297 295 295 299 300 302 305 307 308 311 320 328 335 339 340 340 343 346 346 346 346 347 347 347 347 347 347 347 345 344 344 344 342 343 345 346
307 306 300 291 287 289 292 292 295 296 297 299 297 293 297 300 299 300 303 304 304 306 309 317 326 326 328 332 339 340 341 341 344 345 346 346 346 346 346 346 346 347 344 343 344 344 346 344 345
304 298 292 289 287 290 291 294 295 294 295 295 295 292 293 298 299 299 300 301 301 300 305 307 319 321 325 327 328 330 335 338 340 341 342 343 345 344 344 344 346 346 344 343 344 347 347 347 345
299 296 290 286 288 291 292 294 295 293 294 294 293 291 292 296 296 297 298 297 298 298 301 302 309 316 317 318 320 325 329 330 331 334 336 340 341 341 342 343 344 344 343 344 344 347 347 346 346
296 293 290 288 290 291 294 295 293 292 292 295 296 290 292 293 295 296 295 295 295 296 298 299 300 305 310 313 315 316 317 323 327 328 330 332 334 338 340 339 341 342 343 343 344 344 345 346 346
298 294 290 290 290 290 294 295 294 295 293 296 295 288 287 291 294 294 294 293 293 295 295 296 298 300 301 301 312 312 312 315 319 324 326 327 329 331 333 333 336 340 341 341 341 341 342 345 344
301 293 290 289 291 291 294 293 295 294 291 292 292 291 293 293 292 291 291 291 292 295 294 294 296 297 299 299 303 306 308 311 315 316 316 319 322 325 327 329 333 337 338 339 339 339 341 339 338
296 291 291 293 292 292 294 293 294 291 289 289 290 291 292 291 290 289 288 288 289 291 292 293 293 294 297 298 299 299 302 303 308 308 309 314 316 320 324 323 326 330 331 334 337 338 336 332 333
294 291 294 296 295 296 294 292 293 291 289 289 288 288 289 288 288 288 287 287 287 288 292 293 292 293 293 295 296 296 298 299 306 304 305 307 308 315 318 321 325 327 324 326 329 331 332 331 331
292 296 296 298 297 295 293 294 292 290 290 292 290 290 288 287 287 287 287 286 287 288 290 292 291 292 292 292 292 292 294 296 299 302 304 303 305 307 306 310 316 323 327 325 326 327 328 328 329
293 295 296 297 296 295 295 292 291 288 290 291 290 289 287 287 287 287 287 287 286 286 288 289 289 290 291 290 289 290 290 292 295 298 300 302 303 300 303 303 304 308 318 325 326 326 326 326 329
294 295 295 296 295 295 293 291 291 290 290 289 289 287 287 288 287 286 286 285 286 287 287 287 288 289 290 289 289 290 291 291 292 292 294 299 301 299 300 300 299 304 312 316 323 326 326 325 328
294 291 293 293 294 293 293 288 290 291 289 288 287 287 288 288 287 286 285 285 284 285 286 287 289 289 289 289 290 290 291 291 291 291 293 296 297 296 298 298 298 306 306 306 307 318 326 324 325
290 289 286 292 293 293 291 286 290 291 289 287 285 285 287 286 285 285 285 284 284 284 285 286 289 288 289 289 289 289 290 290 291 292 292 292 292 293 297 297 298 302 302 302 302 304 317 321 322
288 284 285 288 293 291 289 285 289 289 288 285 283 284 284 283 283 283 283 283 283 284 284 285 287 287 288 288 288 288 289 290 290 290 290 290 291 293 296 297 297 299 299 299 301 301 301 318 321
284 282 284 284 288 289 288 288 288 289 286 285 282 282 282 282 283 284 284 283 283 283 284 285 287 286 287 287 287 287 287 287 287 287 287 289 289 292 293 294 297 297 298 297 298 299 301 301 315
285 284 283 285 290 288 288 289 287 289 285 282 280 280 280 281 283 283 283 282 283 283 283 284 285 285 285 285 283 283 282 283 284 284 285 285 288 289 290 292 293 296 296 296 297 299 299 300 301
286 285 284 287 289 287 286 286 288 288 286 285 282 280 280 281 281 282 282 281 282 282 283 284 284 285 284 284 283 283 282 281 281 282 282 282 283 283 284 285 290 295 295 295 296 296 298 299 301
285 284 284 284 285 285 284 282 287 285 285 282 282 282 281 281 281 281 282 279 280 281 282 284 284 284 283 283 283 282 281 281 280 280 279 280 281 281 281 283 286 291 295 294 293 294 296 296 298
283 286 285 284 281 277 281 276 281 280 283 281 282 279 279 280 281 281 281 279 279 282 282 282 283 284 284 282 280 278 277 276 278 278 279 279 280 280 281 283 286 286 292 293 292 294 294 296 295
285 285 284 282 280 277 279 276 280 280 280 280 281 279 278 279 280 280 281 282 282 283 281 281 282 282 282 281 279 278 277 277 278 278 277 277 278 279 280 282 283 285 287 293 293 292 293 295 296
287 285 283 280 278 273 278 277 276 276 280 282 282 279 279 279 279 281 282 282 282 281 281 281 281 281 281 279 278 277 276 276 276 275 275 275 276 278 279 279 280 282 285 287 293 293 293 293 293
285 280 276 273 271 275 276 275 283 282 281 283 282 279 279 279 279 280 280 280 280 280 280 281 280 279 279 278 278 277 276 276 275 275 275 274 275 275 275 276 278 280 282 284 286 293 292 293 292
283 281 276 270 271 278 277 275 279 279 280 282 282 280 278 278 279 279 280 280 279 280 280 279 279 279 279 278 277 277 276 276 276 275 274 274 274 274 275 277 277 278 279 284 286 292 293 292 293
281 278 281 275 262 266 274 277 281 277 277 277 277 278 277 278 278 279 280 280 279 279 279 279 278 278 278 277 276 275 275 275 274 274 274 274 274 274 275 274 274 276 279 280 283 285 292 292 293
281 282 276 275 270 267 273 274 279 275 275 276 276 277 277 278 279 279 279 280 279 279 279 278 278 276 276 276 275 274 274 274 274 274 274 273 274 273 273 273 274 274 275 277 282 283 291 291 292
276 276 277 278 278 272 271 279 279 278 279 276 277 278 277 278 279 279 279 279 279 278 277 276 275 275 275 275 274 273 273 273 274 273 273 273 273 273 272 272 273 274 275 277 278 281 283 290 289
278 280 280 276 273 276 274 278 280 281 281 280 278 278 278 278 278 278 278 278 277 276 276 275 274 274 274 273 272 272 272 272 272 272 273 273 272 273 272 272 272 272 273 274 277 280 282 289 288

GFSSGP_sfc_thetae_018.txt.gz
Theta_e
315 315 311 306 294 290 285 288 291 291 291 293 295 295 293 292 294 291 302 302 304 306 311 323 334 335 337 339 339 341 343 344 345 346 346 346 346 346 346 347 348 346 344 346 346 345 345 346 346
313 313 308 297 289 285 285 290 289 291 294 294 294 292 292 290 295 296 297 301 301 302 305 319 328 329 332 334 336 337 337 339 341 341 342 343 344 345 345 345 345 345 346 346 346 345 345 346 346
312 309 302 291 286 285 286 289 291 292 294 292 292 293 290 290 294 295 296 299 298 298 302 313 321 321 323 324 326 329 331 333 335 337 337 337 338 340 342 343 343 344 344 345 345 345 345 346 347
306 304 296 289 287 289 290 290 293 293 292 295 292 289 291 294 294 295 297 296 295 296 299 309 315 317 318 319 320 322 324 325 326 325 327 331 334 336 336 338 340 341 343 344 345 345 346 345 347
300 296 290 286 287 290 290 291 293 293 291 291 292 288 289 293 294 294 293 294 293 294 297 300 310 312 313 315 316 317 318 320 319 319 320 322 324 326 330 332 334 336 339 341 342 342 345 345 345
297 294 288 285 286 289 290 292 292 290 292 291 290 288 289 293 292 292 292 291 292 293 296 297 303 306 308 310 311 312 313 315 314 314 314 315 315 318 323 324 328 331 333 335 338 340 343 343 343
295 291 286 285 287 288 292 293 292 291 291 291 292 287 288 290 293 292 291 291 292 292 294 293 295 298 302 304 306 307 309 310 310 310 309 309 309 314 315 312 314 319 324 329 333 334 337 340 341
295 293 287 285 287 288 292 291 291 291 291 292 291 287 285 290 292 291 290 290 290 291 291 292 291 293 294 294 302 303 304 305 305 305 305 304 304 308 308 307 310 313 314 315 319 329 333 335 337
297 291 287 287 288 291 292 291 290 290 289 287 289 289 290 291 290 288 287 288 288 291 289 290 290 290 291 293 295 297 300 300 301 300 302 299 297 300 301 303 306 308 309 310 311 314 321 329 330
293 289 290 291 291 291 292 292 291 290 287 286 286 288 289 289 287 286 285 286 285 286 287 288 288 289 290 293 291 290 292 292 293 294 296 296 295 298 299 300 301 303 304 306 308 314 315 320 323
291 288 292 293 294 293 292 290 291 289 287 288 286 287 287 286 285 285 285 285 285 284 286 287 287 287 288 288 289 289 289 290 291 291 293 295 294 294 295 294 294 297 300 298 302 307 304 304 307
292 293 293 295 295 293 291 291 290 290 291 290 289 289 286 285 284 284 284 285 285 285 285 286 286 287 287 287 287 287 288 289 289 290 292 292 291 291 291 290 291 293 297 296 301 302 301 300 302
292 292 293 294 294 292 292 291 291 289 288 288 288 287 286 285 284 284 285 285 285 284 284 285 286 286 287 287 286 286 286 287 288 289 290 291 289 288 289 289 290 291 295 296 298 299 299 298 299
291 292 293 294 293 292 291 289 290 289 286 286 287 286 285 285 284 283 283 283 283 285 284 285 286 286 286 286 285 285 286 287 287 288 288 289 288 286 287 287 288 290 294 296 296 296 297 297 297
291 290 290 290 291 291 291 288 289 288 286 285 285 284 285 284 284 283 283 283 283 284 285 285 287 286 285 285 285 285 286 287 286 286 286 286 287 285 285 286 286 289 291 293 294 294 296 295 296
288 288 286 289 291 290 289 286 291 288 286 284 283 283 284 285 285 283 283 283 283 283 284 285 288 286 285 285 285 285 285 284 284 284 284 284 285 284 283 282 284 285 285 287 291 293 294 292 293
286 284 283 287 291 289 288 286 290 286 285 285 284 284 285 285 283 282 282 282 282 283 283 284 285 285 285 285 284 283 283 283 283 282 282 282 283 283 282 282 282 282 282 283 285 288 291 292 293
284 282 283 284 287 287 286 287 291 287 285 286 285 284 284 285 284 283 282 282 282 282 283 283 284 284 284 284 283 282 282 281 281 281 281 282 282 282 281 281 280 281 281 280 282 283 286 289 293
287 283 282 283 287 286 286 287 291 291 285 285 284 283 284 285 284 283 282 281 281 281 282 282 282 283 283 281 280 280 279 279 279 280 281 281 281 281 280 280 280 280 279 279 281 282 285 287 290
284 282 282 285 285 286 285 285 288 291 288 287 287 284 284 285 280 282 281 280 281 281 282 282 282 282 282 281 281 280 279 279 279 280 280 280 280 280 280 279 279 279 279 280 279 282 282 283 287
283 282 282 283 283 283 281 280 283 287 287 287 287 288 286 285 282 281 281 280 280 280 281 282 282 282 282 282 281 280 279 278 277 277 277 279 279 279 279 279 278 278 279 278 279 279 278 278 283
282 284 283 282 280 278 282 279 281 287 287 285 286 284 285 284 284 282 281 280 279 280 280 282 282 282 283 281 279 277 276 276 276 276 277 278 278 278 279 279 278 278 278 277 277 279 278 279 279
284 283 281 280 278 275 277 275 279 280 283 288 288 285 285 283 283 282 282 282 281 281 280 280 280 281 281 281 279 277 276 276 276 275 275 275 276 277 278 279 278 277 277 277 276 276 276 277 278
285 282 280 277 276 272 279 278 277 279 283 284 284 283 283 282 281 282 282 281 281 280 280 279 279 280 280 279 278 276 275 274 275 275 274 275 275 276 277 278 277 277 277 276 275 276 276 278 278
282 281 277 274 272 276 276 274 283 284 286 286 286 283 281 280 279 280 279 280 280 279 279 279 279 279 279 278 277 276 275 274 274 274 273 274 274 274 276 276 276 276 276 276 275 276 275 274 274
281 283 278 270 270 278 275 275 282 284 286 283 280 280 281 278 279 280 280 280 279 279 279 278 279 278 277 277 276 275 275 274 273 273 273 273 273 274 275 276 276 275 275 275 275 274 274 275 277
281 279 281 277 263 268 278 279 282 284 282 281 279 280 280 277 278 279 279 280 279 278 278 278 277 277 276 276 275 274 273 273 272 272 273 273 273 275 275 275 274 274 275 274 274 274 273 273 273
280 282 277 276 270 266 276 277 281 285 285 284 279 278 279 277 277 278 279 279 278 278 278 277 276 276 275 275 274 274 273 272 272 272 272 272 273 273 274 274 274 273 274 274 274 273 274 273 274
277 277 277 279 276 271 269 279 282 285 286 285 282 280 279 278 278 278 279 279 278 277 277 276 275 275 274 274 273 272 272 272 271 271 271 272 272 273 273 273 273 273 272 273 272 272 272 272 272
279 280 281 278 275 271 272 280 284 285 285 284 281 281 278 278 278 278 279 278 277 276 275 274 274 273 273 272 272 271 271 271 270 270 271 272 271 272 272 272 271 271 271 271 270 270 271 271 271

GFSSGP_sfc_thetae_021.txt.gz
Theta_e
318 317 314 309 299 296 291 294 296 296 296 297 298 298 298 296 299 296 305 303 303 305 309 321 330 332 334 336 338 339 340 342 343 343 343 344 345 346 346 346 347 345 346 347 347 346 346 347 347
315 315 310 300 294 290 291 294 294 296 297 296 296 296 297 295 298 299 301 302 301 303 307 318 324 325 327 329 330 332 335 336 337 337 338 339 339 341 342 343 343 344 345 345 346 345 347 347 347
314 310 305 295 290 290 291 294 295 296 296 297 295 296 295 295 298 298 300 300 299 302 305 314 319 321 322 323 325 326 327 326 326 328 331 333 333 334 336 337 337 339 341 344 345 345 346 348 347
310 307 298 294 292 294 295 295 296 295 296 297 295 294 295 298 298 298 298 298 297 299 302 311 315 317 318 319 320 321 321 320 320 321 322 322 323 327 329 330 332 335 337 339 341 342 343 345 345
302 300 293 291 292 294 294 296 296 295 296 295 295 293 293 296 297 296 296 296 296 297 299 306 311 313 314 315 316 316 317 316 316 316 316 316 319 321 319 319 321 325 329 332 336 337 338 340 342
300 297 292 290 291 294 295 296 296 295 295 294 294 292 293 297 295 295 295 295 296 296 297 298 303 307 309 310 311 312 312 312 312 312 311 311 313 314 313 313 315 317 319 320 323 328 332 335 337
299 295 292 291 290 293 295 295 294 294 294 295 295 292 293 293 295 295 294 295 295 295 296 295 297 299 302 305 306 307 308 308 308 308 307 306 307 309 308 308 311 313 314 314 315 317 321 327 333
297 295 291 289 290 292 295 295 295 296 295 295 295 292 292 294 295 294 294 294 293 293 294 294 295 296 296 297 302 303 304 304 304 304 303 302 302 304 304 304 306 309 310 310 311 313 318 321 326
301 293 290 291 290 293 294 294 294 294 293 292 293 293 293 294 293 292 292 292 291 292 292 293 293 294 295 295 295 297 299 299 299 298 300 298 298 298 299 300 302 305 306 307 308 311 312 309 308
296 291 293 294 293 294 294 295 294 293 291 291 290 291 291 292 291 290 290 290 289 289 290 291 291 292 293 293 293 294 294 294 295 295 295 296 296 296 296 296 297 299 301 303 305 308 307 304 304
294 291 294 295 296 295 294 293 293 292 291 294 292 289 290 290 289 289 289 289 289 289 289 290 290 291 292 292 292 292 293 293 293 294 294 294 293 294 294 294 293 295 296 298 300 302 303 302 302
293 294 295 297 297 295 294 293 292 292 296 295 293 292 290 289 288 288 288 288 288 288 289 289 290 290 291 291 291 291 292 292 292 292 292 292 292 291 291 291 292 293 295 297 299 300 300 300 301
293 293 295 296 295 294 293 293 293 291 294 292 290 289 289 289 288 288 289 288 288 287 288 289 290 290 290 290 290 290 290 291 291 290 291 290 289 288 290 290 291 291 293 294 295 297 297 298 299
293 294 294 295 294 293 293 292 292 293 289 288 288 288 289 289 288 286 286 286 287 287 288 289 289 289 290 289 289 289 290 290 290 289 289 289 288 287 288 288 288 289 290 290 292 293 295 296 298
293 291 292 292 293 293 292 290 290 292 288 288 287 287 288 288 287 287 287 286 287 287 288 288 289 289 288 288 289 289 289 288 288 287 288 287 287 286 286 286 286 286 287 287 288 290 293 295 295
290 289 287 291 292 292 292 288 293 289 288 289 286 286 287 287 287 286 286 286 286 287 287 288 290 288 288 288 288 288 288 287 287 287 286 286 286 285 285 284 285 285 285 286 286 287 288 290 292
288 285 285 288 291 290 290 289 292 288 287 288 286 286 286 287 286 286 286 285 285 286 286 287 288 288 288 288 287 287 287 287 286 286 285 285 285 285 284 284 284 284 284 284 284 285 285 285 287
284 284 285 285 289 288 287 288 293 290 287 289 289 287 286 286 287 287 285 285 285 286 286 287 287 287 287 287 287 286 285 285 285 285 284 285 284 284 283 283 283 283 282 283 283 283 284 285 288
287 286 285 286 287 287 286 288 292 294 287 289 288 286 286 286 289 287 285 284 284 284 284 285 285 286 286 285 284 283 283 284 283 284 283 284 283 283 282 282 282 282 282 281 282 282 281 284 286
285 284 284 286 286 286 285 286 290 291 293 293 291 288 287 287 285 284 284 283 283 284 284 284 285 285 285 284 284 284 283 283 283 283 283 283 282 282 281 281 281 281 281 281 281 281 281 282 283
284 283 283 285 284 284 282 281 283 287 289 290 291 290 288 288 286 284 283 282 283 283 283 284 284 285 285 285 284 283 283 282 281 281 281 282 281 281 281 281 281 280 281 280 280 280 279 278 280
284 285 284 283 282 279 283 280 282 286 288 289 291 287 289 287 288 285 283 282 282 283 284 284 284 284 285 284 283 281 280 279 280 280 281 280 281 280 280 280 280 280 280 279 280 280 279 278 277
285 284 283 282 280 277 279 277 282 281 285 289 291 288 287 287 287 285 283 284 283 284 283 284 284 284 284 284 283 281 279 279 280 279 278 278 279 279 279 280 280 279 280 279 279 279 278 278 277
285 283 282 278 277 273 281 280 279 281 285 287 289 289 288 285 284 285 284 284 283 284 283 283 282 282 283 282 281 280 279 278 277 277 276 277 277 278 278 279 279 279 279 278 279 278 278 277 277
283 282 278 275 273 277 276 276 284 285 286 288 291 289 286 284 282 282 282 282 282 282 282 282 281 281 281 281 280 279 278 277 276 276 276 275 275 276 276 277 277 278 278 278 278 277 277 277 277
282 283 278 271 273 279 275 275 283 286 290 288 286 285 283 283 281 281 282 282 282 282 282 282 281 281 280 279 279 278 277 277 276 276 275 274 274 275 276 276 277 277 277 277 277 277 277 277 277
281 280 283 277 263 270 280 281 284 285 285 284 284 281 282 282 280 280 281 282 282 282 282 281 281 280 279 279 278 277 276 275 274 274 274 274 274 275 275 276 275 276 276 276 276 276 276 276 276
282 283 278 277 272 268 279 281 283 284 286 287 285 285 283 282 280 280 280 281 282 282 281 280 280 279 278 278 276 276 275 274 274 274 273 273 274 274 274 274 274 274 275 275 275 275 275 275 275
278 278 278 280 277 273 274 281 283 286 286 287 287 285 284 283 280 279 280 281 281 281 280 279 278 277 276 276 275 274 274 273 273 272 272 272 273 273 273 273 273 273 273 273 273 272 273 272 273
280 281 282 278 275 273 273 280 287 286 287 286 287 285 284 283 281 279 279 279 280 280 278 277 276 276 275 275 273 272 272 272 271 271 271 272 272 273 272 272 272 272 271 271 271 270 271 271 271

GFSSGP_sfc_thetae_024.txt.gz
Theta_e
325 326 327 320 307 305 299 299 303 302 302 304 305 306 306 305 305 302 308 308 311 316 320 325 328 330 333 335 337 339 340 340 340 341 341 342 342 343 344 343 343 344 346 346 346 347 346 346 345
324 321 322 315 304 299 300 302 301 304 304 305 304 304 304 304 304 306 306 305 311 313 318 321 324 325 328 330 331 331 331 332 333 335 337 336 337 338 339 338 338 339 342 343 344 346 346 346 346
318 318 317 310 304 298 300 302 304 303 304 304 302 302 304 304 304 306 305 305 310 312 316 318 320 322 323 324 325 325 324 325 326 327 327 328 332 332 332 333 334 336 338 340 341 342 342 343 343
318 315 309 303 299 301 301 304 304 302 301 302 303 301 301 304 305 305 303 303 308 309 312 315 317 318 319 320 321 321 320 320 320 320 320 323 324 322 322 323 325 327 329 331 334 337 337 337 339
316 313 304 300 300 301 302 304 305 302 303 303 302 302 300 302 304 303 301 301 302 304 308 311 313 314 316 316 317 317 316 316 316 315 315 317 317 316 316 317 318 320 322 323 325 327 329 332 335
310 309 301 298 299 301 302 304 305 304 303 301 301 301 302 303 301 301 301 301 301 300 302 305 307 309 311 312 313 312 313 313 312 312 311 311 312 312 311 312 314 315 315 316 318 319 321 326 329
308 306 301 300 299 299 301 304 303 304 303 302 302 301 301 299 301 301 301 301 300 300 300 301 302 302 306 307 307 308 309 308 308 307 306 306 307 307 307 308 310 312 312 313 313 314 317 319 318
310 308 299 299 299 299 302 302 302 303 303 301 304 302 302 301 300 300 300 299 299 299 299 299 300 301 301 302 303 304 304 304 304 304 302 301 302 303 302 303 305 307 309 310 311 312 314 312 311
308 303 299 299 298 300 301 301 300 300 301 300 302 301 300 303 300 299 298 297 297 297 298 299 299 300 300 300 298 300 300 300 300 300 300 301 301 301 301 300 301 304 305 307 308 309 310 308 307
306 302 300 302 302 301 301 302 302 300 300 299 299 300 298 300 298 297 297 296 296 296 296 298 298 298 299 296 299 300 299 299 299 299 299 299 299 299 298 299 298 300 300 303 305 306 306 305 305
303 301 302 302 302 302 301 300 302 301 300 304 303 303 298 298 297 298 298 299 297 297 296 296 297 298 298 298 299 300 300 300 299 298 298 298 298 298 298 298 298 299 299 301 302 303 303 303 304
301 301 301 302 302 300 300 301 299 301 305 304 306 304 299 298 297 298 298 299 297 295 296 296 296 297 297 298 298 298 298 298 297 297 296 297 296 296 296 296 297 297 298 298 299 300 301 301 302
301 301 301 302 301 301 299 300 301 300 304 304 300 299 299 299 299 299 300 299 296 295 295 295 296 296 296 297 297 297 297 296 296 296 295 294 294 294 295 295 295 295 296 295 296 297 298 299 300
302 301 301 301 301 300 299 300 297 303 303 302 298 299 299 299 299 298 297 296 295 295 295 295 295 296 296 296 296 295 296 295 295 295 294 293 293 292 292 292 293 293 293 293 293 294 294 296 298
300 298 300 300 300 300 298 298 297 304 298 299 298 299 299 299 299 297 297 296 295 295 295 294 294 295 295 295 294 295 294 294 294 294 292 291 291 291 291 291 291 291 291 292 292 292 293 293 294
298 298 297 299 298 298 298 295 303 304 298 299 300 299 298 298 298 298 298 296 295 295 294 294 293 294 294 293 293 293 293 293 293 293 293 291 290 290 290 290 290 290 290 291 291 291 291 291 292
297 295 294 296 299 296 297 297 302 298 297 299 302 300 298 297 297 297 297 296 295 294 294 293 294 293 293 293 293 292 292 293 293 292 292 290 289 289 288 289 289 289 289 289 289 289 289 289 290
295 294 295 294 297 295 295 296 300 302 297 299 302 302 300 297 297 297 296 295 294 293 293 293 293 293 293 293 292 292 292 292 292 291 291 289 289 288 288 288 288 288 288 288 288 288 289 288 289
295 294 294 298 295 294 296 295 298 300 300 298 299 301 301 298 299 299 296 294 292 292 292 292 292 292 292 291 291 290 290 291 290 290 289 288 288 287 287 287 287 287 287 287 287 287 286 287 288
295 294 295 297 292 292 294 292 295 297 298 299 300 301 302 299 298 297 295 292 290 290 291 291 291 292 291 291 291 290 290 290 290 289 289 288 287 286 285 285 286 286 286 286 286 286 285 286 287
294 294 295 293 292 291 289 290 292 296 296 298 299 300 301 300 298 295 293 291 291 290 290 290 290 291 291 290 289 288 288 288 287 288 288 287 286 286 285 285 285 285 285 285 285 285 284 283 285
292 296 294 291 290 289 290 286 294 296 295 296 300 301 299 298 297 296 293 292 291 291 292 290 290 290 290 290 288 287 287 287 288 287 287 286 286 285 285 284 284 285 285 284 285 284 284 283 281
294 291 290 289 289 286 290 285 291 289 290 295 298 301 300 299 297 295 293 292 292 291 291 290 290 289 289 289 288 288 287 287 287 286 285 285 285 284 284 284 284 284 284 284 284 283 283 283 282
290 290 288 286 287 283 290 288 289 290 292 295 298 300 298 296 296 297 295 293 291 291 290 291 289 288 289 288 288 287 286 286 285 284 283 283 283 283 283 283 283 283 283 283 283 283 282 282 282
290 290 287 286 284 284 286 284 288 293 295 296 298 301 297 296 295 294 292 290 290 289 289 289 289 287 288 288 287 287 286 285 284 283 282 281 281 281 282 282 282 282 282 282 282 282 281 281 281
289 292 288 282 283 285 283 281 290 295 297 297 295 296 294 293 293 293 292 290 289 288 288 288 288 288 288 287 286 286 285 284 283 282 281 280 280 280 281 280 281 281 281 281 281 280 280 281 280
288 287 291 287 279 280 288 292 293 293 292 293 292 294 295 294 293 291 291 290 289 288 288 289 288 288 287 286 286 284 283 282 281 280 280 279 280 279 279 280 279 280 280 280 279 279 279 280 280
287 289 285 286 282 281 286 288 289 291 291 293 292 294 297 295 294 292 290 289 289 289 289 289 289 288 287 286 285 283 282 281 280 279 278 278 279 278 278 278 278 278 278 278 278 278 278 278 278
283 285 285 284 284 282 281 286 293 292 293 292 294 297 298 296 295 293 290 289 289 289 288 288 288 287 286 284 283 281 280 279 278 277 277 277 277 277 277 277 277 277 277 277 276 276 276 275 275
287 288 288 284 283 284 284 285 292 294 295 294 294 294 296 295 295 294 291 289 288 287 287 287 287 286 284 283 281 279 278 277 276 276 276 277 276 277 276 276 275 275 275 275 275 274 274 274 273

GFSSGP_sfc_thetae_027.txt.gz
Theta_e
330 330 328 324 309 306 301 301 306 304 304 309 311 309 307 309 306 303 313 314 319 320 324 326 328 331 333 335 337 336 336 337 339 340 340 340 340 341 341 340 340 341 343 345 345 346 346 346 346
326 324 324 318 305 301 302 305 302 305 307 309 308 307 306 306 309 308 309 312 317 318 321 322 325 327 329 330 330 330 330 332 333 333 333 336 335 335 336 335 336 337 339 341 343 343 343 343 344
323 322 317 310 305 299 301 304 306 306 307 307 306 307 308 307 308 311 310 312 315 316 319 319 321 323 325 325 325 324 325 325 325 325 328 330 327 326 326 328 329 330 332 334 335 337 338 338 339
320 318 313 303 301 304 303 306 308 305 305 306 307 304 305 308 309 310 308 311 313 314 316 317 319 320 321 322 321 321 321 320 320 320 322 322 320 319 319 320 321 322 323 325 327 329 329 330 334
318 314 305 302 302 304 306 307 307 305 305 306 306 304 305 306 308 307 305 308 309 310 312 314 315 316 317 318 318 317 317 317 316 316 317 317 316 315 315 316 317 318 318 319 320 321 323 327 329
311 311 301 299 301 304 305 307 307 306 307 306 304 305 306 308 305 305 304 304 305 306 309 309 310 311 313 313 313 314 314 314 313 312 312 312 312 312 312 313 314 315 315 316 316 317 319 319 319
309 307 302 302 301 302 305 308 306 306 306 305 307 303 305 304 306 305 304 304 303 303 304 305 306 307 309 309 309 310 310 309 309 308 307 307 308 307 307 307 310 311 312 313 313 314 315 315 314
310 308 302 303 301 301 305 306 307 307 306 307 308 304 305 306 306 304 304 303 302 302 302 303 303 303 305 305 305 306 305 305 304 304 302 301 304 303 303 303 306 308 308 310 311 311 312 312 311
312 303 301 302 301 303 305 304 305 306 306 305 306 306 305 307 304 302 301 301 301 300 301 302 302 303 303 303 301 302 301 301 300 302 300 304 302 302 302 302 303 305 305 307 308 309 309 308 310
308 304 304 306 306 304 305 305 306 302 303 304 305 306 303 304 301 300 300 299 299 299 300 301 301 302 301 299 302 303 301 302 302 302 302 301 301 300 301 303 302 303 302 304 306 307 307 307 304
307 303 306 305 306 305 305 304 306 303 302 306 306 307 303 302 301 300 301 301 300 301 300 299 300 301 301 300 302 302 302 302 302 301 301 301 300 301 300 300 300 301 302 300 300 301 301 302 303
302 306 305 305 305 303 303 306 303 304 306 308 311 311 306 302 301 301 302 302 302 301 300 299 300 300 301 301 301 301 301 301 300 299 299 300 299 299 298 298 298 299 299 298 298 300 300 300 301
303 306 305 306 304 304 304 302 303 305 308 310 307 305 306 303 303 303 304 304 304 301 300 299 299 299 300 300 300 300 299 299 299 298 297 297 297 296 297 296 296 296 296 295 295 296 296 297 298
305 304 304 305 304 304 301 303 302 306 309 308 307 304 305 304 304 304 303 303 303 301 299 299 298 299 299 299 299 299 298 298 298 297 296 295 296 295 295 295 295 295 294 294 294 294 294 295 297
303 300 304 304 304 302 302 299 300 306 305 305 306 305 305 305 305 304 304 303 303 301 300 298 298 298 298 298 298 298 298 297 297 295 294 294 294 293 293 293 293 293 293 293 293 293 294 293 294
300 301 297 304 303 302 301 297 304 308 305 303 305 305 304 304 304 305 305 304 303 301 299 298 297 297 297 297 297 297 296 296 295 295 295 293 292 292 292 292 292 292 292 292 292 291 291 292 292
301 296 298 300 302 300 299 298 304 306 303 303 305 306 306 304 304 305 305 304 302 300 298 297 296 295 296 296 296 296 296 295 295 294 293 292 291 291 291 291 291 291 291 291 291 290 290 290 290
296 297 298 297 301 299 298 297 302 305 305 303 304 305 305 306 304 304 304 304 302 300 299 297 296 295 296 296 295 294 294 294 294 293 292 291 291 290 290 290 290 290 289 289 290 289 289 289 289
299 297 296 298 301 298 298 298 300 304 304 303 304 304 305 305 308 306 304 303 301 300 298 296 295 295 295 294 293 293 292 293 292 293 291 290 290 289 289 289 289 289 288 288 288 288 287 288 289
299 296 295 299 301 296 297 296 300 302 302 303 303 303 304 305 306 305 303 302 299 297 296 295 295 295 294 295 295 294 293 294 293 292 291 290 289 288 288 287 287 288 287 287 288 288 286 287 288
296 294 295 295 298 295 294 292 296 300 301 302 303 303 304 304 306 304 302 299 298 296 295 295 295 295 294 295 294 292 292 290 289 290 290 290 289 288 287 287 287 286 287 286 287 287 286 284 286
292 299 298 296 294 290 294 287 296 298 299 300 301 303 304 305 305 304 301 299 297 296 297 295 295 294 294 294 292 290 289 288 290 292 291 289 288 287 287 287 286 286 286 286 286 286 285 285 283
295 294 294 295 293 292 292 289 293 296 294 296 299 302 304 306 303 301 300 299 298 297 296 295 294 294 294 294 291 290 289 291 292 289 288 287 288 287 286 286 285 285 286 286 285 285 285 285 283
295 293 293 292 291 285 291 290 291 294 294 297 298 300 303 302 301 300 301 299 298 297 296 294 293 292 293 292 291 291 290 290 289 288 287 287 287 286 286 285 285 285 284 284 285 284 284 283 283
293 292 287 287 286 285 294 290 292 297 298 298 298 300 302 301 300 300 298 297 296 296 294 293 292 291 292 291 291 290 290 290 288 287 286 286 285 285 285 285 284 283 284 283 283 283 282 283 282
291 293 289 283 284 287 291 286 292 299 300 300 300 301 301 299 300 299 299 297 296 295 293 293 292 291 291 290 290 290 290 288 287 287 286 285 284 284 284 283 283 282 282 282 282 282 282 282 282
291 287 294 290 288 285 288 293 298 298 297 298 298 297 298 299 299 298 298 298 296 294 293 292 291 291 291 290 290 289 288 287 286 285 285 284 283 282 282 281 281 281 281 281 281 281 280 281 281
291 292 287 288 282 281 287 290 291 296 295 296 296 296 299 301 300 299 298 297 296 295 294 293 292 291 291 290 289 288 287 286 285 284 282 282 282 281 280 280 280 280 280 280 280 279 280 279 280
285 286 287 287 289 284 282 287 295 295 297 297 297 297 299 302 300 299 297 296 296 295 293 292 292 291 290 289 288 286 285 284 283 282 281 281 281 280 279 279 279 278 278 278 278 278 278 277 277
291 291 290 285 284 286 285 285 295 298 298 299 297 298 301 301 301 301 300 297 294 293 293 292 291 290 289 288 287 285 283 282 280 280 280 280 279 279 278 278 277 277 277 277 276 275 276 276 275

GFSSGP_sfc_thetae_030.txt.gz
Theta_e
330 330 325 320 305 302 297 298 300 300 300 303 306 303 301 304 303 298 310 315 319 319 325 325 331 333 335 336 337 337 337 339 340 339 339 339 339 339 338 338 339 340 342 344 345 345 344 343 344
324 323 320 314 300 296 297 300 298 301 303 304 304 303 300 301 307 305 304 314 317 318 321 322 329 330 331 331 331 331 332 333 332 334 335 334 332 332 332 332 332 332 334 335 336 337 337 337 339
322 320 312 306 300 295 295 298 300 302 303 302 300 301 301 301 306 305 307 313 314 315 318 320 325 327 328 327 327 326 326 327 326 329 329 326 325 325 324 325 324 325 326 328 329 329 330 332 333
318 314 310 297 295 299 298 299 303 301 301 303 302 298 301 304 306 307 308 312 311 313 315 319 322 323 324 323 323 323 322 322 322 323 323 321 320 320 320 319 319 320 321 321 322 322 324 326 327
314 311 300 297 298 299 301 302 304 301 301 301 301 299 299 303 305 305 306 309 308 309 311 314 319 320 321 321 320 320 319 319 318 318 318 317 316 316 316 317 317 317 318 318 319 319 320 320 319
307 306 297 294 298 300 300 301 302 302 303 301 299 298 300 304 302 302 303 304 306 307 309 310 314 316 317 317 317 316 316 315 314 314 314 313 313 313 313 314 315 315 316 317 317 317 317 317 316
305 304 298 298 298 299 302 303 300 301 301 301 302 298 298 300 302 301 300 300 301 304 305 305 306 309 312 312 313 313 312 311 310 309 309 309 309 309 308 309 311 312 313 313 314 314 314 314 314
306 303 298 297 297 297 301 301 301 302 300 303 304 297 296 301 302 300 299 298 297 298 300 300 302 304 303 303 308 308 308 307 306 305 304 304 306 305 305 304 307 308 309 310 311 311 312 311 311
310 298 296 299 298 298 301 299 301 300 298 300 303 300 300 303 301 298 296 296 296 298 298 298 299 299 301 301 303 304 304 303 303 303 301 302 298 298 300 302 305 306 307 308 309 310 309 308 307
303 299 301 301 301 298 301 300 300 297 298 299 300 301 302 301 298 296 295 295 295 294 296 297 297 298 299 300 298 299 299 299 299 298 298 298 297 297 300 303 303 303 303 304 305 306 305 302 299
303 298 302 302 302 302 301 300 302 298 297 299 300 301 299 298 297 297 296 296 296 295 296 296 296 297 296 295 298 298 298 297 297 296 296 297 297 296 296 295 295 295 299 295 296 296 296 296 296
299 304 304 305 303 301 299 301 299 300 300 303 302 304 299 298 297 297 297 297 296 296 296 295 296 296 296 297 297 297 296 296 295 294 295 294 294 293 293 292 292 292 292 291 292 293 293 294 295
300 301 304 303 301 300 302 299 299 299 302 305 303 302 299 299 298 298 299 299 298 296 296 294 295 295 297 296 295 295 294 295 294 294 293 293 292 291 292 291 291 290 290 290 290 291 291 292 293
301 301 301 302 302 301 298 298 298 299 303 303 303 300 300 300 300 299 299 299 299 298 296 295 295 295 296 295 294 294 294 293 293 292 292 292 292 290 290 290 290 290 289 289 289 289 289 290 291
301 296 299 300 300 299 300 295 296 301 300 300 301 301 300 300 301 301 301 300 300 299 297 295 294 295 294 294 294 294 294 294 292 292 291 291 291 289 289 289 288 288 288 289 288 289 289 288 290
295 295 291 297 300 298 297 290 299 302 300 298 299 298 300 300 301 301 301 301 300 299 296 295 296 294 293 293 293 293 292 291 291 291 290 290 290 289 288 288 288 288 288 287 287 287 287 287 287
295 289 292 296 300 297 295 292 298 299 298 297 298 298 299 300 300 301 300 300 300 299 296 294 293 293 293 292 292 292 291 290 290 290 289 289 290 289 287 287 287 287 287 286 286 286 285 285 286
290 291 293 292 295 295 292 292 297 299 297 297 298 298 299 300 300 301 300 300 299 298 296 294 293 292 292 292 291 290 290 290 289 288 289 289 289 288 287 286 286 287 286 285 286 285 285 285 285
295 293 292 295 298 294 293 294 296 299 297 297 300 300 299 300 302 302 301 299 298 296 294 293 292 291 292 290 289 288 288 288 288 288 288 287 287 287 286 286 285 285 284 284 284 284 284 283 285
293 291 292 295 296 294 292 292 296 297 298 299 299 300 300 299 299 299 299 298 297 295 294 293 292 291 292 291 290 289 289 288 288 288 287 287 287 286 286 284 284 284 283 283 283 284 282 283 283
293 291 291 291 294 291 289 287 291 295 298 299 300 300 300 298 297 297 297 297 295 294 293 292 292 292 291 291 290 289 288 286 285 285 285 286 286 286 285 284 283 283 283 282 282 282 282 281 282
289 294 293 292 288 284 290 281 289 292 294 295 296 296 298 296 297 298 296 295 295 294 294 293 292 292 292 291 290 287 286 283 284 286 286 285 285 284 285 284 283 282 282 282 282 284 282 281 280
291 293 290 289 288 286 287 283 287 292 290 293 295 296 298 296 297 296 296 296 295 293 292 292 291 291 291 290 290 287 285 285 285 285 285 284 284 284 284 284 283 281 281 281 281 281 281 281 280
292 290 288 287 285 279 285 285 285 288 291 292 294 295 296 296 296 296 295 295 294 293 291 291 290 290 290 290 289 287 286 285 284 283 283 282 282 282 282 283 281 281 281 280 281 281 281 280 280
289 287 280 278 277 279 287 284 289 290 292 293 293 295 295 296 294 293 293 293 293 292 291 291 290 289 290 290 289 288 286 285 284 284 283 282 281 280 280 281 280 280 280 280 280 280 280 280 279
287 288 281 274 275 282 285 280 286 294 296 294 295 296 294 294 294 294 293 293 292 291 291 291 290 289 289 289 288 287 286 287 286 284 284 282 280 280 281 280 279 279 279 279 279 279 279 279 280
287 283 289 283 277 276 284 286 290 292 293 293 294 293 292 292 293 294 293 292 291 291 291 290 289 289 289 288 288 287 286 285 285 282 281 280 280 280 279 279 279 279 279 279 279 279 279 279 279
286 289 282 283 273 272 282 281 285 289 292 292 290 291 292 293 293 293 293 293 292 292 291 290 290 289 289 288 287 287 286 284 282 281 280 279 279 278 278 277 278 278 278 278 278 278 279 278 278
283 283 284 285 283 277 278 282 287 291 292 292 291 292 293 294 294 293 293 292 292 291 291 290 289 288 288 287 287 286 284 282 281 280 279 278 278 278 277 277 277 277 277 278 277 277 277 276 276
288 287 286 282 281 280 281 284 291 291 291 293 292 293 294 294 294 293 293 291 291 291 290 289 289 288 287 287 286 284 282 281 280 278 277 278 277 277 276 276 276 276 276 277 276 275 275 275 274

GFSSGP_sfc_thetae_033.txt.gz
Theta_e
325 324 320 313 300 295 291 295 295 296 296 298 301 301 301 300 301 296 309 316 321 322 325 329 335 336 337 336 338 339 340 340 340 341 341 340 339 337 336 336 336 337 339 339 339 339 338 339 341
319 320 314 306 295 289 292 294 294 296 299 300 302 300 299 298 304 304 305 315 317 320 322 324 333 334 335 335 335 336 335 335 336 336 335 333 333 333 332 331 330 331 333 334 334 333 333 333 334
318 317 305 300 293 290 290 294 296 298 300 299 297 299 298 299 302 304 305 313 315 316 318 323 331 331 330 330 331 331 331 330 333 331 329 327 326 326 325 324 323 324 325 325 325 325 328 328 328
312 307 302 292 291 294 293 295 298 298 298 300 300 296 298 302 304 304 309 311 311 313 316 323 327 328 327 327 326 326 325 325 327 325 323 322 321 321 320 320 320 320 321 321 321 321 321 320 320
307 302 295 291 292 294 294 299 298 297 297 297 299 296 297 300 303 307 308 309 309 310 313 317 324 325 324 323 323 322 322 321 321 321 320 318 318 318 318 318 318 318 319 319 319 319 318 318 317
300 299 291 289 292 295 296 299 299 298 298 298 296 295 297 300 301 302 305 306 308 308 310 313 320 322 321 321 320 319 319 318 317 317 316 315 315 314 315 315 315 316 316 317 317 316 316 315 315
298 297 292 292 294 295 297 299 297 298 297 298 300 295 294 296 299 300 301 303 304 306 306 306 309 314 317 318 317 317 315 314 314 314 312 311 311 310 310 311 312 314 314 314 314 314 314 314 313
300 297 292 292 293 294 297 297 298 297 298 300 301 296 295 297 299 298 297 297 299 301 302 302 303 305 304 306 314 313 312 310 309 309 308 307 307 307 306 306 309 311 311 311 311 311 310 309 309
303 292 290 293 294 295 297 296 298 299 297 297 301 297 298 300 298 295 293 293 294 297 298 299 300 301 300 301 306 308 308 307 306 305 305 303 296 298 299 305 306 307 307 307 308 308 306 304 304
298 292 294 298 296 295 297 296 298 295 295 296 297 297 299 299 296 295 293 292 291 293 295 297 296 298 299 301 299 297 300 298 297 297 296 296 295 297 300 302 303 302 301 303 304 304 301 298 295
298 294 298 299 299 298 297 296 298 296 294 296 297 296 297 295 295 295 294 294 294 293 294 296 296 296 297 296 296 296 295 295 295 294 295 295 295 294 293 292 292 291 295 291 293 293 293 292 293
296 300 301 302 300 298 296 298 296 296 299 301 300 300 297 295 295 295 294 294 293 293 294 294 295 295 294 294 296 295 295 294 293 293 294 293 292 291 290 290 290 289 290 289 289 290 291 291 292
298 298 301 301 300 298 299 297 296 297 298 300 301 299 297 296 296 297 297 296 295 294 294 294 294 294 294 294 294 294 294 293 293 292 292 292 290 289 290 289 289 288 288 288 288 289 289 289 291
297 298 298 299 299 298 297 295 296 297 299 299 299 298 297 297 296 295 295 296 296 296 294 294 294 295 295 293 293 293 292 292 292 290 290 291 290 289 289 288 288 287 287 287 287 288 287 288 289
298 295 295 297 298 297 297 294 294 300 298 298 298 297 297 297 297 296 297 297 298 297 295 294 294 294 295 293 292 293 292 292 290 290 290 290 290 288 288 288 287 286 287 287 287 287 287 286 288
292 290 288 294 296 297 296 290 296 300 296 297 297 295 296 298 298 299 299 298 298 297 294 294 296 294 294 293 292 293 291 290 290 289 289 289 289 288 287 287 287 287 286 286 286 285 285 285 286
289 284 287 292 297 295 293 290 295 297 295 296 294 295 296 296 298 299 300 299 298 297 295 293 294 293 293 291 291 291 290 289 289 288 287 288 288 288 287 286 286 286 286 285 286 284 284 284 284
285 285 288 289 292 292 290 291 296 296 294 295 294 294 295 297 299 301 299 300 299 298 295 294 293 293 292 291 290 289 288 288 288 287 288 288 287 287 286 285 285 285 284 284 284 284 284 284 283
289 288 287 291 295 292 291 292 294 297 293 295 297 297 296 297 301 298 299 299 298 297 293 292 291 291 292 291 289 288 288 287 286 286 287 287 287 286 285 284 284 284 284 284 284 283 283 282 283
291 289 289 292 294 292 290 291 294 295 297 295 297 298 299 299 296 297 296 297 297 295 293 292 291 291 292 292 291 288 287 287 286 287 286 286 286 286 285 284 283 283 282 282 282 282 281 282 282
291 289 289 289 291 290 288 286 289 294 296 297 298 299 300 299 297 296 294 296 296 294 292 292 291 291 292 291 289 287 287 285 284 284 284 285 285 285 284 283 283 282 282 281 281 281 281 280 280
288 292 291 289 286 284 287 282 286 290 292 294 297 297 298 298 294 295 294 294 294 294 293 292 292 290 291 290 289 288 286 286 287 287 285 284 285 284 284 283 282 281 281 281 281 282 281 280 279
291 291 290 287 284 284 284 282 284 290 288 291 295 296 299 297 294 293 294 296 295 294 292 292 291 290 290 290 290 289 287 287 283 283 283 284 283 283 283 283 282 281 281 280 281 281 280 280 279
291 288 287 284 283 279 283 284 285 285 290 290 295 295 297 295 294 294 295 295 293 291 292 290 290 290 290 289 289 288 287 284 283 284 284 283 283 282 282 282 281 281 280 280 280 280 280 279 279
289 287 279 276 275 278 285 282 288 290 291 293 295 296 297 294 293 292 291 292 291 290 290 290 289 289 290 289 289 288 287 286 285 284 284 283 282 281 281 281 280 280 280 280 280 279 279 279 278
287 288 281 274 275 281 281 279 285 293 296 293 294 295 292 293 293 292 293 292 291 291 289 290 289 289 289 289 288 288 287 286 286 284 284 283 283 282 281 280 280 279 279 279 279 278 278 278 279
286 283 289 283 277 275 284 285 289 290 291 291 292 291 291 292 291 292 291 290 290 289 289 289 289 289 288 289 289 288 287 287 286 284 283 283 282 281 280 280 279 278 278 278 278 278 278 278 278
286 287 282 283 276 272 281 279 285 286 291 293 290 289 290 291 291 292 292 291 291 290 290 289 290 289 288 288 288 288 286 286 286 283 282 281 280 279 279 278 278 277 277 278 277 277 278 277 278
282 282 283 284 282 279 278 282 287 288 290 291 291 290 290 291 292 292 292 291 291 290 289 289 288 288 288 287 287 287 286 285 283 283 282 281 280 278 278 277 277 277 277 277 276 276 277 277 277
287 287 288 283 281 279 281 283 291 292 291 291 289 291 292 292 293 293 292 290 290 290 290 289 289 288 288 287 286 286 284 282 282 282 280 279 279 278 277 277 277 276 276 276 276 275 276 276 276

GFSSGP_sfc_thetae_036.txt.gz
Theta_e
323 318 319 311 298 294 290 294 292 295 295 296 300 299 299 300 300 294 308 318 323 324 329 332 338 341 342 343 343 342 342 341 340 342 342 340 339 338 336 335 336 338 339 339 337 336 336 336 337
317 318 312 303 294 288 290 295 294 295 298 299 299 298 297 298 303 304 308 318 321 322 324 328 337 337 337 337 338 338 337 337 337 338 336 334 335 334 333 331 330 331 332 331 330 331 333 332 332
315 314 305 298 291 288 290 293 294 297 298 298 296 297 299 298 301 304 307 315 319 318 321 326 335 335 335 335 336 336 334 335 335 333 332 331 329 328 326 325 324 324 325 325 324 325 323 323 323
310 305 299 293 291 294 293 294 296 296 296 298 298 294 297 301 302 305 307 315 314 315 318 327 332 332 332 332 332 331 330 332 330 328 326 325 324 323 322 321 321 322 322 322 322 321 320 319 318
305 300 293 290 290 292 295 296 296 296 295 297 298 294 295 299 302 305 308 312 311 312 315 322 331 329 329 329 328 327 327 327 325 323 322 321 320 320 320 320 319 320 320 320 319 318 317 317 316
299 297 290 288 290 294 295 297 297 295 296 295 295 294 296 298 302 305 306 307 310 310 312 317 326 327 326 325 325 324 323 323 322 320 319 318 318 318 318 317 318 318 317 317 317 316 316 316 316
297 295 289 289 292 294 296 297 295 296 295 297 297 295 295 295 300 303 304 305 307 308 309 310 314 319 324 324 323 321 320 320 319 318 317 315 314 314 314 314 315 315 315 315 315 314 313 313 313
299 295 289 290 291 293 296 296 296 297 297 298 300 295 295 296 299 300 301 301 303 304 305 305 306 309 309 312 320 319 317 316 316 314 313 311 310 310 310 310 312 313 313 313 312 310 309 308 309
300 290 288 290 292 294 295 294 296 297 296 296 299 296 297 298 297 295 294 296 299 302 302 302 303 303 303 305 310 315 314 313 312 310 309 304 298 298 301 307 308 308 308 309 308 306 304 302 303
297 289 290 295 295 293 295 295 295 294 293 295 296 296 297 297 296 295 293 294 294 298 298 300 300 300 300 304 303 300 302 299 298 297 297 295 294 296 300 303 303 303 302 303 304 302 300 296 292
297 293 296 299 298 298 296 294 296 294 293 295 297 296 295 294 294 295 295 295 296 297 297 299 298 298 297 299 297 295 296 294 295 294 294 294 295 294 292 291 291 290 293 290 292 291 291 290 291
294 298 298 300 300 297 295 296 295 295 299 299 299 298 295 294 294 294 294 294 292 292 295 296 296 297 296 294 296 294 294 293 292 293 294 292 291 290 290 289 289 288 288 287 288 288 289 289 290
296 297 299 300 299 297 297 297 295 295 297 299 298 297 295 296 295 296 296 295 293 292 294 294 295 296 297 293 294 294 293 294 292 292 293 292 290 289 289 288 288 287 287 287 287 287 287 288 289
295 297 297 298 298 297 296 295 295 299 296 297 298 296 295 296 296 296 294 294 293 294 293 294 295 295 295 293 294 294 293 293 291 290 291 291 290 288 288 287 287 286 286 286 287 286 286 286 287
297 294 295 297 296 296 296 294 293 300 295 297 296 296 296 296 297 296 297 296 296 295 295 293 294 294 294 293 294 293 293 293 291 290 290 290 290 288 287 287 286 286 286 286 286 286 286 285 287
291 290 287 292 294 295 296 290 296 298 296 296 295 295 295 296 297 298 298 297 297 296 294 294 295 294 294 294 293 293 292 291 291 290 289 289 289 288 287 286 286 285 285 285 285 284 284 284 284
285 283 285 290 295 294 292 290 296 295 294 294 294 294 295 297 295 298 298 297 297 297 295 294 294 293 294 293 292 292 291 291 290 288 288 288 288 288 286 286 285 285 285 284 285 283 283 282 283
283 283 285 287 291 290 289 290 295 297 293 293 293 293 293 296 298 300 299 298 298 297 295 295 294 293 293 292 291 290 289 288 288 288 287 287 287 287 285 285 285 285 284 283 283 282 283 282 282
286 285 285 289 292 290 290 291 294 297 294 293 296 297 295 295 300 299 297 298 297 296 294 293 292 292 293 291 290 290 290 288 286 286 287 286 286 286 285 284 284 284 283 283 282 282 281 281 282
289 287 287 291 293 289 290 291 294 294 297 297 296 297 298 299 300 299 295 295 296 296 295 293 292 292 293 293 293 290 290 286 288 287 286 286 286 285 284 283 283 282 282 282 282 282 281 281 281
288 287 288 287 289 288 287 288 288 291 295 298 299 298 299 299 299 300 294 294 295 295 294 293 292 291 293 293 291 286 286 284 284 284 285 285 286 285 284 283 282 282 282 281 280 281 281 280 280
287 291 291 289 284 282 287 282 284 289 291 293 296 297 297 298 300 301 293 292 294 296 294 293 292 291 292 291 290 288 288 287 287 287 285 283 285 284 284 283 282 281 281 280 281 282 281 280 279
290 290 288 285 283 282 283 280 285 289 288 292 295 296 297 298 299 297 293 295 295 295 293 292 292 291 292 290 290 289 288 287 284 283 283 284 283 283 283 282 281 280 280 280 281 280 280 280 279
289 287 286 283 281 277 285 282 286 285 289 291 294 296 297 298 299 292 294 293 291 290 291 291 290 289 290 289 289 289 288 283 283 283 284 284 283 283 282 282 281 280 280 279 280 280 280 279 279
288 284 278 275 275 278 283 281 287 288 290 291 294 296 297 298 297 293 292 291 289 289 289 289 289 288 288 288 288 288 288 285 286 285 285 284 283 282 281 282 281 280 280 280 280 279 279 279 278
285 287 279 272 276 281 281 278 287 291 294 295 294 296 296 294 292 293 292 291 290 290 289 290 289 289 288 288 289 289 288 287 287 286 286 285 284 284 283 282 281 280 280 279 279 278 278 278 279
284 282 289 281 272 273 280 285 291 291 290 290 291 292 292 290 291 292 291 291 290 289 289 289 288 289 289 288 289 288 288 287 287 285 285 285 284 283 281 281 280 279 279 279 278 278 278 278 278
286 288 281 280 273 272 278 279 284 288 289 292 292 290 292 291 290 291 291 291 289 289 288 288 288 289 288 288 288 288 288 287 287 284 283 283 283 281 281 280 280 279 278 278 277 277 278 277 278
282 283 283 283 282 279 278 282 293 292 289 288 290 290 290 289 290 291 292 292 290 289 288 288 287 287 287 288 288 288 287 286 286 284 283 282 281 280 280 280 279 278 278 277 277 276 277 277 276
286 285 286 282 281 281 283 283 295 293 290 289 289 290 290 290 292 292 292 292 290 290 288 289 288 287 288 288 287 287 285 284 284 283 282 281 281 280 280 279 278 278 277 277 276 276 276 276 275

GFSSGP_sfc_thetae_039.txt.gz
Theta_e
319 316 315 310 297 294 289 292 292 293 294 297 299 298 299 298 299 293 307 319 323 326 330 336 345 347 346 347 346 347 347 346 346 346 344 342 340 339 337 337 338 339 339 338 336 336 335 335 336
314 315 310 301 292 285 288 293 293 294 296 298 298 297 297 298 302 304 310 317 323 325 328 330 338 344 343 343 341 339 339 339 340 339 338 336 336 335 334 333 332 332 332 331 331 330 329 327 327
313 311 304 296 289 286 289 292 293 295 296 296 296 296 297 297 300 304 310 319 321 321 325 328 337 339 339 338 338 339 338 339 339 337 334 334 332 330 328 326 326 326 326 325 325 323 322 321 321
308 303 297 293 290 293 293 295 294 294 295 298 296 295 297 301 302 305 309 318 317 318 321 331 337 337 336 335 336 336 335 337 335 333 331 330 327 325 324 323 323 323 323 323 322 320 319 319 319
303 298 291 288 288 291 293 295 296 295 293 295 296 293 295 298 301 304 313 315 314 314 318 325 335 335 335 335 335 334 335 334 331 329 327 325 323 322 322 321 322 321 321 320 319 318 318 318 318
298 296 289 286 288 293 295 296 296 294 295 294 294 293 296 296 301 304 310 310 312 313 316 320 328 331 332 332 331 330 331 330 327 325 324 322 321 321 320 320 320 319 319 318 318 318 317 317 316
297 293 288 287 289 293 296 295 294 294 293 295 296 293 296 295 301 304 306 307 309 311 313 314 319 323 327 328 328 327 327 326 324 322 321 320 319 319 318 318 318 318 318 317 315 314 314 313 313
298 295 290 289 290 292 295 294 295 296 296 296 298 294 294 295 300 301 303 304 305 307 309 309 312 314 315 316 324 324 324 323 321 320 319 317 315 315 314 317 316 316 316 314 312 310 309 309 308
297 290 287 289 290 293 293 293 295 296 294 295 298 295 296 297 299 298 297 300 301 304 305 306 307 308 308 309 314 319 320 320 319 317 315 309 300 302 302 311 312 312 312 311 309 306 304 302 303
295 287 289 293 293 292 294 293 294 295 292 293 296 295 295 296 298 298 296 298 299 301 302 303 303 303 304 307 306 305 307 305 304 301 300 296 295 297 300 305 308 307 307 307 305 303 300 295 290
295 292 293 296 298 296 295 293 295 293 292 295 296 297 294 294 295 298 298 300 301 302 301 301 302 301 300 302 300 299 298 296 296 295 293 293 294 296 294 293 291 290 294 290 291 290 289 289 289
293 297 297 298 298 296 294 295 294 294 300 298 298 296 294 293 294 296 297 298 297 297 299 300 300 299 297 297 298 296 295 293 293 292 293 292 292 290 289 289 288 287 287 287 287 287 288 288 289
294 296 298 298 298 297 296 295 295 295 297 298 297 296 295 295 295 296 297 297 295 295 297 297 298 299 298 294 295 294 293 294 292 292 293 292 290 289 288 288 287 286 286 286 286 286 286 287 288
294 296 296 297 296 296 296 296 294 300 296 297 296 296 295 295 296 295 294 294 293 295 295 296 297 297 297 295 294 295 293 293 291 291 292 291 290 288 288 287 286 285 286 286 286 285 285 285 286
295 292 293 294 295 295 295 293 291 300 295 296 295 295 295 295 295 295 297 296 296 295 294 294 296 296 296 295 293 293 293 293 292 291 290 290 290 288 287 287 286 285 285 286 285 285 285 284 285
289 289 286 290 293 293 295 289 296 295 295 295 295 293 294 296 296 298 298 297 297 296 294 293 296 295 295 295 294 294 293 293 292 290 289 290 289 288 287 286 285 285 285 285 284 283 283 283 283
284 282 283 287 293 292 291 288 295 294 292 294 294 294 293 294 295 296 298 298 298 296 295 293 294 294 294 294 294 293 292 292 292 288 288 288 288 288 287 285 285 285 284 284 284 282 282 282 282
282 281 283 284 289 289 288 288 294 296 293 294 295 295 294 295 297 299 297 298 298 296 296 294 294 294 294 294 292 290 290 291 288 289 288 288 288 287 286 285 284 284 283 283 282 282 282 282 281
284 283 283 287 290 287 289 290 292 296 295 293 295 297 298 299 301 300 298 297 296 294 295 294 292 293 293 292 290 290 290 289 288 288 288 287 287 286 285 284 283 283 282 282 282 282 281 281 281
287 286 286 290 292 287 288 288 292 293 295 297 298 298 297 299 301 300 295 294 295 295 295 294 293 293 293 293 293 292 292 288 290 288 287 287 286 286 284 284 283 282 282 282 281 282 280 281 280
286 284 286 286 288 287 286 287 289 291 294 297 298 299 299 299 299 301 298 293 294 294 295 294 294 293 293 293 292 286 286 284 283 284 285 285 286 285 284 283 283 282 281 281 280 281 280 280 280
285 289 288 287 283 282 284 280 284 289 289 291 294 296 297 297 298 298 299 293 293 295 295 295 294 293 293 293 291 290 289 288 287 289 287 285 285 284 284 284 283 282 281 280 280 281 280 280 279
287 289 287 284 281 281 282 279 283 286 285 290 294 296 297 298 297 297 298 295 294 295 294 294 292 291 292 292 291 291 290 290 285 284 284 285 284 285 284 283 282 281 281 280 280 280 280 279 279
288 285 284 281 280 277 282 281 286 284 287 288 291 292 294 296 296 296 295 294 294 291 290 291 290 290 291 290 290 290 289 285 284 284 284 284 284 283 282 282 281 281 280 280 280 280 280 279 279
286 283 278 275 274 277 281 281 287 287 288 290 292 293 295 295 293 292 291 292 292 290 288 289 289 288 289 289 289 289 289 286 287 285 285 284 283 283 282 282 281 280 280 280 280 280 279 279 278
284 285 279 273 276 280 280 277 286 290 291 292 291 292 291 292 294 291 291 292 291 290 289 289 288 288 288 289 289 289 289 287 287 286 286 285 285 284 283 282 281 280 280 280 280 279 279 279 279
283 282 288 281 279 277 279 284 288 294 294 289 289 290 289 290 290 290 290 291 289 288 288 288 288 288 288 288 289 288 288 287 287 286 286 285 285 284 282 283 281 280 280 280 279 279 278 278 279
286 286 280 280 274 273 279 281 282 289 291 292 290 290 290 289 290 289 289 290 289 287 287 287 288 289 288 288 289 289 289 288 288 285 285 285 285 284 282 282 281 280 280 279 279 278 278 278 278
283 281 282 283 282 278 277 282 288 292 294 292 291 289 289 289 289 290 291 291 290 288 286 287 287 287 287 288 289 289 288 287 287 285 286 285 284 283 282 282 281 280 280 279 278 278 278 277 277
285 286 286 281 280 282 282 282 292 294 295 295 292 292 291 291 290 291 293 292 292 291 289 288 287 287 288 288 288 287 287 286 286 285 284 285 283 282 283 281 281 280 280 279 278 277 277 276 276

GFSSGP_sfc_thetae_042.txt.gz
Theta_e
318 315 312 308 295 293 288 291 294 292 292 297 297 297 298 297 298 292 307 319 322 325 330 339 347 349 349 349 350 350 349 348 347 346 346 344 342 339 339 339 340 340 340 338 336 336 334 332 333
312 313 308 299 291 284 284 292 293 293 295 296 297 297 297 297 301 304 309 319 324 327 329 333 343 348 349 349 347 348 345 344 344 344 342 340 338 336 335 335 334 334 333 333 331 328 326 325 325
312 309 303 294 287 285 285 291 292 293 295 295 298 299 298 298 299 303 310 318 322 324 327 330 339 345 344 345 343 342 342 341 341 340 337 337 335 333 331 329 329 328 327 327 326 324 322 321 321
307 302 296 292 288 292 291 294 292 293 294 296 295 294 298 300 301 303 310 318 319 320 324 331 339 341 340 340 339 339 338 338 338 337 335 335 332 329 327 326 325 325 325 324 322 321 320 321 320
302 297 288 286 287 290 292 295 294 294 293 293 295 294 295 297 300 304 313 317 317 317 320 327 338 340 339 337 338 338 337 337 336 334 333 331 327 326 324 324 324 323 323 322 320 321 320 319 319
297 295 288 285 286 291 293 294 294 293 294 293 296 295 295 296 300 304 312 312 314 315 317 323 331 334 334 334 336 336 335 336 334 332 329 326 324 323 323 323 322 321 321 320 321 319 318 317 316
296 292 287 286 288 292 294 293 292 292 293 295 295 295 296 296 299 305 309 309 311 313 315 317 321 326 330 332 332 333 335 333 330 328 326 323 322 321 321 320 320 320 320 318 317 316 315 314 313
297 294 288 287 288 290 293 293 293 294 295 295 297 294 295 298 301 303 305 306 307 309 312 313 315 318 319 320 328 329 330 329 328 325 324 322 322 320 320 320 319 318 318 315 313 312 311 310 309
296 290 286 288 288 292 293 292 294 294 297 295 297 295 295 296 300 300 299 301 303 306 308 309 311 312 312 313 317 322 324 325 324 321 319 312 304 304 304 312 317 316 314 312 310 308 305 303 303
294 287 289 292 291 292 293 293 294 296 293 293 295 296 295 296 298 299 298 302 301 303 304 306 307 308 308 311 310 309 311 310 308 306 303 299 298 299 302 309 314 312 311 309 307 304 300 294 289
294 291 291 294 295 295 294 293 295 293 292 295 295 297 294 294 296 299 300 302 304 305 304 305 305 305 305 305 304 303 302 301 301 300 297 295 295 297 296 295 294 293 296 291 291 289 288 288 288
293 296 295 297 297 295 294 294 293 294 299 299 298 297 294 294 295 298 299 300 300 300 303 303 303 303 302 302 303 300 300 297 296 295 294 292 292 292 291 289 288 287 287 287 287 287 287 287 288
294 295 297 297 297 296 296 296 294 294 298 297 296 296 295 294 295 297 300 299 298 298 301 301 302 303 302 300 300 298 297 297 294 293 292 292 292 289 288 287 286 286 286 286 286 286 286 286 286
292 294 295 295 296 296 295 297 294 297 295 297 295 295 294 294 295 294 293 296 296 298 299 300 301 303 301 301 299 299 297 295 293 291 292 291 291 288 288 286 286 285 285 285 285 285 284 285 285
293 291 291 292 292 293 293 292 290 298 295 296 294 294 294 294 295 295 297 297 297 297 298 298 299 300 300 300 297 298 296 294 293 292 291 290 290 288 287 286 285 285 285 285 285 284 284 284 284
287 287 284 289 291 292 293 287 295 294 291 294 293 293 292 294 295 297 298 297 297 296 294 296 299 298 298 299 296 296 294 294 293 291 291 290 290 288 286 286 285 284 284 284 284 283 282 282 282
284 281 282 286 292 290 290 286 293 293 291 293 295 296 295 295 294 295 297 298 298 297 296 293 296 297 297 297 295 294 293 293 292 290 290 290 289 288 287 286 285 284 284 283 283 282 282 281 282
282 280 282 282 288 286 286 287 292 295 291 295 296 297 297 299 300 302 296 297 297 297 296 295 294 295 295 296 294 291 290 292 290 290 289 289 289 288 286 285 284 284 283 282 282 281 281 281 281
283 282 281 285 290 286 288 288 291 293 294 294 295 296 297 298 301 301 298 295 295 294 294 294 292 293 294 293 291 291 291 291 290 290 290 289 289 287 286 285 284 283 283 282 282 281 281 280 280
286 284 284 288 290 286 287 288 292 293 293 295 295 296 297 298 299 298 298 293 293 295 294 294 293 293 293 294 294 294 293 292 292 290 288 288 287 287 286 285 284 283 282 281 281 281 280 280 279
284 283 285 284 286 286 284 285 286 289 292 295 296 297 297 297 297 298 297 294 292 293 293 294 294 293 293 294 293 286 286 284 284 285 286 286 287 286 286 285 284 283 282 282 280 280 281 280 279
283 287 287 285 282 279 285 280 282 289 289 290 293 294 295 295 295 295 295 292 291 293 294 294 294 293 293 293 292 291 291 289 289 289 289 287 287 286 285 285 284 283 282 281 281 281 280 280 279
286 287 285 283 281 280 279 278 282 285 285 289 291 292 294 293 293 295 295 294 294 293 293 294 293 293 292 292 292 291 291 292 287 287 287 287 286 285 284 284 283 282 282 281 281 280 279 280 279
287 285 284 281 280 276 281 280 286 283 285 286 289 291 293 293 292 292 292 292 292 292 291 291 290 291 291 291 292 291 291 288 286 286 286 285 285 284 284 283 283 282 282 280 281 280 280 279 280
286 282 277 275 274 277 280 280 287 287 289 290 292 292 293 292 292 291 291 291 292 290 289 288 289 289 290 290 291 290 291 287 288 286 287 285 284 284 283 283 282 281 282 281 280 280 279 279 279
283 284 279 273 276 281 279 277 287 290 290 290 291 291 290 290 290 289 289 289 289 289 288 287 287 286 288 289 289 290 290 288 289 287 287 286 286 287 285 283 283 282 281 281 280 280 280 280 280
282 281 286 281 280 276 282 283 289 294 294 292 289 288 290 289 289 289 291 290 289 288 288 287 286 286 287 288 289 288 289 288 288 286 286 286 286 286 284 284 282 281 281 280 280 280 280 279 280
285 286 279 278 273 274 278 282 283 288 290 292 289 290 290 290 291 290 289 291 290 289 287 286 286 286 286 287 288 288 288 288 288 286 285 285 285 284 283 283 283 281 281 280 280 280 280 279 279
282 281 281 282 282 277 276 280 290 291 292 291 290 289 290 291 291 292 291 291 290 288 286 286 285 285 285 286 287 287 287 287 286 285 285 285 285 284 283 283 283 282 281 281 280 280 279 279 278
286 286 286 281 280 282 281 281 293 293 294 294 294 294 291 292 290 290 290 290 291 291 291 287 286 285 285 286 286 287 286 285 285 286 286 286 285 284 284 283 283 282 281 281 280 279 279 279 278

GFSSGP_sfc_thetae_045.txt.gz
Theta_e
320 317 315 311 299 297 293 296 298 297 299 301 301 302 302 303 302 298 312 322 325 328 335 344 347 349 350 350 349 350 350 349 349 348 347 345 343 341 339 340 340 339 339 337 336 334 331 331 331
315 315 311 303 294 289 289 295 298 299 301 301 302 302 302 302 306 309 316 321 326 329 335 342 345 349 350 350 350 350 350 350 347 346 344 343 340 337 336 336 337 336 336 335 331 328 326 326 324
313 310 304 297 290 288 289 295 298 299 300 301 301 302 303 304 306 309 315 323 326 330 335 339 344 348 350 350 349 347 346 347 346 344 341 337 336 335 334 333 332 331 331 329 326 324 323 323 323
309 304 299 295 292 294 293 298 297 299 300 300 301 300 302 306 307 308 314 322 326 328 332 336 342 347 347 346 346 345 343 342 341 338 337 337 335 332 329 329 328 327 326 325 323 323 323 322 321
304 299 292 290 290 293 296 298 299 298 299 299 300 300 300 305 305 308 316 322 325 326 329 334 340 343 343 343 340 339 340 339 338 337 337 335 332 329 327 326 325 325 324 322 323 323 321 320 319
299 298 291 288 290 293 295 298 298 298 299 299 299 299 301 302 304 308 317 320 323 324 325 330 333 337 339 340 340 340 337 337 337 336 334 332 329 326 325 324 324 323 322 323 321 320 319 318 316
298 295 290 290 291 294 297 297 297 298 298 299 301 299 302 302 304 309 315 317 320 322 323 327 331 333 332 334 335 334 336 337 336 334 332 329 326 325 324 323 322 322 322 320 319 318 317 315 313
299 297 292 291 291 293 297 297 298 298 300 300 301 299 301 303 304 309 312 314 315 317 320 323 326 328 329 330 329 331 333 335 333 331 328 325 324 324 324 322 322 321 319 318 316 315 314 312 310
300 293 289 291 291 294 297 296 298 299 299 299 300 300 302 300 304 307 309 309 310 312 315 319 321 323 324 325 326 327 328 329 328 326 323 319 317 317 316 316 321 320 316 314 313 310 308 306 305
297 290 291 294 293 295 296 296 297 297 297 297 299 300 298 300 302 305 306 309 309 310 312 314 317 319 319 319 322 323 322 324 322 319 315 311 310 310 310 315 318 317 314 311 310 306 301 296 295
296 293 293 295 294 296 296 295 298 296 295 297 298 300 298 298 300 302 305 308 310 312 311 311 313 315 315 317 316 316 316 316 314 312 308 307 305 307 308 308 306 305 302 301 299 295 295 295 295
294 296 295 298 297 297 296 297 295 296 301 302 300 301 299 297 298 301 303 305 306 307 309 310 311 312 312 313 313 313 312 310 309 308 305 303 302 303 302 302 300 299 297 295 295 294 294 293 293
295 295 297 297 297 297 296 297 296 295 300 299 299 297 298 297 298 300 303 305 304 304 307 308 309 311 311 309 311 309 309 308 307 304 302 300 300 300 299 297 295 294 293 294 293 293 293 293 292
294 295 295 295 296 296 295 297 295 297 298 298 297 298 297 297 298 298 298 301 301 304 305 307 307 310 310 309 308 309 308 306 303 302 301 298 299 299 297 293 292 292 292 292 292 292 292 292 292
294 292 292 292 293 293 294 293 291 298 295 296 296 296 296 297 297 298 301 299 301 302 304 303 305 308 308 308 307 307 305 302 302 301 298 297 297 296 295 293 291 291 291 291 291 290 290 290 290
289 288 286 291 292 292 294 288 294 295 293 295 296 295 295 297 297 298 299 300 301 301 300 302 304 305 306 307 306 306 304 302 301 299 298 296 296 295 293 292 291 291 290 291 290 290 289 290 290
286 283 283 287 292 291 292 288 293 293 293 294 296 298 299 299 298 298 299 299 299 300 300 299 302 303 304 306 305 304 302 302 300 298 297 296 295 294 293 292 291 290 290 290 289 288 289 289 289
283 282 283 283 290 287 287 288 293 295 292 294 296 297 298 298 299 301 300 298 299 299 299 299 299 301 302 303 303 301 299 300 299 297 296 295 295 294 293 292 291 289 289 288 288 288 287 288 288
284 283 282 285 290 286 289 289 290 293 293 293 295 296 297 297 300 300 300 300 298 297 297 296 295 298 299 300 299 297 296 297 296 297 296 294 295 293 293 291 290 289 289 289 288 288 287 286 287
286 284 284 287 289 286 287 288 292 293 293 295 295 295 296 297 297 298 298 298 297 298 296 296 295 296 297 299 299 300 298 297 297 295 294 294 294 293 292 291 289 288 288 287 287 287 286 286 286
284 283 285 284 286 286 284 286 287 291 292 294 294 296 296 296 296 298 297 297 297 296 296 296 296 295 296 297 298 291 293 291 292 292 292 291 292 292 292 290 290 288 288 287 287 287 287 286 284
283 287 287 285 283 280 286 280 285 289 290 291 294 294 294 295 295 295 295 295 296 297 297 296 296 295 295 296 295 294 295 292 293 295 293 291 291 291 291 290 289 288 288 287 287 287 288 287 285
286 287 285 284 282 280 280 279 284 286 287 290 291 293 294 295 294 294 294 294 295 295 296 295 295 294 295 295 296 294 294 295 292 294 292 291 290 291 290 290 288 288 287 287 287 286 286 287 286
288 285 283 281 280 277 281 281 287 284 287 288 291 293 294 296 293 293 293 293 293 293 294 294 293 293 294 293 294 294 294 294 290 290 290 289 289 289 289 288 288 288 287 286 286 286 286 286 286
286 283 278 276 275 279 281 280 287 288 289 292 293 292 294 293 292 292 292 293 294 294 292 292 291 291 292 292 293 293 293 294 291 290 290 289 289 288 287 287 287 287 287 286 286 285 285 285 285
284 285 281 275 277 281 280 278 287 291 290 291 291 291 291 292 291 291 292 292 292 292 291 290 290 289 289 290 291 292 292 293 291 290 291 290 289 289 289 287 287 287 286 285 285 285 285 285 285
282 281 286 282 279 277 283 284 290 292 291 290 290 290 292 292 291 291 292 291 291 291 291 289 288 289 289 289 290 290 291 292 290 290 291 290 290 290 289 287 286 286 285 285 284 284 283 284 284
285 285 280 278 275 274 280 281 283 288 288 290 289 290 290 289 289 289 289 289 290 290 290 291 290 288 288 288 288 289 289 289 290 288 288 288 289 289 287 286 286 285 284 284 283 283 283 283 283
285 281 282 282 281 277 276 280 290 289 290 288 286 287 287 287 287 288 288 289 289 289 289 290 290 289 289 288 288 288 288 288 288 286 287 287 288 287 286 286 285 284 283 283 283 283 282 282 282
286 285 285 281 279 281 281 281 292 291 291 290 287 287 286 286 286 287 287 288 289 288 288 288 288 289 289 289 288 287 287 286 286 286 286 286 286 286 286 286 285 284 283 283 282 282 281 282 281

GFSSGP_sfc_thetae_048.txt.gz
Theta_e
323 324 327 322 306 304 299 301 305 304 304 306 307 308 307 308 305 302 319 328 329 333 341 346 348 350 350 350 350 349 348 349 349 348 347 346 344 343 342 341 341 340 339 338 336 333 332 331 328
322 321 323 316 301 296 297 302 303 306 306 307 307 307 307 306 312 314 320 327 330 333 341 344 345 349 350 350 349 350 350 350 349 348 347 345 341 337 338 338 338 338 338 335 331 328 327 324 324
318 317 312 307 302 296 297 302 305 305 306 307 307 309 309 309 312 316 322 328 331 333 339 343 344 349 350 350 350 350 350 350 347 347 344 340 339 337 336 336 335 335 333 330 327 325 323 323 322
319 315 311 301 297 301 300 303 305 305 305 306 307 306 309 313 313 316 321 329 331 333 338 342 345 349 350 350 350 349 349 349 346 342 339 337 337 335 332 332 331 330 328 326 324 324 323 322 321
318 312 302 298 298 300 303 305 304 303 305 306 306 306 306 310 312 314 322 327 330 332 337 343 343 347 348 348 348 346 344 342 340 339 338 338 336 333 330 329 328 327 325 324 324 323 321 320 319
310 310 299 297 298 301 304 305 304 304 305 305 304 306 308 310 311 314 322 328 331 332 337 340 337 339 341 343 344 341 341 339 340 339 338 337 333 330 328 327 326 325 324 325 324 321 320 318 316
306 305 299 298 299 301 304 304 304 305 305 306 307 304 310 309 311 314 321 327 331 333 335 337 341 339 334 338 337 338 337 338 339 339 337 334 331 328 326 325 324 324 324 322 321 320 318 315 313
311 307 299 300 299 299 304 304 306 305 305 306 308 305 307 310 311 316 321 325 327 331 332 334 337 339 340 340 331 332 335 335 336 335 333 329 327 327 326 324 324 323 321 320 319 317 315 313 310
308 302 298 299 298 300 305 303 304 306 306 305 307 309 310 308 311 315 318 321 323 325 329 332 334 336 337 337 333 328 330 331 331 330 326 323 325 323 322 321 324 322 319 317 316 314 311 308 306
306 301 300 303 303 302 303 303 305 304 305 305 307 310 308 307 310 312 315 317 319 321 324 327 330 332 334 332 333 332 331 331 331 331 328 325 323 322 320 318 321 320 317 314 312 308 303 299 302
305 300 303 302 303 303 302 302 305 303 302 306 305 308 310 307 309 310 313 316 319 321 322 323 326 329 330 330 330 331 332 331 330 330 327 323 319 318 317 318 318 317 312 311 307 302 301 301 301
300 304 304 304 303 303 302 304 302 304 305 308 309 310 309 308 308 309 311 313 316 318 320 322 323 325 327 329 328 329 328 329 328 326 323 319 317 316 315 315 315 314 311 307 302 302 301 300 299
301 302 304 304 303 303 304 302 303 303 307 309 308 307 307 308 308 310 311 313 314 314 317 319 321 323 324 325 325 326 325 325 325 323 320 318 315 313 312 313 312 310 307 303 301 301 299 299 298
301 301 301 302 302 303 300 302 300 304 307 305 305 305 307 307 308 309 309 308 310 312 314 317 318 320 322 322 323 323 323 322 322 320 318 316 314 311 310 310 308 305 303 301 300 299 299 298 298
301 297 300 301 300 299 300 297 298 304 305 303 304 305 306 306 307 307 309 309 310 311 312 313 315 318 319 320 322 321 321 320 318 317 316 313 311 309 307 307 304 302 300 300 299 298 298 297 297
297 296 294 299 297 298 299 294 302 304 301 302 304 305 306 306 307 308 308 309 310 310 310 312 312 314 316 318 319 319 319 317 316 316 314 312 309 307 306 304 302 300 299 298 298 297 296 297 296
295 292 293 294 298 297 298 295 301 302 302 301 302 303 304 305 306 308 309 308 309 309 309 309 311 311 314 316 317 318 317 316 315 314 312 310 308 305 304 303 301 299 297 297 297 296 297 296 295
294 292 293 291 297 296 294 294 298 300 300 300 301 303 304 303 305 307 307 308 308 309 309 309 309 309 311 313 315 315 314 313 314 312 310 309 306 304 303 301 301 298 297 296 296 296 296 296 295
294 292 292 295 298 295 294 295 296 299 299 299 300 302 303 303 306 306 307 308 308 307 307 306 306 307 308 309 310 311 310 310 310 311 308 307 305 304 302 301 300 297 296 296 296 296 294 294 294
293 291 291 295 296 292 294 293 297 299 299 300 300 301 302 304 305 305 305 306 307 307 307 306 305 305 306 307 309 309 309 309 308 309 307 306 304 303 301 300 299 297 296 296 295 295 294 294 294
292 290 292 292 293 295 292 294 295 299 299 300 300 301 302 303 303 303 303 305 306 306 307 306 305 304 304 305 306 306 307 305 305 306 305 304 303 301 300 300 299 297 297 296 296 295 295 293 292
289 295 292 290 289 288 292 286 294 297 298 299 300 300 301 303 303 303 304 304 303 303 304 304 304 304 303 303 303 303 301 301 302 303 303 303 302 301 300 299 299 298 296 296 296 296 296 297 292
292 293 290 289 289 287 290 286 294 295 295 297 299 301 302 304 302 301 301 301 302 302 302 302 301 302 302 301 302 302 301 302 303 302 301 301 300 300 300 299 298 297 296 296 296 294 295 296 296
293 291 290 289 288 284 291 289 291 293 294 295 300 301 303 300 300 300 299 299 299 300 299 299 298 299 300 300 300 300 300 300 301 301 299 299 299 297 298 298 298 297 296 295 295 295 294 294 295
292 290 285 285 285 285 290 286 290 297 299 297 297 298 297 297 296 295 294 295 295 295 296 296 296 296 296 297 298 299 299 300 299 300 298 298 297 296 296 297 296 296 296 295 295 294 294 293 293
290 291 286 279 281 285 291 284 291 298 298 297 296 294 295 295 295 294 293 293 293 293 294 295 295 294 295 295 295 296 297 297 298 298 298 297 297 297 297 296 296 296 295 294 293 293 293 293 292
289 287 292 286 287 284 286 290 296 299 294 293 294 295 294 293 293 293 294 293 292 292 292 293 293 293 293 293 294 293 294 295 295 296 296 295 295 295 295 295 294 294 294 293 293 292 291 291 291
290 292 286 285 278 278 283 286 287 293 293 291 291 291 291 291 291 291 291 291 292 291 291 292 292 291 291 291 292 293 293 293 294 296 295 294 295 295 293 294 293 293 292 292 291 291 291 289 289
290 286 286 286 285 280 279 284 294 292 291 289 289 289 289 289 288 288 289 289 291 291 290 291 290 291 290 290 290 291 292 291 292 292 293 294 294 294 293 293 292 292 291 290 290 290 289 287 288
293 290 290 283 282 285 283 283 296 295 291 287 287 287 287 286 286 287 287 288 288 289 289 289 290 289 289 289 289 290 291 291 290 290 291 293 293 293 292 292 291 291 290 290 289 288 287 286 285

GFSSGP_sfc_thetae_051.txt.gz
Theta_e
327 326 325 321 307 305 300 301 307 306 307 309 309 309 308 309 305 303 323 329 331 335 341 345 349 351 352 352 351 350 350 349 349 350 348 347 345 344 341 342 341 341 340 338 336 333 333 330 327
324 322 321 313 302 298 299 304 304 307 309 310 310 309 308 307 313 316 321 329 331 334 341 343 346 350 351 351 350 350 349 349 349 348 347 346 343 340 338 339 338 339 338 336 332 329 326 324 324
323 319 312 307 302 298 298 303 306 307 309 308 308 311 311 309 315 318 326 330 331 334 341 343 345 349 350 350 350 350 350 350 349 348 346 343 340 338 337 336 336 338 335 331 328 326 324 323 322
319 316 311 302 299 302 302 305 307 307 309 309 309 307 313 316 315 319 325 331 331 333 339 342 345 348 350 350 349 350 350 349 349 349 344 341 340 338 335 335 333 333 330 327 326 325 323 322 321
318 312 303 300 300 302 305 307 307 306 307 308 309 307 309 314 317 318 324 329 330 332 337 343 344 347 349 349 350 350 349 348 348 344 341 339 339 336 332 332 331 329 327 325 325 324 322 321 319
310 309 301 299 300 303 306 308 308 307 308 308 307 308 310 315 314 317 322 328 331 332 335 339 339 342 346 348 348 348 347 345 342 341 340 338 337 334 331 329 329 327 325 325 324 322 320 318 316
308 305 301 300 300 302 305 308 306 307 307 307 310 306 311 313 315 317 322 327 330 332 334 337 342 342 336 340 342 343 342 339 339 340 339 337 335 332 330 328 327 325 325 324 322 320 318 316 313
311 307 301 302 299 300 306 307 308 307 306 310 311 305 308 314 314 318 322 325 329 331 333 335 338 340 342 342 333 334 336 336 337 336 335 332 330 330 328 326 327 325 324 322 321 319 316 313 310
313 303 300 301 301 301 307 304 308 310 307 309 310 310 312 313 315 317 319 322 325 328 332 334 335 337 338 340 336 330 331 332 332 332 328 325 329 326 324 323 326 325 322 321 319 317 314 310 306
307 302 301 305 305 303 304 305 305 305 305 306 308 312 313 312 313 314 316 317 321 324 328 331 333 334 337 335 338 337 336 334 332 332 328 329 329 325 322 319 322 323 321 318 316 314 309 306 304
307 301 305 305 306 305 304 303 306 304 302 306 306 309 311 312 312 312 314 316 318 322 325 327 330 333 335 336 335 335 336 334 332 331 330 330 326 324 322 321 320 319 314 313 311 306 302 304 305
302 305 305 306 306 304 303 305 304 305 305 309 310 310 310 310 310 311 312 314 315 318 322 325 327 329 332 333 333 332 331 332 332 330 332 328 324 321 319 319 320 319 315 314 310 305 306 303 302
303 304 305 306 306 305 305 303 303 304 308 310 310 309 309 309 310 312 313 314 315 315 319 323 325 326 329 330 331 330 330 330 331 331 331 327 322 319 318 318 318 317 314 311 306 305 303 303 302
304 303 303 304 303 304 302 303 304 305 308 307 307 307 308 309 309 311 311 312 313 314 316 319 322 325 326 328 329 328 329 329 329 329 327 325 321 319 317 316 316 315 312 308 305 303 303 302 302
303 298 301 302 303 302 302 299 299 306 307 306 306 307 309 309 310 310 310 311 312 313 315 317 320 322 323 325 326 327 327 326 326 326 326 323 321 318 315 314 313 312 309 306 304 303 303 301 300
299 299 295 302 301 301 300 295 303 306 304 304 306 307 308 309 309 311 311 311 311 312 313 314 315 318 321 323 324 325 326 325 324 324 323 321 319 317 313 311 310 309 305 303 302 301 300 300 299
298 293 296 298 304 299 299 296 303 305 304 303 304 305 306 307 309 310 310 311 311 311 311 312 314 315 317 320 322 323 324 323 322 322 320 319 317 315 311 309 308 306 302 301 300 300 300 299 299
294 296 297 297 301 300 298 297 301 303 303 302 303 305 306 306 307 308 308 310 310 311 311 311 312 313 314 316 319 320 321 321 321 320 318 317 315 313 310 308 306 304 301 300 300 299 300 300 299
297 295 294 298 301 299 297 297 299 302 303 302 303 304 305 305 308 308 308 309 309 310 309 309 308 310 311 312 313 315 315 317 317 318 318 316 314 312 309 306 305 302 299 299 299 299 298 298 298
296 294 294 298 300 296 296 295 299 301 302 303 303 303 304 305 305 306 307 308 307 306 307 307 307 308 308 310 312 313 314 315 316 316 315 315 313 311 308 305 303 302 299 299 298 297 296 297 296
295 294 294 293 296 297 296 294 299 302 304 303 303 303 303 304 303 302 303 303 304 303 304 304 305 306 307 308 308 310 311 311 309 311 311 312 311 310 308 305 303 301 299 297 298 297 296 294 295
291 297 295 294 291 289 296 287 295 300 301 302 302 303 303 302 301 300 300 300 300 301 303 302 304 303 305 306 305 305 305 304 306 307 308 309 309 308 307 305 303 302 299 298 298 298 297 296 292
293 294 293 293 291 291 292 288 294 299 297 298 300 298 299 299 298 298 298 298 298 300 300 301 300 301 301 304 303 303 303 305 306 306 306 306 306 306 306 304 302 301 299 298 298 296 296 297 295
295 293 294 294 292 286 293 291 292 294 296 297 297 297 297 297 297 297 297 297 296 297 298 299 298 298 300 299 299 299 300 301 302 303 303 304 304 304 303 303 301 301 299 298 298 297 296 296 296
292 291 286 286 286 285 295 291 293 298 300 297 296 295 296 297 296 296 295 295 294 294 295 295 296 294 295 297 297 297 297 298 299 300 300 302 301 301 301 300 300 299 299 298 297 296 295 295 295
293 293 287 280 283 287 292 286 291 299 298 297 297 297 296 295 296 295 295 295 295 293 294 294 293 293 293 293 295 296 296 296 296 298 298 299 299 301 301 299 299 299 299 298 297 296 295 295 295
293 288 293 286 287 284 287 291 296 300 296 296 295 295 294 293 293 292 293 293 294 293 293 293 293 293 293 292 293 294 295 294 294 295 296 297 298 297 298 299 298 297 297 297 296 295 294 293 294
291 292 286 287 278 278 284 287 288 293 293 293 292 291 291 291 291 291 291 291 291 292 292 292 293 292 292 292 292 292 293 293 294 293 293 294 295 296 295 295 295 295 295 295 294 293 293 292 292
290 289 289 288 286 280 279 284 294 293 292 290 289 290 289 289 289 289 288 289 290 290 290 290 290 290 290 290 290 291 291 291 292 292 292 292 292 293 293 294 293 292 292 292 292 292 292 290 290
293 290 290 283 282 285 283 283 296 295 290 289 288 289 288 288 288 286 286 287 287 287 288 288 289 288 288 288 288 289 290 289 288 288 290 291 291 292 291 292 292 292 292 292 291 290 290 289 288

GFSSGP_sfc_thetae_054.txt.gz
Theta_e
328 324 320 316 304 302 296 298 299 303 303 304 305 302 301 303 301 298 317 325 328 334 341 346 349 351 352 353 352 351 352 352 350 350 349 348 347 345 343 343 343 342 341 339 336 334 332 328 327
320 319 317 310 298 294 293 297 301 302 303 304 304 303 302 301 309 314 316 326 328 332 341 344 346 351 352 352 351 351 351 351 351 350 349 348 346 343 340 340 340 340 338 336 332 330 326 325 324
320 318 309 303 297 293 293 299 300 302 304 303 302 304 303 304 309 313 321 327 327 329 340 342 345 350 352 352 351 350 350 351 351 350 348 346 342 339 338 338 337 337 336 332 329 326 325 323 322
317 312 307 297 295 297 297 300 302 302 304 305 303 301 305 310 310 315 324 327 325 329 339 341 345 350 351 350 350 350 350 351 351 349 347 344 342 337 336 336 335 335 332 329 327 325 324 322 321
314 309 299 296 297 296 298 303 302 302 301 303 304 301 302 308 313 316 322 325 325 328 334 341 344 347 349 349 350 350 350 350 350 348 345 343 341 337 334 334 333 331 329 327 326 324 322 320 319
307 304 296 294 295 298 299 303 302 302 303 302 299 300 302 309 310 312 319 322 325 326 333 341 339 342 345 347 348 348 349 349 348 345 344 341 338 336 333 332 331 329 327 326 324 323 321 318 316
304 302 296 296 296 298 302 303 299 300 301 301 305 298 304 306 310 312 313 320 324 326 329 335 340 340 338 342 344 345 346 346 344 341 340 339 338 336 332 331 329 327 326 326 323 321 319 317 314
307 303 296 295 296 296 301 301 301 300 300 304 303 298 301 304 310 311 315 318 321 324 327 330 337 339 340 339 336 338 340 338 337 336 335 333 333 332 330 327 329 326 326 325 323 320 317 314 311
310 298 294 297 297 297 302 299 301 303 299 301 304 302 305 310 310 310 313 314 318 323 325 328 330 335 337 337 334 331 332 332 332 331 329 327 328 326 322 323 326 327 326 324 321 319 315 311 307
302 297 298 301 300 298 300 299 300 298 299 300 301 305 307 308 307 308 309 311 314 317 322 326 328 330 332 337 334 330 330 329 328 327 325 327 326 323 322 319 323 326 324 323 320 317 313 308 298
303 297 301 301 302 302 300 299 301 298 297 300 300 302 303 305 305 306 306 308 311 316 320 324 326 328 329 330 330 332 331 328 327 326 323 326 326 319 315 314 315 312 314 310 311 307 301 298 297
298 302 303 304 303 302 299 302 299 300 301 304 304 304 304 303 303 304 305 306 307 310 317 321 323 325 327 328 327 328 329 328 325 325 324 322 324 315 313 312 312 310 307 306 303 299 298 297 297
298 301 303 303 302 301 303 300 299 299 303 305 305 305 303 303 303 305 305 307 308 308 311 318 321 321 324 326 325 325 324 324 324 323 323 326 320 313 312 311 311 311 307 305 301 298 297 296 296
300 300 300 301 301 301 299 299 299 300 302 302 303 302 302 302 303 302 304 305 306 308 309 313 319 320 321 322 323 323 323 323 323 323 324 323 318 312 310 309 310 309 306 303 298 297 296 295 295
300 295 298 299 299 298 299 295 296 301 302 301 301 301 302 303 304 303 304 305 305 307 308 310 313 318 318 320 321 321 321 322 321 321 321 320 316 313 309 308 307 307 304 301 297 296 296 295 295
295 294 289 297 298 297 296 290 299 301 300 300 301 300 301 302 303 303 304 303 304 303 306 309 311 314 317 317 319 320 319 319 318 319 318 318 317 313 308 306 305 305 301 298 295 294 293 293 293
293 287 290 294 300 296 294 291 298 301 299 299 300 299 300 301 302 302 303 303 304 304 305 306 309 309 313 315 316 318 318 317 316 316 316 315 314 313 307 304 304 303 298 295 295 293 293 292 291
289 288 291 291 296 297 293 293 297 299 298 298 297 299 299 299 301 303 304 304 304 304 304 304 306 308 310 310 312 313 314 315 315 314 313 313 312 311 307 303 302 300 295 294 293 292 292 292 291
292 291 290 294 298 295 294 294 295 299 299 298 298 298 297 300 302 302 302 302 301 302 301 302 302 303 305 306 306 307 308 310 311 312 313 311 310 309 306 302 300 298 294 293 293 292 291 291 290
293 290 290 294 297 294 292 292 296 298 298 297 296 296 298 297 299 299 299 299 299 298 299 300 300 302 302 303 306 306 307 308 309 310 310 311 309 307 306 302 299 297 293 293 292 292 290 290 290
292 290 291 291 293 293 290 289 293 298 298 298 298 298 297 296 296 296 296 296 297 296 297 298 298 298 300 301 302 302 303 302 302 302 304 307 308 306 304 302 299 297 294 294 293 292 291 288 289
289 294 292 291 287 284 291 281 290 295 295 295 296 294 294 294 295 295 294 293 294 295 296 297 297 297 298 298 298 297 297 297 299 300 301 303 305 305 304 302 300 297 295 292 293 293 293 289 289
291 292 290 289 286 285 287 282 288 293 291 291 292 293 293 293 293 292 293 293 293 294 293 294 294 294 296 295 295 295 294 296 296 297 297 299 300 302 302 301 299 297 295 294 292 292 292 292 290
293 290 290 289 286 280 287 286 286 288 290 290 292 292 293 293 293 293 293 293 291 292 292 292 292 292 292 293 294 292 291 292 292 293 294 295 297 297 299 299 298 297 296 293 293 292 293 293 293
289 286 281 280 278 279 289 284 288 293 295 292 292 292 293 293 292 291 291 291 290 290 290 291 291 290 291 291 292 292 292 291 291 291 292 292 292 294 295 296 295 295 296 296 293 292 292 292 292
289 289 282 275 277 281 286 281 288 293 294 294 293 292 291 290 289 288 289 289 290 290 289 290 290 289 289 289 290 291 292 291 291 291 291 291 292 292 294 294 294 294 295 295 295 293 291 290 291
289 286 291 283 277 276 282 287 292 294 292 292 291 290 288 287 287 287 287 287 287 287 287 288 288 288 288 288 289 289 289 289 290 289 290 290 291 292 292 291 291 292 293 292 293 292 290 289 290
290 291 283 283 275 270 279 279 283 289 288 289 288 287 287 287 286 285 285 285 285 286 286 286 287 286 286 286 286 287 288 288 287 288 288 288 289 289 289 289 289 290 290 290 290 291 289 288 289
287 285 286 287 284 278 276 279 289 287 287 285 286 287 286 285 285 283 284 284 285 284 284 284 285 285 285 284 284 285 285 285 284 284 284 285 286 288 288 289 288 288 288 288 287 288 288 288 288
290 287 287 282 280 282 281 281 292 288 287 287 286 286 285 285 285 283 283 283 283 283 284 283 283 284 284 284 283 284 285 284 282 282 282 283 283 285 286 287 287 287 287 287 286 287 289 288 288

GFSSGP_sfc_thetae_057.txt.gz
Theta_e
322 317 315 309 297 295 291 293 294 299 299 299 302 300 299 300 299 295 316 323 335 337 343 347 349 352 353 353 353 352 352 352 349 349 349 350 349 347 345 344 343 342 341 339 336 335 330 328 328
313 317 310 302 292 288 289 295 295 297 300 300 300 300 299 299 308 311 313 322 335 338 342 345 346 351 353 353 352 352 352 352 351 350 349 348 347 345 344 342 341 340 337 336 333 329 327 325 324
316 315 302 297 291 288 289 293 294 298 301 300 299 301 300 302 307 312 318 324 327 337 341 345 345 351 352 352 351 351 351 352 352 351 350 347 345 342 340 339 337 337 335 332 330 326 325 323 322
311 306 300 292 290 292 291 293 297 297 300 302 300 298 302 307 308 315 322 324 323 335 338 342 346 351 352 351 351 350 350 351 352 351 350 348 344 339 338 336 336 336 333 330 328 326 323 321 321
307 300 292 290 291 293 295 298 298 298 298 298 300 298 300 306 313 319 322 323 322 329 335 341 345 349 350 350 350 350 350 350 351 350 348 346 344 339 335 336 335 334 331 328 327 325 322 320 319
300 297 290 288 290 293 295 300 298 298 300 299 297 296 299 305 307 312 321 321 323 327 337 341 339 343 346 348 348 348 349 350 350 348 346 345 341 338 335 334 333 332 329 328 325 323 321 318 316
300 295 290 291 292 294 297 298 295 295 295 298 301 295 298 301 307 309 316 319 322 326 335 337 339 340 339 342 343 345 347 347 347 346 344 341 338 336 334 333 332 330 328 328 325 323 320 317 314
300 296 291 290 291 293 298 297 299 297 297 301 301 294 297 303 309 311 312 315 318 322 328 333 335 337 337 340 337 339 341 342 342 339 336 333 334 333 331 329 331 329 327 327 324 321 319 316 312
303 292 289 291 292 293 298 297 299 300 297 297 301 300 302 305 309 309 310 311 314 320 323 328 333 335 336 335 335 334 335 335 334 331 328 327 329 329 326 324 327 329 329 326 323 320 317 312 307
297 291 293 296 294 294 296 295 295 295 296 295 298 300 304 306 304 305 307 308 310 314 319 324 328 333 335 339 334 332 332 330 328 327 325 326 325 325 323 319 323 326 326 326 322 319 315 306 296
298 293 297 299 300 298 297 297 298 295 295 296 298 299 300 303 303 304 304 307 310 313 317 322 324 327 332 334 329 329 326 325 325 324 323 323 323 323 321 314 316 315 315 313 313 310 303 300 296
294 299 300 301 300 299 298 298 297 297 299 300 300 301 300 301 300 302 302 303 304 309 315 320 323 325 326 328 329 328 327 324 323 322 322 320 319 319 316 311 311 309 308 306 303 301 299 295 295
294 296 299 300 299 298 299 297 297 297 302 302 301 301 300 300 300 300 302 303 304 304 309 317 320 323 325 325 324 327 328 327 324 323 322 321 318 315 314 310 310 307 305 304 301 298 295 295 295
295 296 296 298 298 298 297 295 296 298 299 299 300 299 298 299 300 299 300 302 302 305 305 313 318 319 322 322 322 322 322 322 322 321 323 320 320 315 313 309 309 308 306 303 300 297 294 294 293
296 293 295 296 296 296 297 293 294 299 298 299 298 297 299 300 300 299 300 301 300 302 304 308 316 317 319 320 321 320 320 320 319 319 320 320 317 313 310 307 307 308 304 302 297 295 294 293 293
293 290 287 295 295 296 294 288 296 298 297 299 297 296 298 298 299 300 301 301 301 302 302 305 312 316 316 317 318 319 318 317 317 317 317 318 315 312 308 306 306 305 302 299 295 294 292 292 291
289 284 287 291 296 294 291 288 296 298 296 296 294 296 297 298 298 299 300 299 299 300 301 302 306 310 313 315 316 317 317 315 315 314 314 315 314 312 308 306 304 304 300 296 295 292 291 290 290
285 284 286 286 293 292 291 290 294 297 297 294 293 295 296 296 296 298 298 298 298 298 299 300 302 303 307 308 310 311 312 313 313 312 312 313 313 312 307 303 303 302 298 294 293 292 291 290 289
288 287 286 290 295 291 291 291 293 297 296 293 295 295 294 294 296 296 297 297 297 297 296 297 298 299 300 304 304 305 306 308 309 310 311 310 310 310 307 303 301 299 297 295 293 291 290 289 288
290 288 287 290 294 292 290 289 294 296 295 293 293 292 293 293 293 293 294 294 295 295 296 296 296 296 298 300 301 303 304 304 305 306 308 309 308 307 306 303 299 297 294 292 292 291 289 289 289
289 287 287 288 290 291 288 287 290 293 293 293 293 293 293 292 291 291 292 291 292 292 293 294 295 296 296 296 298 299 299 300 299 300 301 303 307 306 304 303 300 297 294 293 291 291 290 288 288
287 292 291 289 285 282 288 279 288 290 289 290 290 290 290 291 291 291 291 290 290 290 291 291 292 293 295 295 294 293 293 292 294 295 297 298 300 303 304 302 300 298 294 292 291 292 291 289 287
289 291 288 287 284 283 284 281 285 288 286 287 288 289 290 290 290 290 290 290 291 291 289 289 290 291 292 293 293 292 291 291 292 293 293 294 295 297 300 301 300 297 295 293 291 290 290 290 290
292 288 288 285 284 279 284 283 284 285 288 287 289 289 290 290 290 290 290 290 289 289 289 289 289 289 290 290 290 290 290 289 289 290 290 291 292 294 294 296 297 297 295 293 291 291 290 292 291
288 285 280 278 277 278 286 282 286 288 290 289 288 288 289 289 288 287 288 288 288 287 288 290 289 288 289 288 289 289 289 288 288 288 288 288 289 290 291 292 292 294 295 294 293 290 290 290 291
287 288 282 273 276 279 285 280 286 289 290 290 289 288 287 285 286 285 286 286 286 286 286 287 287 287 287 287 287 288 288 288 288 288 288 288 288 288 289 290 290 290 292 293 293 291 289 289 290
288 285 290 283 273 274 280 285 288 290 288 287 286 286 284 284 284 284 284 284 284 284 284 285 285 285 285 285 286 286 287 286 285 285 285 286 286 287 288 288 287 288 288 289 290 290 288 287 288
290 290 282 281 271 267 277 278 281 285 285 286 285 284 284 284 283 283 283 283 283 283 283 284 284 284 284 284 283 284 285 285 284 283 282 283 284 284 285 286 286 287 287 287 287 288 287 286 288
286 284 285 285 282 275 272 277 286 287 285 284 285 286 284 284 282 282 282 283 284 285 284 284 284 284 284 284 282 282 283 284 283 282 282 282 282 282 283 284 284 285 285 285 285 285 286 286 287
288 285 285 279 278 280 281 281 289 286 286 286 285 286 284 285 282 281 281 282 283 283 283 283 283 283 283 284 283 282 282 283 283 282 281 281 280 281 281 282 282 283 283 284 283 284 285 285 286

GFSSGP_sfc_thetae_060.txt.gz
Theta_e
316 312 312 307 297 293 290 292 293 297 297 298 300 298 297 298 297 293 313 322 333 337 344 347 350 353 354 354 354 353 352 351 350 350 351 351 351 349 346 345 343 342 341 338 337 333 329 328 328
312 315 308 299 291 286 287 292 293 295 299 299 299 298 297 297 305 310 315 323 335 338 342 345 346 352 353 353 353 352 352 352 350 349 350 349 348 347 345 344 342 340 338 335 333 328 327 324 324
314 311 301 295 288 286 288 291 293 296 298 298 297 299 298 299 306 310 314 324 335 337 342 344 345 351 353 353 352 352 352 352 352 351 349 347 346 344 342 340 338 337 335 332 329 327 324 323 323
308 305 298 291 288 291 291 292 295 295 298 300 299 295 300 305 306 312 320 324 333 335 340 342 347 351 352 351 351 351 351 352 352 352 351 346 345 341 337 336 336 335 334 330 327 326 323 321 321
304 297 291 289 289 291 297 297 297 296 296 297 298 296 298 306 313 317 320 321 330 332 336 341 345 349 350 351 351 350 350 351 351 350 349 348 345 341 335 335 335 334 332 328 326 324 321 320 319
299 295 288 287 289 293 294 296 297 294 296 297 297 297 297 304 306 316 319 318 324 332 334 340 339 343 346 348 349 349 349 350 350 349 348 346 343 340 334 334 333 333 330 328 325 323 320 318 316
297 293 289 288 289 293 295 297 295 294 293 296 299 294 298 301 307 312 318 318 320 330 333 337 340 341 339 342 343 345 346 347 348 347 346 343 338 336 335 333 332 331 329 327 324 322 319 316 314
299 294 290 289 290 291 296 297 296 295 295 299 300 295 295 301 307 308 313 316 318 325 332 334 336 338 340 340 337 338 341 342 343 342 339 334 332 332 331 329 331 330 328 327 324 321 318 315 311
300 290 287 289 290 292 295 294 296 298 295 296 298 297 299 303 306 308 308 309 313 318 326 330 333 335 336 336 336 334 335 336 336 334 330 327 331 330 327 326 327 329 329 327 324 321 318 313 308
295 288 290 294 293 293 295 294 295 294 295 293 296 299 302 304 304 305 306 307 309 313 317 326 329 332 333 338 335 333 337 334 333 329 328 327 325 324 323 322 324 327 326 328 324 321 317 307 294
296 291 295 297 298 298 296 295 296 293 294 295 297 296 298 302 302 303 303 305 308 311 315 321 328 330 331 334 331 330 328 327 326 326 325 323 322 320 319 319 316 315 317 315 317 312 304 299 295
293 298 298 300 299 297 295 297 296 295 298 299 299 298 298 298 300 300 301 301 304 308 313 318 323 328 329 330 330 327 327 324 324 326 325 321 319 317 315 314 312 311 310 308 306 303 301 296 294
293 294 297 298 298 296 297 295 295 296 299 299 299 298 297 297 297 298 298 300 301 302 307 314 319 324 327 325 325 325 325 324 322 321 323 322 319 316 313 311 310 308 306 305 303 301 299 294 294
293 294 295 297 297 296 295 293 295 297 296 298 298 298 296 297 297 298 299 298 298 301 302 309 317 321 322 324 322 323 323 323 321 320 320 320 319 318 314 309 308 307 305 304 302 300 297 293 293
295 292 294 295 294 294 295 291 293 298 297 297 297 295 296 297 297 296 297 297 297 299 301 307 315 318 320 320 320 320 320 321 323 322 320 319 317 314 310 307 307 307 305 303 300 297 294 292 292
291 288 287 294 294 294 293 289 295 297 294 296 295 293 295 295 296 296 296 296 297 298 299 303 312 314 316 317 317 318 318 317 321 321 320 318 316 314 309 307 307 306 304 302 298 295 293 292 290
287 283 285 290 294 293 290 288 295 297 294 294 291 293 294 294 294 295 296 295 295 296 297 299 300 303 311 313 315 315 314 314 316 318 319 319 318 315 311 308 307 307 304 300 297 293 292 291 290
285 283 285 285 290 291 289 289 292 296 295 292 291 291 292 292 292 294 294 295 295 295 296 296 298 298 301 306 308 309 310 310 311 314 315 315 316 314 311 308 307 305 301 297 294 293 291 290 290
287 285 284 288 293 289 290 289 292 295 293 290 291 291 290 290 292 293 293 293 293 293 294 295 294 295 297 298 302 303 304 305 306 307 309 311 312 313 310 307 304 303 301 298 295 291 291 289 288
289 286 286 289 292 290 289 289 291 290 290 291 291 290 290 290 290 291 291 291 290 290 291 292 294 294 295 296 296 299 300 300 299 299 299 300 304 307 309 308 304 301 298 295 295 293 290 289 288
288 286 286 287 289 289 286 286 287 289 290 291 290 290 289 289 288 289 289 289 290 289 289 290 291 293 293 294 295 295 295 295 294 295 295 296 296 298 302 302 302 300 298 295 292 291 290 289 287
286 291 290 288 284 281 287 279 285 286 286 287 287 286 287 288 288 289 289 288 288 288 289 290 290 291 292 292 291 290 290 289 290 291 292 293 294 294 295 297 300 299 296 293 292 292 291 288 287
289 290 287 286 283 282 282 279 283 286 284 285 286 287 287 287 287 287 287 288 288 288 287 287 288 289 290 290 290 289 288 289 289 290 289 290 291 292 292 292 293 294 296 295 292 291 289 289 291
291 287 287 284 282 278 283 282 282 283 285 285 286 287 288 287 287 287 287 287 287 287 287 287 287 287 288 288 288 288 286 286 286 287 287 287 288 289 290 290 290 290 291 292 293 291 290 290 290
287 284 279 277 276 278 284 280 283 286 288 287 286 286 286 285 285 285 285 284 285 285 285 287 286 285 285 286 286 287 286 285 285 285 285 285 285 285 286 288 287 288 289 290 291 290 290 289 290
285 286 281 272 275 278 282 279 283 287 288 288 287 285 285 284 284 284 284 284 284 284 284 284 284 284 284 284 285 285 286 284 284 283 283 283 283 284 285 286 286 286 287 288 288 288 288 288 287
286 283 288 281 269 274 280 281 286 286 284 284 284 284 282 282 282 282 282 283 282 282 283 283 284 284 284 283 284 284 284 285 283 283 282 282 282 283 283 283 283 284 285 285 285 286 285 285 286
288 289 282 280 270 268 277 278 280 282 282 283 283 282 283 282 282 281 282 282 282 282 282 282 283 283 283 282 282 283 283 284 284 283 282 281 282 282 281 282 281 282 282 283 282 283 284 283 285
285 283 285 285 281 273 270 277 284 285 285 284 284 284 283 282 280 281 281 282 282 282 282 282 282 282 282 282 282 281 281 282 282 282 281 281 281 281 281 281 281 281 281 281 280 280 281 282 283
286 285 285 280 277 278 278 279 288 288 286 285 285 286 283 283 281 280 281 281 281 281 281 281 281 281 281 282 281 281 282 281 280 280 281 281 280 281 281 281 281 280 280 280 280 279 280 280 281

GFSSGP_sfc_thetae_063.txt.gz
Theta_e
314 310 308 305 296 291 288 290 295 295 295 301 298 296 295 296 296 292 311 323 332 334 342 347 350 353 354 354 354 353 352 349 349 350 351 349 351 348 346 344 343 342 340 338 336 332 330 328 329
312 312 306 297 290 285 287 289 292 293 297 297 297 297 297 296 303 308 314 322 334 338 343 345 347 352 354 354 353 352 352 351 350 350 351 351 349 347 346 344 341 339 338 335 332 330 326 325 325
312 307 300 293 286 285 287 290 292 295 297 297 297 301 298 298 304 307 314 323 333 336 341 344 346 351 353 353 352 351 351 351 351 350 350 349 347 346 344 342 338 336 336 333 330 328 325 323 323
307 303 296 290 289 290 292 294 293 294 296 299 297 296 298 304 304 309 317 329 331 334 339 341 347 351 352 352 352 352 351 351 351 351 349 348 345 343 339 337 336 334 333 331 328 326 323 322 322
302 296 290 288 288 290 294 294 295 295 295 296 297 295 296 303 312 317 318 329 329 332 336 339 345 349 350 351 351 351 351 351 350 349 349 347 344 339 337 334 334 334 332 329 327 324 322 320 320
298 294 287 286 288 291 292 295 295 293 294 295 299 298 297 304 307 315 318 320 329 331 334 338 338 342 346 348 349 349 350 350 349 348 348 346 343 339 335 333 334 333 330 327 325 323 320 318 317
296 291 287 286 288 291 293 296 298 294 292 294 297 298 298 300 306 312 315 316 323 329 331 335 339 340 338 342 343 345 347 348 348 347 346 343 340 338 336 333 332 331 329 327 325 322 319 316 314
297 293 288 287 288 289 294 295 294 293 293 299 298 294 296 304 304 308 312 312 315 325 329 331 335 338 339 339 336 338 341 342 343 342 339 335 333 332 332 329 330 329 329 327 324 321 318 316 312
297 288 285 287 288 290 293 294 295 295 296 295 297 298 297 302 305 306 306 310 311 317 326 329 331 334 335 336 334 334 335 336 336 335 332 328 330 329 327 327 328 329 329 327 325 321 318 314 310
293 286 288 291 291 291 294 292 294 294 294 292 294 297 301 302 304 304 305 306 309 313 317 326 328 332 333 338 335 334 334 333 333 332 329 328 329 326 324 321 325 327 326 328 325 321 317 306 293
293 289 292 295 296 295 294 293 294 291 293 294 295 295 297 298 300 301 301 303 305 309 313 320 327 329 331 336 336 332 329 330 332 329 326 327 325 323 320 318 317 315 315 315 317 312 305 300 295
293 296 295 297 297 295 294 294 294 294 297 297 296 297 296 295 295 295 295 296 299 304 309 315 322 325 327 329 332 328 327 324 324 324 326 324 322 321 319 315 314 312 310 309 307 305 302 299 294
291 293 295 297 296 295 295 294 294 295 298 297 297 296 295 295 296 296 297 297 297 298 302 308 317 323 325 325 325 324 324 324 323 324 325 324 322 320 318 317 315 311 308 307 305 302 301 298 294
292 293 294 295 296 294 294 291 294 296 295 296 295 294 295 295 294 294 295 295 296 298 300 301 313 318 323 322 322 322 322 322 321 322 324 323 322 320 317 315 313 312 307 305 304 302 300 297 293
293 291 292 293 293 293 294 290 292 296 295 293 293 293 294 294 294 293 294 294 294 297 299 304 312 316 318 319 319 320 320 320 323 323 323 322 321 320 316 314 312 311 306 304 302 300 297 294 292
289 287 286 292 292 292 292 288 295 295 294 291 292 291 292 292 293 293 293 294 294 295 296 299 305 312 314 316 317 317 318 319 322 322 321 321 319 317 312 308 309 307 305 304 303 299 296 294 291
286 283 285 289 292 291 289 287 294 296 294 289 290 290 291 291 291 292 292 292 293 294 294 296 297 300 308 312 313 314 314 314 316 317 318 319 319 317 314 312 310 309 308 306 304 299 295 293 292
284 283 284 284 289 290 288 289 292 294 293 289 288 288 289 288 289 290 290 291 292 293 294 294 295 295 299 305 307 306 305 303 305 303 306 309 313 315 313 311 309 307 306 303 300 299 293 291 291
287 285 283 286 291 288 289 288 290 290 289 288 288 288 287 288 289 290 290 290 290 291 292 292 292 293 295 295 297 300 297 297 296 298 297 298 300 305 310 309 306 305 304 303 300 296 295 294 289
287 284 284 288 291 290 288 288 287 288 288 288 287 286 287 287 288 289 289 289 288 289 290 291 291 292 293 293 293 294 295 294 294 294 294 294 295 295 300 302 303 303 301 300 298 296 294 293 291
286 285 285 287 288 287 286 284 285 287 288 288 287 287 287 286 286 287 287 287 287 287 288 289 290 291 291 292 292 292 292 291 290 290 291 292 292 293 293 293 295 297 296 296 296 294 294 293 291
285 291 289 288 284 281 285 279 283 284 284 285 285 284 285 285 286 287 286 286 286 286 286 288 289 289 290 290 289 288 287 286 287 288 288 289 290 290 290 291 291 292 293 293 292 293 290 288 288
289 290 288 285 282 281 281 279 280 284 282 283 284 285 285 285 285 285 285 286 286 286 285 284 286 287 288 288 287 286 285 286 286 286 285 286 286 287 287 288 288 288 290 290 291 291 290 289 288
291 287 286 283 282 277 282 281 281 281 284 283 285 285 286 285 284 284 285 285 284 284 284 283 284 284 286 286 286 285 284 283 283 283 283 284 284 284 285 285 286 286 287 287 288 289 289 289 289
286 283 278 277 276 277 282 280 282 284 286 286 285 284 284 284 283 283 282 283 283 283 283 284 283 282 283 283 284 284 283 283 282 282 281 282 282 282 283 283 283 284 285 285 286 286 287 288 288
284 284 279 272 274 278 281 279 282 284 286 287 286 284 283 283 283 283 283 282 282 282 282 283 282 282 282 282 282 282 283 282 282 281 281 280 281 282 283 282 283 283 283 283 283 284 283 284 285
284 282 286 279 268 274 279 280 283 284 283 283 283 282 282 282 283 282 283 282 282 282 282 282 282 282 282 282 282 282 282 282 282 282 282 281 281 283 283 281 280 281 281 282 282 281 281 281 282
287 288 281 280 270 269 276 278 280 280 281 282 281 281 281 281 281 281 281 281 281 281 281 281 282 282 282 282 281 282 281 282 282 282 281 281 281 281 281 282 282 282 281 280 280 280 280 279 280
284 282 283 283 280 272 269 276 283 284 284 282 282 283 282 281 280 280 280 281 281 281 280 280 280 281 281 281 280 280 280 280 280 280 280 280 280 280 280 281 281 281 280 280 279 279 278 278 279
286 285 284 282 277 277 277 279 285 287 286 284 283 284 282 281 280 279 280 281 281 281 280 280 280 280 280 280 280 280 280 279 279 279 279 280 280 280 280 280 280 280 280 280 279 279 279 278 278

GFSSGP_sfc_thetae_066.txt.gz
Theta_e
313 309 306 303 296 290 286 289 293 294 295 300 297 295 294 294 294 291 308 319 327 331 339 346 350 353 354 354 354 353 351 349 349 350 351 351 350 347 345 344 343 341 340 338 335 332 330 328 331
310 310 304 295 289 284 286 288 291 295 295 296 298 297 297 295 300 306 311 321 330 333 340 344 346 351 354 354 353 352 352 350 350 350 350 349 349 347 346 343 341 339 338 336 334 331 328 326 327
310 305 298 291 285 284 286 289 294 293 295 295 300 302 300 297 304 306 313 323 332 335 340 342 346 350 353 354 352 352 351 351 351 351 350 348 348 347 343 341 339 337 336 334 333 330 326 325 326
305 301 295 289 288 291 290 294 291 297 295 297 297 298 297 302 303 310 315 328 331 333 338 341 347 350 352 353 352 351 351 351 351 351 349 348 344 341 340 339 338 336 334 332 331 328 325 324 324
300 295 289 287 288 291 289 293 293 293 298 299 297 297 295 301 312 315 319 327 328 330 335 339 346 349 351 351 351 350 350 350 350 349 348 347 342 340 337 337 337 336 332 330 329 326 323 321 322
297 292 286 285 287 290 292 292 293 292 293 295 298 296 299 303 308 314 317 324 326 329 333 336 338 342 346 348 349 349 349 349 348 348 347 346 341 338 336 336 335 333 330 329 327 325 321 319 319
295 288 285 284 286 289 292 293 296 293 292 295 296 296 298 303 304 313 313 312 320 327 330 333 337 338 337 341 343 346 347 346 346 346 345 343 340 339 337 334 331 329 329 328 326 324 321 319 316
295 291 286 285 286 287 292 293 293 295 294 296 299 293 295 301 303 310 313 312 311 324 328 330 333 340 339 338 335 338 341 342 343 341 339 335 333 333 331 329 331 328 328 328 326 323 321 318 314
294 287 283 285 287 289 292 293 294 294 297 293 295 300 296 301 304 306 306 310 310 316 323 326 329 337 338 335 334 333 335 336 336 336 332 329 328 328 328 326 328 328 328 327 325 323 320 315 306
291 285 286 289 290 294 293 292 292 295 292 292 293 296 299 301 302 303 303 304 305 310 314 323 326 330 336 338 335 335 336 333 333 332 331 329 329 327 325 323 325 327 326 326 325 322 316 305 292
291 288 289 292 294 294 293 292 293 294 291 292 292 294 296 294 294 294 294 294 296 301 308 315 324 327 333 335 336 335 331 330 330 332 330 326 326 324 323 322 321 317 315 314 314 309 305 301 295
292 294 294 296 296 294 292 293 293 293 294 295 293 294 294 294 294 294 294 294 295 296 299 307 319 325 328 334 333 332 331 327 326 329 329 326 323 322 320 320 318 317 315 313 308 305 303 300 296
291 292 294 296 295 294 294 293 293 294 293 294 296 295 293 293 293 293 294 295 295 296 298 301 307 321 324 329 330 328 328 326 326 324 326 325 323 321 320 318 317 315 313 312 308 304 302 300 297
291 292 293 294 294 293 293 290 292 292 293 294 294 292 292 292 292 292 292 293 293 295 297 301 307 316 322 322 324 324 325 325 324 324 324 324 323 321 319 317 316 315 313 310 306 303 301 300 295
292 290 291 292 291 292 293 289 291 292 293 292 291 290 291 291 291 290 291 292 292 294 296 299 312 316 318 321 321 323 323 323 324 324 324 324 322 320 319 317 315 314 311 308 303 301 299 297 295
288 287 285 291 291 291 291 287 292 293 292 290 289 288 289 289 289 289 290 291 292 293 294 297 304 311 314 315 317 316 316 316 315 316 317 319 320 318 316 314 313 310 309 307 306 304 302 299 294
285 283 283 288 291 290 289 287 292 292 290 289 287 287 288 287 288 289 289 289 290 292 293 294 297 301 309 308 307 303 302 301 300 300 301 305 309 314 315 313 311 310 309 307 306 303 300 299 297
283 282 283 284 288 289 286 288 291 290 290 287 285 285 286 286 286 288 288 289 290 291 292 293 294 295 299 301 300 299 298 297 297 296 296 297 299 304 308 309 308 307 307 306 304 301 298 296 294
286 284 283 286 289 287 288 287 287 289 288 286 285 285 285 286 287 288 288 288 289 290 290 291 291 292 294 294 295 294 292 293 293 293 293 294 294 295 296 300 301 303 302 302 301 298 297 297 293
286 284 284 287 289 288 288 287 286 287 286 286 285 284 285 285 286 287 287 286 286 287 288 289 290 290 292 292 291 291 291 290 289 289 289 289 289 290 291 292 293 294 295 296 297 297 295 294 292
285 283 283 285 287 287 285 284 284 285 286 286 285 285 285 284 284 285 285 284 284 285 286 287 288 289 289 290 290 289 288 287 286 286 286 287 287 287 288 288 289 290 291 290 291 291 291 290 291
282 289 288 286 284 281 284 278 281 283 283 284 284 283 283 283 285 285 284 283 283 283 284 286 287 287 287 287 286 285 284 283 284 285 285 285 286 286 286 286 286 287 288 287 288 290 289 288 287
287 290 288 286 282 279 280 279 280 283 281 282 282 283 283 283 283 283 283 284 284 283 281 282 285 286 286 285 285 284 283 283 283 282 282 283 283 284 284 285 284 284 285 285 286 286 287 288 287
290 287 285 283 281 276 282 281 280 280 283 282 283 283 284 283 282 282 283 283 282 282 281 281 282 282 284 284 283 282 281 281 281 281 281 281 282 282 283 283 283 283 283 283 284 284 284 285 287
285 283 278 277 275 276 280 279 282 283 284 285 283 283 283 283 281 281 281 281 281 281 281 282 282 281 282 282 283 282 282 281 281 280 280 280 280 280 281 281 281 282 282 282 282 282 282 283 283
284 284 279 273 273 277 281 279 283 283 285 287 286 285 283 282 282 281 281 281 281 281 281 281 281 281 281 281 281 281 282 281 281 280 280 280 279 280 280 280 280 280 281 281 281 280 280 280 280
284 281 286 279 269 273 279 281 282 283 283 283 283 282 281 281 281 281 281 281 281 280 281 281 281 281 281 281 281 281 281 281 281 281 281 280 280 282 282 282 281 281 280 279 279 279 278 278 279
286 287 281 280 271 269 277 278 281 280 280 281 281 281 281 281 280 281 281 280 280 281 280 280 281 281 281 281 281 281 280 280 280 280 280 280 280 280 280 280 279 280 280 280 280 279 279 277 278
283 282 283 283 280 273 270 276 282 283 283 282 282 282 281 280 279 279 280 280 280 280 280 280 280 280 280 280 279 279 279 279 279 279 279 279 279 279 279 279 279 279 279 279 279 279 279 278 278
284 284 284 279 276 277 276 280 283 285 286 284 283 283 282 281 280 279 279 279 279 279 279 279 278 279 279 278 278 279 279 278 278 277 278 278 278 278 278 278 278 278 279 279 278 278 278 278 278

GFSSGP_sfc_thetae_069.txt.gz
Theta_e
316 311 310 307 299 296 292 296 297 300 301 304 303 301 302 302 299 298 313 322 331 334 340 350 351 354 353 353 353 352 351 351 351 352 351 350 349 346 345 344 342 340 339 337 335 332 330 329 333
313 311 307 299 292 289 291 294 297 299 302 302 302 303 303 302 306 311 316 325 334 336 343 348 347 352 354 354 353 352 351 351 351 350 350 349 348 347 345 343 340 339 337 336 333 330 328 327 330
311 306 302 294 289 289 291 295 298 299 300 302 302 304 304 305 309 312 317 326 335 337 344 347 345 350 353 353 352 352 351 351 350 350 349 348 346 346 343 341 339 337 335 335 333 329 327 326 329
307 303 298 293 293 294 295 296 297 299 301 302 302 301 304 310 309 314 318 331 335 338 343 344 346 347 352 353 352 350 351 352 351 349 348 347 344 342 340 339 338 336 333 333 331 327 325 324 327
301 298 293 291 293 295 294 297 299 299 300 301 302 302 303 308 316 320 323 331 334 337 341 344 346 348 351 352 351 350 350 350 349 348 347 345 342 340 339 337 336 333 332 332 330 326 323 322 324
299 295 290 289 291 295 295 297 298 298 298 299 300 301 304 309 314 320 326 329 332 335 339 342 339 342 346 349 349 349 349 349 348 347 346 344 341 339 337 335 333 332 331 330 329 325 322 320 321
296 290 288 289 290 293 296 296 297 297 297 299 302 300 305 305 307 319 320 323 331 334 336 340 342 341 336 340 343 345 345 345 346 345 345 342 339 338 336 335 332 331 329 329 327 325 322 319 317
296 293 290 289 290 292 296 297 298 298 298 300 303 298 301 303 308 316 318 319 322 330 332 335 339 340 344 345 336 338 339 340 340 341 338 334 334 333 331 329 331 330 329 328 326 324 322 318 313
298 288 286 288 290 293 296 296 298 298 298 298 300 300 302 304 308 309 310 312 316 319 326 331 335 339 340 343 337 334 335 335 334 334 330 329 333 332 329 326 329 330 329 328 326 324 320 311 304
293 287 289 291 292 294 296 295 297 297 296 297 298 300 297 298 298 299 298 299 300 302 305 320 331 335 336 338 341 339 340 342 341 341 339 337 332 329 327 323 326 327 326 327 326 323 315 307 302
294 290 291 294 295 296 295 295 297 296 295 297 298 297 297 297 296 296 297 297 297 299 302 304 320 332 335 336 338 339 336 336 335 335 334 331 328 327 326 325 324 323 318 320 319 317 314 310 305
292 295 295 297 297 296 295 296 296 296 297 295 295 296 295 294 294 294 295 296 296 298 301 304 307 327 331 336 336 334 332 332 333 333 331 328 326 324 324 322 321 320 318 317 315 314 312 310 305
294 294 295 297 296 295 295 295 295 295 293 296 295 294 293 293 293 294 295 296 296 297 299 303 308 322 329 332 331 330 330 330 329 329 328 329 325 324 323 321 319 319 316 316 313 311 312 310 307
293 293 294 295 295 295 294 293 294 293 295 294 293 292 292 292 291 292 293 294 294 296 298 303 313 323 328 327 327 326 326 326 326 325 325 325 325 324 322 319 318 317 316 313 312 311 311 309 306
293 291 292 293 293 293 294 291 292 292 294 291 291 290 290 290 290 290 291 292 293 295 298 303 317 323 324 322 320 318 316 314 312 313 314 317 320 320 319 317 316 314 313 311 309 307 306 305 303
290 289 287 293 293 292 293 290 291 293 293 290 289 288 289 289 289 289 290 291 292 294 297 302 313 314 312 309 307 304 303 302 302 302 304 306 311 315 315 313 311 311 310 310 309 307 306 305 302
287 285 285 289 292 291 291 290 290 292 291 289 287 287 288 288 289 289 290 290 291 293 295 299 303 304 303 301 300 299 298 298 297 297 298 299 301 307 309 308 308 310 309 308 307 306 303 304 303
284 283 285 286 290 290 288 289 289 289 289 287 285 286 286 286 287 288 289 290 291 292 294 295 297 300 300 300 298 297 295 294 293 293 293 294 296 297 300 300 300 304 303 302 302 302 302 300 297
287 286 286 288 290 289 288 288 289 288 287 285 285 285 286 286 288 288 288 288 289 290 291 292 293 294 297 296 295 292 290 290 289 290 290 290 291 292 294 295 296 297 296 296 297 300 300 301 299
287 285 285 288 290 289 288 288 287 287 286 286 285 285 285 286 286 286 286 286 287 288 289 290 290 292 293 293 292 292 289 288 288 288 288 288 289 289 289 290 290 291 291 292 293 294 296 297 296
285 284 284 286 288 289 287 286 284 285 286 286 286 286 286 285 284 285 284 284 285 285 286 287 288 288 289 291 290 289 288 288 287 286 287 287 287 288 288 288 288 288 289 288 288 290 291 291 294
284 288 287 287 285 282 286 281 283 283 283 284 284 284 284 285 285 284 283 283 284 283 285 287 287 287 287 288 286 286 285 284 285 285 286 286 287 287 287 287 287 287 287 286 287 288 288 289 288
288 288 287 286 284 281 282 280 282 283 281 282 283 283 284 284 284 283 283 283 283 283 283 285 286 286 286 286 286 285 284 284 285 285 285 285 286 286 286 286 286 285 286 286 285 286 286 287 287
289 287 285 283 282 277 282 283 282 280 283 283 283 283 284 283 283 283 283 283 282 283 283 284 284 284 286 285 285 284 284 283 284 284 284 284 285 285 285 285 285 285 285 284 285 285 284 284 285
286 284 279 277 276 277 281 280 284 284 285 285 283 283 283 283 282 282 282 282 282 282 282 283 283 283 284 284 284 284 284 284 284 283 283 283 283 283 283 284 283 283 283 284 284 283 283 283 283
283 284 280 273 274 278 282 279 284 284 286 287 286 285 284 282 282 281 281 281 281 282 282 282 282 282 283 283 283 284 284 284 283 283 283 282 282 283 283 283 282 282 282 282 282 282 282 282 282
284 281 286 279 270 274 279 282 282 283 283 284 284 283 283 282 281 281 281 281 281 282 282 282 282 282 282 283 283 283 283 283 283 283 283 283 283 283 282 282 281 282 282 282 282 281 281 281 281
286 288 281 280 272 270 277 279 282 280 280 282 282 282 283 282 281 281 281 281 281 281 281 282 282 282 283 282 282 282 281 282 282 282 281 281 281 281 281 280 280 281 281 281 281 281 281 280 281
283 282 283 283 281 274 271 278 283 284 283 282 283 284 283 282 282 282 281 281 281 281 281 281 282 282 281 282 281 281 281 281 281 280 280 280 279 279 279 278 278 278 278 278 277 277 278 278 278
284 284 284 281 276 276 277 278 284 285 285 284 284 284 283 283 282 281 281 280 280 280 280 281 280 281 280 280 280 280 280 279 278 277 277 278 277 277 276 276 276 275 275 275 275 274 274 274 274

GFSSGP_sfc_thetae_072.txt.gz
Theta_e
323 320 323 321 307 307 299 300 304 304 304 308 308 307 306 307 304 302 323 331 335 339 346 350 351 353 354 353 352 352 352 352 351 352 350 349 347 345 344 342 341 339 338 336 333 330 329 333 336
320 318 320 314 303 297 298 302 301 304 306 307 308 308 307 306 311 316 322 329 336 339 345 349 347 352 353 353 352 351 352 352 352 350 349 348 347 345 343 341 339 337 337 335 332 329 328 331 334
317 313 314 308 303 296 297 302 303 304 306 307 307 309 309 308 314 317 324 333 338 339 346 348 347 352 353 353 352 352 351 352 351 349 348 347 347 344 342 340 338 336 336 334 331 328 327 329 331
317 315 310 303 298 300 300 302 303 305 306 307 307 306 309 314 316 322 324 334 338 340 346 346 346 351 353 350 350 351 351 350 349 349 347 347 344 341 340 338 336 334 333 333 330 326 325 327 330
315 312 305 301 299 300 302 304 304 304 305 307 307 304 307 313 322 327 327 336 337 340 345 348 346 346 350 350 349 349 349 350 349 348 346 344 341 340 338 336 334 333 332 331 328 325 323 324 327
311 308 301 298 299 301 303 304 304 304 304 305 305 305 307 314 318 326 333 334 338 340 343 346 341 343 346 348 348 347 347 347 347 347 346 343 341 339 336 335 333 332 332 330 328 325 322 321 322
306 304 298 298 298 299 302 303 304 303 303 304 307 303 307 310 314 325 326 332 337 340 342 344 347 346 336 340 342 344 345 345 345 345 344 341 340 338 337 335 333 331 331 330 327 324 321 318 318
309 306 297 298 297 298 303 303 304 304 303 306 308 303 304 309 315 322 325 326 332 337 340 342 345 344 348 348 335 336 339 341 340 340 337 334 333 333 332 330 332 331 330 329 327 324 321 314 312
305 300 296 296 297 300 303 302 304 305 304 304 305 305 304 306 311 315 317 317 321 321 329 339 341 341 343 347 341 336 334 335 335 334 330 329 335 335 332 328 331 331 329 328 327 324 318 308 305
304 300 297 299 301 301 302 302 303 303 303 303 303 304 305 306 307 308 308 309 309 310 312 314 335 337 340 341 345 344 343 344 344 343 342 340 337 335 330 324 326 327 326 329 326 321 316 316 312
302 299 298 299 301 303 302 302 304 302 301 303 303 302 303 304 305 305 305 306 306 308 310 311 314 336 336 339 342 345 342 345 344 342 341 341 334 330 329 328 327 325 320 322 322 322 322 319 316
299 301 301 302 303 302 301 303 302 303 301 301 302 301 301 302 302 302 303 304 305 307 310 312 314 322 334 338 339 338 337 335 336 339 338 335 331 331 328 327 325 324 322 321 320 319 320 319 316
300 301 301 303 302 302 301 301 301 300 300 301 300 300 300 300 300 302 303 305 306 307 310 313 316 322 332 336 333 332 330 329 327 330 332 333 331 330 327 324 323 321 320 319 317 316 320 319 317
301 300 300 301 301 301 299 299 300 297 300 299 299 298 298 297 298 301 301 303 304 307 308 314 315 328 331 328 325 322 320 318 316 314 319 323 325 324 322 319 318 317 317 315 315 313 311 311 313
300 298 300 301 300 299 300 296 297 299 300 298 296 297 296 296 297 297 299 301 303 302 306 313 322 322 317 314 311 310 309 308 306 307 309 314 318 318 316 315 314 314 316 314 314 312 312 311 309
297 297 296 299 298 298 299 297 296 298 299 297 296 296 295 295 295 297 298 301 299 300 304 307 308 306 305 304 304 304 306 305 302 302 304 306 310 312 312 310 310 313 312 313 312 310 310 309 309
295 295 293 296 299 297 297 297 296 297 297 296 295 294 294 295 295 296 297 300 297 298 302 303 303 302 301 300 299 298 297 297 296 297 298 299 301 304 303 304 306 307 307 306 307 309 307 308 307
294 292 292 294 296 296 296 297 295 295 297 296 294 293 293 293 292 294 296 298 297 297 299 300 301 300 299 297 296 294 293 294 294 294 294 295 298 300 302 302 303 304 304 303 305 308 309 307 305
297 294 294 295 296 295 296 297 297 295 294 293 293 293 292 292 292 293 295 297 297 296 296 297 298 299 299 297 294 294 292 293 293 293 294 294 294 295 296 296 296 297 296 296 298 301 302 303 301
294 294 293 295 295 294 296 294 297 294 294 294 293 292 292 291 292 292 293 295 296 295 295 295 296 297 297 297 296 294 293 292 292 292 292 292 292 292 292 293 292 293 293 292 292 293 295 296 298
293 292 293 293 294 294 293 293 293 289 290 290 291 291 291 291 289 290 290 292 293 294 294 295 295 295 294 293 293 292 293 293 291 291 290 291 291 291 291 291 291 291 291 290 290 291 291 290 292
290 294 294 292 291 290 293 289 292 291 288 288 289 290 289 289 289 288 289 289 290 290 292 292 292 292 292 293 292 292 290 288 289 290 290 290 291 290 290 290 290 290 290 289 289 289 289 290 288
293 294 293 292 292 290 290 289 293 288 286 287 288 289 289 289 288 287 287 287 288 290 290 291 290 291 291 292 291 290 289 289 290 290 289 289 290 290 289 289 288 287 287 288 287 287 287 288 288
294 292 290 290 290 284 290 289 293 287 289 288 288 288 288 288 287 286 286 287 287 289 290 290 290 290 291 291 291 290 289 289 289 289 288 289 289 289 288 287 287 287 286 286 286 287 286 286 287
293 291 285 282 282 284 287 287 293 292 291 291 288 288 288 287 286 285 285 285 286 287 288 289 289 288 289 289 289 290 289 289 288 288 288 287 287 286 286 286 286 285 285 286 286 285 285 285 285
290 293 288 281 281 285 285 283 290 289 290 292 291 289 288 287 286 285 285 285 286 286 287 288 288 287 288 288 288 289 289 288 288 288 288 287 286 285 285 285 285 285 285 285 285 285 285 285 285
289 286 292 283 278 283 288 289 288 287 288 289 289 288 286 286 286 285 285 286 286 286 287 287 287 287 287 287 288 288 288 288 287 288 287 286 285 284 284 284 284 284 284 284 284 284 283 284 284
291 293 285 287 281 280 285 285 289 285 286 287 287 286 286 287 286 286 285 285 286 287 287 288 287 287 287 287 288 287 287 287 287 286 284 283 283 283 283 282 282 282 282 282 281 281 282 280 281
288 287 288 289 287 283 282 285 292 291 290 287 288 288 288 287 286 286 286 286 286 287 287 287 287 287 287 287 287 287 286 285 284 283 282 282 281 281 280 280 280 280 279 279 279 279 279 278 278
292 290 290 286 282 284 284 286 289 290 292 290 289 289 289 288 287 287 286 286 285 286 286 287 287 287 287 286 286 285 284 282 281 280 280 280 279 280 279 278 278 278 278 277 277 276 276 276 276

GFSSGP_sfc_thetae_075.txt.gz
Theta_e
327 323 324 322 308 307 300 301 306 304 305 310 310 308 307 309 306 304 325 334 334 341 347 350 351 353 354 353 352 353 353 352 352 350 349 348 346 344 343 341 339 339 337 334 331 330 332 336 338
323 320 322 316 304 299 299 304 302 305 308 310 310 309 308 306 314 318 323 333 335 341 346 348 348 352 353 352 352 352 352 352 350 349 347 347 345 344 342 340 338 337 336 333 331 329 331 333 337
321 317 315 309 303 299 299 303 305 306 309 309 308 311 310 309 316 318 327 334 337 339 346 348 347 351 352 351 351 351 352 350 349 348 348 347 345 342 340 338 336 336 335 332 329 328 329 331 336
319 317 313 304 299 301 302 304 306 306 308 309 309 307 312 319 319 325 329 335 337 338 345 346 348 351 351 350 350 351 350 349 348 347 346 345 343 341 339 336 335 333 333 331 328 326 328 331 334
318 313 305 302 300 302 304 306 306 305 306 307 308 305 308 316 326 329 333 335 336 339 344 349 346 348 349 348 349 348 348 348 347 347 346 343 341 339 337 335 333 333 333 330 327 324 324 326 329
311 310 301 299 301 303 305 307 307 306 307 306 306 306 309 316 322 328 333 334 337 339 343 347 341 342 345 346 346 346 347 346 346 345 345 342 340 338 336 334 333 333 332 330 327 324 321 322 322
307 304 300 300 300 302 304 307 306 305 305 305 308 304 310 313 317 326 328 334 337 340 342 343 346 345 337 341 340 344 345 345 344 344 343 341 340 338 336 335 333 332 331 329 327 325 320 318 318
310 305 299 300 299 300 305 306 307 306 305 309 310 304 306 309 314 322 326 328 336 339 340 341 343 347 347 347 334 337 340 342 342 340 337 334 334 333 332 330 334 332 331 329 327 324 317 312 312
309 301 298 298 299 302 306 304 306 308 306 307 307 308 307 309 313 317 321 321 324 327 333 339 340 341 344 346 341 335 334 336 335 335 330 328 333 333 331 328 332 331 330 329 327 323 318 309 308
306 301 299 302 303 302 305 305 305 305 305 305 305 307 308 309 310 311 312 314 314 314 315 319 335 339 340 341 344 344 344 344 343 342 337 337 336 336 331 325 325 326 327 328 325 321 318 321 317
305 300 302 301 304 305 304 304 306 304 302 305 305 306 306 307 308 308 309 309 310 311 314 314 317 334 337 340 342 342 343 343 343 341 341 340 336 332 330 328 328 326 321 324 323 325 324 321 318
301 303 303 303 304 303 303 305 303 304 304 305 305 305 305 305 305 305 306 308 310 312 313 315 316 320 335 339 342 341 338 336 334 337 338 338 337 333 330 328 326 325 323 322 322 321 323 322 320
301 303 304 305 304 304 305 303 303 304 304 304 303 304 303 303 304 306 307 309 310 311 313 316 319 319 334 334 330 326 322 320 319 322 327 333 332 329 327 323 321 319 321 320 319 321 321 319 319
304 303 303 304 303 304 301 303 302 303 303 302 302 301 301 301 302 304 305 307 309 309 312 317 315 329 325 319 317 315 313 311 311 312 316 322 324 321 319 317 318 318 317 316 317 317 316 315 315
303 299 303 304 304 302 303 299 299 302 303 301 300 301 300 300 301 302 304 306 305 307 310 312 314 314 312 311 310 309 307 306 305 307 309 312 315 316 314 313 313 314 315 315 316 315 316 314 313
300 300 297 303 302 301 301 298 302 302 301 301 301 300 299 299 300 301 304 305 302 305 307 307 307 305 306 305 306 306 304 302 301 302 303 305 305 308 309 308 308 310 308 309 311 311 312 312 311
299 295 298 300 302 300 299 300 300 301 301 301 301 300 299 299 299 300 303 301 300 303 304 302 302 300 300 299 299 299 301 302 301 300 300 302 303 304 303 304 305 307 306 306 309 310 310 308 306
296 296 297 297 300 299 299 299 300 300 300 300 301 300 299 298 296 298 302 299 299 301 302 301 299 298 297 296 296 297 296 296 297 297 297 298 299 301 301 300 301 301 300 299 300 304 304 302 300
300 298 297 300 301 298 298 299 302 300 299 300 300 299 298 297 296 298 301 298 297 298 299 299 299 298 297 296 294 295 294 294 296 296 295 295 296 296 297 296 296 296 295 295 295 296 297 296 299
298 296 296 300 300 296 298 298 302 302 299 300 299 298 297 295 295 297 299 297 296 296 296 297 297 297 296 297 296 296 295 295 294 294 294 293 293 293 293 294 294 294 293 293 293 293 293 294 294
296 295 295 296 298 297 296 295 298 302 299 297 297 298 296 295 294 295 298 296 296 295 296 296 295 295 296 296 296 295 295 294 293 292 292 292 291 292 292 292 292 292 292 290 291 291 290 290 292
292 299 297 295 293 290 297 288 298 300 293 293 294 294 294 294 294 294 295 296 295 295 296 296 296 296 297 298 296 294 292 290 291 291 291 291 291 290 290 290 290 290 290 289 289 289 290 289 288
295 297 295 295 293 293 294 289 295 297 292 293 293 293 293 293 292 292 293 292 293 294 294 293 293 294 295 295 294 292 291 291 292 291 290 290 290 289 289 289 289 288 288 288 288 288 287 288 287
297 294 293 293 293 286 292 292 293 294 294 295 293 293 292 292 291 291 290 290 290 291 292 293 291 291 293 292 292 292 291 290 290 290 289 289 289 288 288 288 288 288 287 286 287 287 287 286 286
295 292 286 285 283 283 292 292 294 298 295 296 292 292 291 291 289 288 287 287 288 289 290 290 290 289 291 291 291 291 291 290 289 289 288 288 287 286 286 287 287 286 286 286 286 287 286 286 285
292 293 288 282 283 286 287 285 293 292 295 296 294 293 291 289 289 287 287 287 288 289 289 289 289 289 289 290 289 290 290 289 289 289 287 286 286 285 286 286 286 285 285 285 285 285 285 285 285
293 290 296 286 283 283 289 291 291 291 290 293 292 291 290 288 288 287 287 288 288 288 289 289 289 289 289 289 289 289 289 289 288 288 287 285 285 284 284 284 283 283 283 283 282 283 283 283 283
295 296 286 287 281 281 288 290 290 287 288 290 290 290 290 289 288 287 287 287 288 289 289 289 289 288 288 289 289 288 288 288 287 286 285 284 284 283 283 282 282 282 281 281 281 281 281 280 281
290 289 291 292 289 285 284 288 296 295 292 290 290 291 290 288 288 287 287 287 288 288 288 288 288 288 288 288 288 288 287 286 285 284 283 283 283 281 281 280 280 280 279 280 279 279 279 278 278
296 292 292 287 284 287 287 289 293 294 295 293 292 291 291 290 289 288 287 287 287 287 288 287 288 288 288 288 288 286 285 284 283 282 282 282 281 280 279 279 279 278 278 278 277 276 277 276 276

GFSSGP_sfc_thetae_078.txt.gz
Theta_e
326 322 319 317 306 303 296 298 300 301 302 303 305 303 303 305 303 301 320 329 334 342 347 351 351 352 353 353 353 353 352 352 350 349 348 347 345 343 341 340 339 337 335 333 332 334 336 339 341
318 319 318 313 299 294 294 299 299 301 304 304 304 303 303 302 312 317 319 331 334 342 346 348 347 352 352 352 352 353 352 351 349 349 348 345 343 342 341 339 337 336 334 332 331 332 334 337 338
320 317 310 305 299 293 294 298 300 303 304 303 301 305 305 305 314 315 325 331 333 339 345 347 346 351 351 351 352 351 350 348 349 348 347 346 343 341 339 337 335 335 333 330 330 331 334 336 337
315 313 308 298 296 297 298 300 302 302 303 304 304 302 308 317 317 320 328 332 332 337 344 344 347 350 349 350 350 351 350 349 347 347 346 344 342 340 337 335 335 334 332 329 328 328 331 333 333
314 309 301 297 296 297 300 302 301 301 301 301 301 301 305 316 323 326 329 331 333 335 345 346 347 348 348 348 348 348 347 347 347 346 345 343 340 338 336 335 334 333 331 329 326 325 326 327 329
307 304 296 294 296 299 300 301 300 300 302 299 297 303 303 312 320 324 328 329 334 336 344 345 339 342 346 345 345 346 346 346 347 345 344 342 339 337 336 335 334 332 331 329 327 322 322 321 321
303 300 295 295 297 298 301 301 299 299 300 300 302 299 304 307 313 321 324 329 334 337 338 343 342 342 339 341 341 343 344 344 344 343 343 340 339 338 336 335 334 333 331 329 326 320 316 316 315
306 300 294 291 294 296 301 301 302 301 299 304 303 298 297 301 308 319 321 328 331 334 335 337 341 342 342 342 335 337 340 341 341 340 337 334 333 333 332 331 334 332 331 329 326 322 316 313 311
307 296 293 294 295 296 301 299 301 302 299 300 303 301 302 304 308 314 315 320 321 319 319 328 339 338 340 343 336 333 335 336 335 334 330 327 330 330 329 328 331 332 330 328 326 323 320 312 313
301 296 297 298 298 297 301 299 300 298 299 298 300 304 305 306 305 306 306 307 308 308 310 312 318 334 336 339 340 339 338 337 337 335 330 333 330 331 327 323 325 328 328 326 325 323 324 319 312
301 296 298 298 302 302 301 299 300 297 297 298 299 301 303 304 303 304 304 305 305 305 309 310 311 324 335 336 337 335 336 335 336 335 332 335 330 327 324 323 321 322 320 320 321 320 318 314 313
297 301 300 302 302 301 299 301 298 299 297 302 301 302 302 302 301 302 303 304 305 307 310 312 312 313 334 337 331 327 326 325 325 327 333 333 331 329 326 324 320 320 321 319 318 318 317 315 314
298 299 301 302 302 300 302 299 299 297 300 301 302 302 300 300 301 302 303 305 307 306 309 312 315 312 333 326 321 318 316 315 316 319 324 328 326 323 321 319 318 317 317 316 315 316 313 312 312
300 300 301 301 302 301 299 298 299 298 300 300 300 299 298 298 298 300 302 303 305 307 309 315 316 319 318 316 313 311 311 310 311 312 315 319 319 317 316 316 316 315 315 314 314 312 312 310 310
300 296 299 300 300 299 299 295 296 299 300 298 298 297 297 297 299 298 301 301 302 305 308 309 310 312 311 310 308 306 306 305 305 306 308 310 312 312 312 310 309 309 310 310 310 309 309 307 307
296 296 292 299 301 298 298 292 300 299 298 297 297 295 296 296 298 298 301 300 300 303 304 304 305 304 306 306 305 304 302 301 301 302 304 305 306 306 306 305 306 307 306 306 308 306 304 301 300
296 289 292 295 300 297 295 293 296 299 297 296 296 296 296 295 296 298 299 298 300 304 302 300 300 299 299 299 299 299 298 298 298 298 300 301 302 302 301 300 298 298 296 294 298 298 297 293 294
291 290 293 292 296 296 293 293 296 297 297 296 296 296 295 295 294 297 297 297 300 301 300 298 297 296 297 297 296 296 295 294 294 294 294 296 296 296 296 295 294 294 292 291 291 292 292 290 290
295 293 292 295 298 294 293 294 297 296 295 294 295 295 294 294 294 297 297 296 298 300 299 298 296 297 296 296 294 293 291 292 292 292 292 292 293 292 292 291 291 290 289 288 289 289 289 289 290
295 292 292 295 297 294 293 293 297 297 296 296 296 295 294 291 292 296 295 296 296 296 297 297 297 296 296 296 294 293 291 291 289 290 289 289 289 289 290 289 288 288 287 287 286 287 286 287 288
293 292 292 292 296 294 290 290 293 297 298 297 297 296 295 292 291 294 293 293 295 294 295 295 296 295 294 294 293 292 291 289 288 287 287 288 288 288 288 287 287 286 286 285 285 285 284 283 285
290 296 295 294 290 285 292 284 290 295 296 294 293 292 291 291 292 293 293 294 293 294 295 294 294 294 294 294 293 289 287 285 286 287 287 287 287 287 287 286 286 285 285 284 284 285 284 283 282
292 296 293 292 289 287 288 285 288 294 292 292 292 291 291 290 290 291 292 293 292 293 292 292 292 293 292 290 289 288 287 287 288 287 286 285 285 286 286 285 284 284 284 283 283 283 282 283 282
296 292 291 290 288 281 288 287 289 292 294 293 292 292 291 290 289 290 289 291 291 291 290 290 289 289 289 288 288 288 287 287 286 285 285 284 284 283 284 285 284 284 283 283 283 283 282 282 282
293 289 281 281 280 280 289 287 291 293 293 294 292 291 290 289 288 286 286 285 287 288 287 287 287 287 288 288 288 287 287 286 285 285 284 283 282 282 282 283 282 282 282 282 281 281 281 280 280
289 290 283 278 279 280 283 281 288 290 291 294 294 292 290 288 287 285 285 285 285 286 285 286 286 286 287 287 286 286 286 286 285 284 283 282 282 281 282 281 281 281 281 280 279 279 279 278 278
289 286 292 286 277 278 283 286 289 289 288 290 290 290 288 287 286 285 285 286 286 286 286 286 286 286 286 286 286 285 285 285 284 283 282 281 281 282 281 280 279 279 279 278 277 277 277 276 277
292 294 285 286 278 276 282 284 286 285 286 289 288 288 288 287 285 285 285 285 286 285 285 286 286 285 285 285 285 285 285 284 283 282 281 280 280 279 278 278 278 277 277 277 276 276 276 275 275
289 288 289 289 286 280 277 282 288 290 289 288 288 289 288 286 285 284 284 285 285 285 285 285 285 285 285 285 285 284 283 282 281 280 279 279 278 277 277 277 277 276 276 276 275 274 274 274 274
295 291 291 285 281 283 282 283 290 291 291 290 289 289 289 287 285 284 284 284 284 284 285 284 285 284 284 285 284 283 281 280 278 278 278 278 277 277 276 276 276 275 275 274 274 273 273 273 273

GFSSGP_sfc_thetae_081.txt.gz
Theta_e
321 313 312 310 300 295 289 293 295 297 297 298 302 303 302 302 303 298 319 328 342 345 349 351 351 353 353 353 352 352 352 351 349 349 346 345 343 342 340 339 337 335 333 334 335 337 339 339 339
313 317 312 304 294 288 289 293 295 296 300 301 303 301 301 302 312 315 319 328 343 346 349 350 347 350 352 353 352 352 351 349 349 348 346 345 342 340 338 337 336 333 332 332 334 337 338 338 336
317 314 303 299 291 287 289 293 296 299 300 300 298 302 303 305 311 314 324 330 343 344 347 347 347 350 351 351 351 350 349 350 348 346 346 343 341 339 337 336 335 333 331 331 333 335 335 334 335
308 307 302 293 290 292 292 294 299 299 299 302 301 301 308 316 314 318 328 330 339 343 346 343 347 350 350 350 349 349 349 348 347 346 345 343 340 337 336 335 334 332 329 328 329 331 333 333 333
307 300 294 291 289 293 294 297 298 298 297 297 300 299 305 317 320 326 327 331 331 340 344 344 345 347 348 348 349 349 348 348 346 345 343 341 339 336 336 334 333 331 329 326 325 326 326 325 325
300 296 289 288 289 293 294 297 296 296 297 297 300 299 300 312 319 321 327 329 334 341 343 345 339 341 344 346 346 346 345 346 346 344 343 340 338 337 336 335 333 332 330 326 322 320 320 318 318
300 293 288 289 291 293 296 299 295 296 296 297 301 297 300 305 313 321 326 330 333 339 341 340 340 340 339 340 341 342 344 344 343 343 342 339 338 337 336 335 334 333 331 328 322 318 317 315 314
299 294 288 289 290 291 296 297 298 298 296 300 300 297 296 300 307 318 325 328 324 324 335 339 340 339 340 339 335 337 339 340 340 339 336 333 333 333 332 331 333 332 330 328 324 321 319 318 317
299 290 287 289 290 293 296 295 298 300 297 298 300 298 300 303 307 314 318 319 316 313 311 317 339 338 341 339 335 334 334 335 334 333 329 327 330 330 329 328 331 331 329 328 326 325 321 317 319
296 290 291 292 293 293 296 297 297 295 296 295 298 301 303 303 304 306 306 303 303 305 307 309 313 332 336 339 337 338 335 335 335 331 330 330 330 328 324 322 325 327 326 327 326 325 321 316 311
295 291 294 295 298 298 297 296 298 295 293 295 297 299 301 300 301 301 301 302 302 304 308 310 310 316 332 334 337 337 335 335 336 332 332 329 327 324 324 321 319 319 318 320 320 318 315 312 311
291 297 296 300 299 298 296 298 295 296 296 299 299 300 299 299 299 300 301 302 304 306 308 311 314 311 332 329 326 325 325 324 324 328 334 330 327 326 323 320 319 318 318 316 317 316 312 311 312
294 296 298 299 299 297 299 296 296 295 297 299 300 300 298 298 299 300 302 304 304 305 308 311 314 313 325 321 319 317 315 315 317 320 327 327 323 320 319 317 316 315 315 314 313 313 312 309 309
296 297 297 299 299 299 297 295 297 295 297 297 298 296 296 297 298 298 301 301 303 306 307 312 316 318 317 314 313 311 311 310 311 312 316 318 318 316 314 312 312 311 312 312 311 312 307 304 304
296 293 296 297 297 297 297 294 294 296 297 296 296 294 295 296 297 297 299 300 302 303 306 309 310 311 310 308 308 307 307 307 307 308 310 311 312 310 308 307 306 305 305 308 305 304 297 296 297
292 291 288 296 297 296 296 290 297 296 295 294 293 292 294 295 296 298 299 299 301 300 300 303 305 307 306 305 304 304 303 303 303 304 305 305 306 306 303 300 298 297 296 299 297 294 290 290 291
290 286 288 293 297 295 293 290 294 295 295 293 292 292 293 293 295 296 297 297 299 299 298 299 300 300 300 301 300 299 299 298 299 299 299 299 298 297 296 294 294 293 292 291 292 290 288 288 288
287 287 289 289 294 292 291 291 294 295 294 293 292 292 292 292 293 295 296 297 297 297 296 297 297 297 297 297 296 295 294 294 294 294 294 295 294 294 293 291 290 290 288 288 287 288 288 287 286
291 289 288 291 296 292 290 291 293 294 293 292 292 292 292 292 293 295 295 295 296 295 297 296 296 296 297 296 294 293 290 291 290 291 291 291 291 290 289 289 288 287 286 286 286 286 286 285 286
292 289 289 292 295 292 291 291 294 294 294 295 295 293 292 290 292 293 293 293 295 296 296 297 296 297 297 296 294 292 290 289 289 289 288 288 288 288 287 287 286 285 285 285 284 284 284 284 285
291 290 290 291 293 291 290 288 290 294 294 294 296 295 293 291 292 292 292 291 292 295 296 296 296 295 294 293 291 290 289 289 287 287 286 286 287 286 286 286 285 285 285 284 283 283 282 281 283
289 293 293 292 288 284 290 284 289 291 292 293 296 292 291 290 293 292 291 290 291 295 296 295 294 293 293 292 290 289 287 285 285 285 285 285 286 285 286 285 285 284 284 283 283 283 282 281 280
291 294 292 291 287 285 285 283 286 292 292 292 294 289 289 290 292 291 291 291 293 294 294 293 293 293 293 292 290 288 286 285 285 284 283 284 284 285 285 284 284 283 283 282 282 282 282 282 280
294 291 291 288 286 280 285 285 289 291 293 295 292 289 289 289 290 290 290 291 291 291 292 293 292 291 290 290 289 287 285 284 284 283 282 282 283 283 283 283 283 282 282 281 281 281 280 280 279
291 287 280 278 278 280 287 284 289 293 293 294 291 290 289 289 289 288 287 288 289 289 289 289 289 288 288 288 287 287 286 285 284 283 282 282 281 281 281 281 281 280 280 280 280 279 278 277 277
288 288 282 275 277 279 283 281 287 290 290 292 292 291 289 288 288 286 286 287 288 288 288 288 288 287 286 286 285 286 286 285 284 283 282 281 281 281 281 280 280 279 279 278 278 277 277 276 276
287 285 291 284 280 277 283 285 290 288 287 288 288 288 287 286 285 285 285 285 287 287 287 287 287 286 286 286 286 285 285 284 282 282 282 281 280 281 279 278 278 277 277 277 276 275 275 274 275
290 292 284 287 277 276 280 281 286 286 286 286 286 286 285 284 284 284 284 284 285 287 286 286 286 285 285 285 285 284 283 283 282 281 280 279 279 279 278 277 277 276 276 275 275 274 274 274 274
288 287 289 289 285 278 275 281 288 289 288 287 287 287 286 283 283 283 284 285 285 284 285 284 284 284 284 285 284 283 282 281 281 280 278 278 278 277 277 277 276 276 275 274 274 273 274 273 273
294 291 291 285 280 283 280 284 288 288 289 289 288 288 286 284 284 283 284 284 284 284 284 284 284 284 284 284 283 281 281 279 279 278 277 277 276 276 276 276 275 275 274 274 273 273 273 272 272

GFSSGP_sfc_thetae_084.txt.gz
Theta_e
318 311 309 309 299 292 288 291 292 295 295 297 301 302 301 301 302 296 316 330 342 345 348 349 350 352 352 353 352 352 350 349 348 346 344 342 341 339 339 336 334 334 335 336 337 338 339 339 341
316 314 310 300 292 287 288 291 293 295 298 301 301 299 301 302 310 317 318 338 344 346 348 349 347 351 352 352 352 351 349 348 348 346 344 341 340 338 337 336 333 333 334 336 336 337 335 337 339
314 311 303 296 288 287 288 291 294 297 300 299 298 303 303 304 310 314 323 340 344 346 347 346 346 350 351 351 351 350 349 348 347 345 343 341 338 337 336 334 332 331 331 333 335 335 334 336 336
307 305 299 292 287 289 292 294 296 296 297 301 301 301 308 315 313 319 326 341 341 345 346 344 347 350 350 350 349 348 349 347 346 345 342 339 337 337 335 333 331 329 328 329 330 330 330 330 330
303 298 292 290 287 291 291 295 296 296 295 296 299 298 307 316 320 324 327 340 337 342 344 343 345 348 349 349 349 349 348 347 345 344 341 338 337 336 334 333 331 328 325 325 325 323 322 322 323
298 294 288 286 288 291 292 297 297 294 295 298 299 298 300 309 318 322 327 330 338 339 342 344 339 341 344 346 347 347 347 346 345 344 340 338 337 336 335 334 333 330 326 322 320 318 318 318 319
295 290 287 289 289 291 295 296 295 294 294 295 301 297 300 306 315 324 327 332 337 340 342 342 341 339 338 340 341 342 344 343 343 342 341 339 337 336 335 335 333 332 328 324 323 322 320 318 317
296 292 289 288 290 290 295 295 297 296 294 299 299 296 297 302 312 324 325 317 317 319 331 337 339 339 341 338 334 336 339 340 340 338 335 333 333 333 332 330 332 330 329 327 325 322 322 321 318
296 289 286 288 288 292 295 294 296 297 297 297 298 297 299 304 315 320 319 315 310 310 312 318 339 336 338 340 334 333 334 335 334 332 329 327 330 330 329 328 330 329 329 328 327 324 322 319 319
294 288 290 291 291 292 295 295 296 294 294 294 296 299 301 302 310 314 312 306 304 304 308 311 317 334 337 339 335 338 337 337 334 332 330 329 329 327 325 323 325 325 325 328 326 323 319 314 310
293 289 292 293 295 296 295 294 296 294 291 295 296 298 299 300 302 303 301 301 302 304 308 310 312 315 334 335 334 334 336 336 333 331 330 327 324 323 322 321 319 319 317 318 317 313 312 311 310
290 295 295 297 297 296 295 296 294 294 294 298 298 299 298 298 299 300 300 301 303 305 307 312 314 313 329 327 326 327 326 326 328 331 329 326 323 323 320 319 317 316 316 315 314 310 309 308 309
291 294 296 297 298 296 297 295 295 294 295 297 298 299 298 297 298 299 301 303 303 303 305 310 313 320 322 321 319 318 317 318 319 326 329 327 323 319 317 313 315 314 313 313 310 307 303 301 302
294 295 296 297 297 297 295 294 296 294 295 296 297 296 296 297 297 298 301 301 302 304 305 311 317 318 317 315 314 312 312 312 313 316 320 320 318 315 313 310 309 308 308 305 300 297 296 295 297
295 292 294 295 295 296 296 293 293 295 295 295 295 294 295 296 297 298 299 300 302 302 305 306 308 312 311 310 309 308 309 309 310 310 312 313 312 309 307 303 299 299 300 297 293 292 290 290 293
291 290 287 294 295 295 295 289 295 295 294 293 293 291 293 294 296 298 298 300 300 300 301 303 308 307 306 306 305 305 305 306 305 306 305 305 304 302 298 296 293 295 295 293 290 289 287 287 289
289 285 287 292 295 294 292 290 294 293 293 292 291 291 292 292 294 296 297 298 298 298 298 301 303 303 302 301 301 300 300 299 299 299 298 297 296 295 294 293 291 292 291 290 288 287 285 284 286
286 286 287 288 292 291 289 290 293 293 293 293 291 291 291 291 293 295 296 297 297 296 295 296 299 299 299 298 296 295 294 294 294 294 294 294 293 292 291 290 289 289 288 286 286 285 285 283 284
289 288 287 289 294 291 290 291 294 293 292 291 291 291 291 292 293 294 295 295 294 294 296 297 296 297 297 296 294 293 291 291 290 291 291 291 291 290 289 287 286 286 285 283 284 284 283 283 283
289 288 288 290 293 291 291 290 292 292 292 294 294 293 292 289 292 292 293 294 294 295 297 297 296 297 297 295 293 292 289 289 289 289 288 288 288 287 286 285 284 284 284 283 283 283 282 283 283
289 288 287 289 292 290 288 289 290 293 293 294 296 297 294 291 291 292 292 292 293 296 296 296 297 297 296 293 290 289 289 288 287 287 286 286 286 286 285 284 284 284 284 282 282 282 281 280 282
287 292 292 290 287 284 288 284 288 290 291 292 296 295 292 291 292 292 292 291 293 296 297 297 296 293 292 292 290 288 287 285 285 285 286 285 285 285 285 284 284 284 283 282 282 282 281 280 279
290 293 291 289 286 284 284 283 285 289 289 292 296 295 290 291 292 291 291 292 293 296 296 295 293 292 292 291 290 288 285 285 285 285 284 283 283 284 284 284 283 283 283 282 281 281 281 281 280
293 290 289 286 284 280 285 284 289 289 292 292 292 289 289 289 291 291 291 292 292 294 293 292 292 291 292 290 289 287 285 284 283 282 282 282 282 282 282 282 281 281 281 281 280 279 279 278 278
290 287 280 278 277 280 284 283 289 291 293 293 293 287 287 290 290 289 289 289 291 293 292 292 292 290 289 289 287 286 285 284 282 282 281 281 281 280 280 280 280 280 280 280 279 278 277 277 276
287 288 282 274 275 278 283 280 286 291 291 290 291 288 287 288 289 288 288 288 289 291 291 291 289 288 288 287 286 286 285 283 282 282 282 281 281 280 280 279 279 279 278 278 277 277 276 276 275
286 285 291 284 275 276 282 285 291 291 288 287 286 286 286 287 287 287 287 287 287 287 289 289 288 287 287 287 286 286 284 283 282 281 281 281 280 280 279 278 277 277 277 277 276 275 274 274 275
289 291 283 285 276 275 279 281 286 289 289 287 285 284 284 284 285 284 285 286 286 287 286 288 288 287 287 286 286 284 283 282 281 281 280 279 279 279 278 277 276 276 276 275 275 274 274 274 274
287 286 287 288 284 277 274 281 288 289 289 288 286 286 284 284 284 284 284 284 285 285 286 287 287 286 285 286 284 282 281 281 281 279 279 278 278 277 277 277 276 275 275 274 274 273 273 273 273
292 290 290 284 280 281 280 284 288 287 288 288 287 286 284 284 283 283 283 283 282 284 285 285 285 285 285 284 282 281 280 280 279 278 278 278 277 277 276 276 275 275 274 274 273 273 273 273 272

GFSSGP_sfc_thetae_087.txt.gz
Theta_e
318 311 308 306 297 292 288 290 294 293 293 297 301 300 299 302 300 294 314 326 341 342 346 348 349 351 352 352 352 351 348 348 345 344 343 341 340 338 336 335 335 336 337 338 338 338 340 340 339
315 312 308 298 292 286 287 291 292 293 298 300 299 299 302 302 310 316 319 334 343 345 347 347 346 350 352 351 351 350 349 348 346 343 342 340 339 337 335 334 334 335 336 336 336 337 338 336 337
312 307 302 294 287 286 287 290 292 295 299 297 298 303 303 304 308 313 322 340 344 344 346 345 346 350 351 351 351 349 348 347 346 342 341 339 338 336 334 332 331 332 333 334 335 336 335 332 334
306 303 298 290 287 288 290 293 294 295 295 299 301 300 308 314 311 318 331 341 341 344 344 343 347 349 351 351 350 349 348 346 345 342 339 338 337 335 332 330 329 328 329 329 329 329 329 328 329
300 296 291 287 287 290 290 294 295 294 293 295 297 299 305 314 320 322 333 339 338 342 343 342 345 347 349 349 349 348 347 346 345 341 339 337 335 334 333 331 327 325 324 323 322 322 323 324 323
297 293 288 286 287 289 292 294 294 293 294 297 299 299 304 308 316 320 331 335 337 340 342 343 338 341 344 346 346 347 346 345 344 341 338 337 336 335 334 332 330 326 324 323 322 320 321 320 320
294 289 286 286 287 289 293 295 293 293 292 294 301 297 302 307 316 324 327 332 334 340 340 342 340 339 337 340 341 343 344 343 342 341 340 338 336 336 335 334 331 329 328 326 325 323 320 319 318
294 290 286 286 288 289 294 294 294 294 292 297 297 296 301 306 319 323 319 319 319 324 336 340 340 340 338 337 334 336 339 339 339 338 335 333 332 332 332 330 331 330 329 327 325 324 323 322 319
294 287 284 287 289 291 293 294 294 295 295 295 296 298 299 306 321 317 315 312 311 311 314 327 336 338 337 337 333 332 334 334 333 332 328 328 330 329 328 327 330 329 329 327 325 323 321 319 319
292 286 289 291 290 291 293 293 295 294 293 292 294 297 300 310 317 316 314 310 306 306 308 311 326 336 336 338 336 337 336 337 334 331 329 329 328 327 325 321 323 325 326 325 324 322 318 313 309
290 289 291 291 294 294 294 293 294 292 290 294 295 297 299 302 312 315 311 307 304 304 308 312 315 320 334 333 332 336 337 335 332 330 329 326 324 323 321 320 319 317 316 315 312 310 309 309 309
292 292 293 295 296 294 293 294 293 293 294 296 297 298 298 300 306 307 304 302 304 305 306 310 313 324 329 329 334 332 332 333 330 329 327 323 323 320 319 316 313 313 313 312 308 305 303 303 303
292 292 294 295 296 294 295 294 294 294 294 295 297 298 298 298 299 299 301 302 303 304 305 311 315 323 324 322 322 322 322 324 329 328 326 325 322 317 315 314 312 310 308 306 300 298 297 298 299
292 294 294 295 295 295 294 292 294 294 295 295 296 296 296 297 298 298 300 301 302 304 303 309 316 320 319 316 315 314 315 315 317 322 324 322 319 315 311 308 306 304 300 296 293 292 293 295 298
293 291 293 294 293 294 295 292 292 294 294 294 294 294 295 296 297 298 300 300 301 302 304 307 309 314 313 311 310 310 311 312 312 312 315 317 315 310 304 300 297 298 295 291 290 289 290 293 296
290 289 287 292 293 293 294 289 294 293 293 293 293 292 293 294 295 297 299 299 300 300 302 307 309 308 308 307 307 307 307 307 306 307 306 304 304 302 298 296 294 294 291 291 288 287 288 289 292
287 284 285 290 294 292 290 290 292 292 292 292 291 291 292 292 293 295 297 298 299 299 299 300 303 304 303 302 302 301 301 300 300 300 299 299 298 297 295 292 291 290 289 289 287 285 285 288 290
284 284 286 288 291 290 289 290 293 292 292 292 291 290 291 292 294 295 296 297 297 296 296 300 300 301 300 298 297 296 295 295 296 296 295 294 293 292 291 290 290 290 288 286 284 284 284 284 287
289 286 286 289 292 289 289 290 294 293 291 290 291 291 292 292 292 295 295 295 295 293 295 298 298 298 297 296 295 295 291 291 291 291 291 291 290 289 289 288 287 287 285 283 283 282 282 282 282
288 286 286 289 292 291 290 290 291 292 291 294 294 293 293 291 291 293 293 293 293 296 297 297 297 297 298 298 294 293 292 290 289 289 289 289 288 288 287 286 285 283 283 282 282 282 281 281 281
287 286 286 288 290 289 288 288 289 292 293 294 295 298 295 293 291 292 292 294 292 296 297 297 296 296 296 293 291 289 289 288 287 287 286 287 287 286 286 284 283 283 283 281 281 280 280 279 280
285 290 290 288 286 283 287 283 288 290 291 291 294 296 293 291 292 293 293 293 293 297 297 297 297 296 293 292 290 290 288 286 286 286 286 285 286 285 285 284 283 282 282 281 281 281 280 279 278
288 291 289 287 285 282 281 282 285 288 288 291 295 294 291 290 292 292 293 294 294 297 297 297 296 293 292 291 291 290 288 286 285 285 284 284 284 285 284 283 282 281 281 280 280 280 280 280 279
292 289 287 285 283 280 285 284 289 287 289 291 291 291 290 289 290 292 293 294 294 297 297 295 292 291 291 291 290 288 285 284 283 283 283 283 283 283 281 281 281 281 280 279 279 279 278 278 278
290 287 280 278 277 279 283 282 289 291 293 292 292 290 289 287 289 289 289 291 293 295 294 293 292 290 290 289 287 286 285 285 284 283 282 282 281 280 279 280 280 280 279 278 278 277 277 277 276
287 287 281 274 275 278 282 280 286 290 292 291 290 288 286 287 288 288 290 290 292 293 292 292 291 290 289 288 286 286 286 285 284 283 283 282 280 280 279 278 278 278 278 277 277 277 277 276 275
286 284 290 282 271 276 281 284 289 291 290 291 287 285 285 286 286 287 288 290 291 292 291 292 290 289 288 287 286 285 285 284 283 282 282 280 279 279 278 278 277 277 277 276 276 276 275 275 275
288 291 284 284 275 275 279 280 284 288 290 289 287 285 284 285 285 285 286 287 288 290 292 291 290 288 287 287 286 285 284 284 283 282 279 279 278 278 277 277 276 276 276 276 275 275 275 274 274
286 284 286 288 283 275 273 281 287 289 289 288 288 287 284 283 284 284 284 284 285 284 289 289 288 287 286 286 286 284 283 283 282 280 278 278 278 277 277 276 276 276 275 275 274 274 274 274 273
289 288 290 284 279 281 279 284 288 288 287 288 288 286 284 284 283 282 282 283 283 283 284 286 287 286 286 286 285 283 282 281 280 278 277 278 277 277 277 276 276 275 275 274 274 274 274 273 272

GFSSGP_sfc_thetae_090.txt.gz
Theta_e
316 309 308 304 297 291 287 289 292 291 292 298 299 297 297 300 298 293 313 327 338 339 344 345 349 350 351 351 351 349 349 347 345 342 341 340 338 337 336 337 337 337 338 338 340 340 339 340 340
312 310 305 297 291 285 287 289 291 292 298 300 299 298 301 300 309 314 320 329 340 342 345 345 345 348 351 351 349 348 348 347 343 342 340 339 337 336 335 335 335 336 336 336 340 337 338 338 338
310 306 302 293 286 286 286 289 292 294 299 295 299 303 302 303 309 314 319 335 342 342 344 344 345 350 351 351 349 348 346 347 343 341 339 338 336 333 332 332 332 333 334 335 336 334 335 335 336
305 302 296 290 287 288 291 291 294 295 295 298 300 300 305 313 311 316 334 340 340 341 343 343 347 350 351 350 349 348 347 346 343 340 339 336 335 332 330 329 328 328 328 330 331 331 329 330 332
298 296 291 287 287 290 289 292 294 293 292 294 296 298 303 312 317 322 335 339 338 340 342 342 345 347 349 349 348 347 346 346 342 339 337 336 334 333 330 327 325 324 324 324 325 326 325 325 327
296 293 288 285 287 290 293 293 294 292 293 296 299 302 304 308 314 321 334 335 338 341 342 342 338 340 343 345 346 346 345 344 341 339 337 336 336 334 333 330 329 328 327 325 323 322 321 321 321
293 289 286 286 286 289 292 294 292 292 293 295 301 298 302 306 316 322 330 330 333 339 341 342 340 338 337 340 340 342 343 342 341 340 338 336 336 335 333 332 331 330 329 328 326 323 321 319 318
292 290 286 285 287 288 293 293 293 293 292 297 297 296 300 309 320 322 325 323 323 330 338 339 337 338 340 339 334 336 338 339 338 337 334 332 332 332 330 329 331 330 328 327 326 325 324 320 318
291 286 284 285 288 290 292 292 293 293 294 293 295 298 300 310 318 316 315 314 316 316 320 334 338 338 338 337 334 333 334 334 333 332 328 327 328 326 325 327 330 329 327 326 325 323 320 319 318
289 284 286 289 288 292 292 292 294 293 292 292 294 296 300 315 315 316 316 315 312 311 311 318 334 333 336 338 335 337 336 336 334 331 329 329 328 327 322 319 322 323 324 324 323 321 317 312 307
289 287 289 289 292 293 292 291 294 292 290 294 295 296 300 311 314 316 315 313 312 306 309 312 317 328 336 334 332 336 336 334 331 329 329 326 325 322 320 319 316 313 313 309 309 307 306 306 307
290 291 291 293 294 293 291 293 291 292 294 294 296 298 298 308 313 314 312 307 305 306 307 310 312 325 331 333 332 333 335 332 329 328 326 324 322 320 318 315 312 311 309 304 301 300 300 300 302
292 290 293 294 294 292 294 293 293 292 294 295 294 298 298 301 307 305 307 304 304 305 306 309 312 325 325 326 327 328 328 329 329 327 325 324 320 316 314 310 308 307 302 298 296 297 299 300 303
290 292 292 294 294 293 293 291 292 294 294 294 295 296 297 299 302 299 301 302 303 304 305 309 318 322 321 319 318 317 319 321 325 326 324 322 318 314 309 306 304 299 296 292 292 295 298 298 299
292 291 292 293 292 293 293 292 291 292 293 294 294 294 295 296 298 300 301 301 302 302 304 307 311 315 315 313 312 312 314 315 315 317 319 318 315 310 304 301 297 294 292 290 291 293 296 296 297
290 289 286 290 292 292 293 288 293 292 293 293 292 292 293 295 296 297 299 300 300 301 303 305 309 308 309 308 308 308 307 308 308 307 308 308 306 303 299 296 293 292 291 289 291 291 293 293 293
286 283 284 289 292 290 290 289 291 290 291 292 291 292 292 292 293 294 297 298 299 300 300 304 304 306 305 303 302 302 301 301 302 302 303 302 300 299 296 294 293 291 290 290 291 287 292 292 290
283 282 284 285 289 289 288 289 292 291 291 292 291 291 291 292 295 294 296 297 297 297 298 301 303 303 301 299 298 297 297 296 298 298 297 297 297 295 294 292 291 290 288 288 288 288 285 286 288
287 285 285 287 291 288 288 288 293 293 290 291 291 291 292 293 296 294 295 295 295 294 295 298 300 299 299 298 297 296 292 292 292 293 294 294 293 292 290 289 288 288 287 286 285 284 285 282 282
287 285 285 289 291 289 289 289 292 294 291 293 295 295 294 293 290 292 293 294 297 296 296 299 297 297 299 299 296 294 293 290 289 290 289 289 289 289 288 287 286 286 285 284 282 282 280 280 280
285 285 285 287 288 288 286 286 288 291 293 294 294 297 297 293 289 291 292 295 297 295 296 298 298 299 299 294 292 290 289 289 288 287 287 287 287 287 286 286 285 284 284 281 280 280 280 279 279
284 289 288 287 285 282 286 282 287 290 291 290 294 295 292 291 290 292 293 294 295 297 298 298 298 297 294 294 292 292 292 289 287 286 286 286 286 286 286 285 284 283 281 280 280 280 280 279 279
287 289 288 286 284 281 281 281 284 287 287 291 294 293 292 290 290 291 293 294 296 298 298 297 297 294 292 291 293 293 291 287 286 285 285 285 285 285 285 284 283 281 281 279 279 279 279 279 279
291 288 287 284 283 279 283 284 290 286 289 290 291 291 291 289 288 290 291 293 295 295 298 297 295 292 292 291 292 291 286 285 284 284 283 283 284 283 283 282 281 280 279 278 278 278 278 278 278
287 286 280 278 277 279 281 281 290 291 291 290 292 290 290 288 287 288 289 293 294 296 296 295 293 290 291 291 289 288 287 286 285 284 283 282 282 281 281 281 280 279 278 278 278 278 277 277 277
286 286 281 274 275 278 282 279 285 290 291 291 289 288 287 285 287 287 288 292 295 296 295 293 292 290 290 288 287 287 287 286 285 285 284 283 282 281 281 280 278 277 277 277 277 276 276 276 276
285 283 289 282 270 275 280 283 289 290 290 290 290 287 287 285 286 287 288 290 293 294 293 293 291 290 288 287 286 286 286 285 284 284 283 282 281 280 279 278 277 276 276 276 276 276 275 275 276
288 290 283 282 275 274 278 280 285 287 288 289 288 288 286 284 285 286 286 288 289 291 291 292 291 290 288 287 287 286 285 285 284 283 281 280 280 279 277 276 276 276 275 275 275 275 275 275 275
286 285 286 287 282 275 272 281 286 288 289 289 288 288 286 285 285 284 285 286 288 288 290 290 290 288 287 287 286 285 284 284 283 282 281 280 279 278 276 276 276 276 275 275 275 275 275 275 275
288 287 288 284 279 280 279 283 289 289 288 288 288 287 284 284 284 283 283 283 283 285 286 288 288 288 287 287 285 284 283 282 282 280 280 279 278 278 276 276 276 275 275 275 275 275 275 274 274

GFSSGP_sfc_thetae_093.txt.gz
Theta_e
319 312 312 308 301 297 293 295 296 298 298 302 301 300 301 304 301 298 318 330 338 341 345 348 350 351 351 350 350 349 348 346 343 342 341 339 338 338 339 338 339 338 339 341 337 342 341 338 338
314 312 309 302 296 291 292 294 295 297 303 304 303 304 305 305 313 319 327 334 341 344 346 347 346 350 351 351 350 349 348 345 342 341 340 337 336 336 336 336 336 336 338 336 339 340 340 336 336
311 307 305 296 291 291 291 295 297 299 302 300 304 307 307 308 315 321 324 336 343 345 346 346 345 349 351 350 349 348 347 345 341 340 338 336 334 334 333 333 334 335 336 336 337 337 337 334 333
308 306 299 295 293 294 295 297 298 300 301 301 305 304 310 317 315 320 334 342 343 345 346 344 347 350 350 349 348 347 346 344 341 339 337 335 332 331 330 329 329 330 333 334 333 333 334 330 328
300 300 294 291 293 294 294 297 297 298 299 301 302 302 307 317 320 329 336 342 341 344 345 346 345 348 349 348 347 346 346 344 340 338 336 335 332 330 328 326 326 326 327 328 328 328 327 324 322
298 297 291 290 291 294 296 297 297 297 298 301 303 304 307 314 318 327 339 341 343 343 344 345 339 342 345 347 346 345 345 343 340 338 337 336 334 332 330 331 330 328 325 324 324 323 322 321 319
297 293 291 290 290 293 296 296 296 296 297 300 305 301 307 312 320 327 337 338 341 343 343 343 343 340 336 339 340 341 342 341 340 339 338 337 335 334 333 332 331 330 329 327 324 321 320 319 318
294 293 289 288 290 292 295 296 297 296 297 302 304 301 304 314 323 328 333 332 333 335 341 341 342 342 343 342 334 336 338 338 338 336 333 332 331 331 331 329 331 330 329 328 326 323 321 318 316
295 289 287 289 289 293 295 295 296 298 298 299 300 302 306 314 322 324 324 324 325 323 330 339 340 341 342 340 336 333 333 333 333 331 327 327 330 329 329 327 329 328 327 326 324 323 321 318 315
291 287 288 291 291 293 295 295 296 296 297 297 299 300 304 319 320 322 324 325 324 322 319 331 339 339 340 338 339 339 338 336 335 332 331 330 329 326 324 321 321 321 323 323 322 320 316 312 311
292 289 290 292 294 295 295 294 296 295 294 297 298 299 303 317 318 321 324 324 322 319 316 320 327 335 338 337 337 340 337 337 334 331 330 328 325 322 321 320 319 316 312 313 312 313 313 312 310
290 292 292 295 295 294 294 295 294 294 298 298 298 300 304 315 317 319 321 318 315 314 315 316 319 329 335 336 337 336 335 334 333 330 328 326 323 320 319 317 316 314 311 308 307 308 309 309 307
292 292 294 295 294 293 295 295 295 294 296 298 297 299 302 311 317 316 317 314 312 312 313 315 317 328 330 334 333 335 333 331 331 330 328 325 322 318 315 313 313 308 305 304 305 307 307 304 303
292 293 294 295 295 295 294 293 294 295 296 297 296 297 300 304 313 309 310 310 308 310 311 313 319 326 326 325 326 326 327 329 328 327 326 324 320 315 311 309 305 301 299 300 304 306 303 302 300
293 291 293 294 293 294 295 292 293 295 295 296 296 296 297 300 304 311 313 310 308 308 309 311 316 320 321 318 316 316 317 319 326 325 323 320 317 312 308 302 298 296 296 301 302 302 301 299 296
290 290 287 291 293 293 294 289 294 294 294 295 295 295 295 297 300 302 305 306 305 306 307 310 313 314 314 314 312 311 311 311 312 315 317 315 311 308 302 298 296 294 295 299 300 300 298 296 294
287 283 285 289 293 292 292 290 294 294 293 294 294 294 295 295 296 298 301 303 303 304 306 307 309 310 309 308 306 305 304 305 303 307 308 305 303 301 299 295 294 294 295 297 297 298 297 293 291
284 284 285 286 290 290 289 290 293 293 293 294 294 294 294 295 297 298 298 300 301 302 304 306 306 306 305 303 301 300 300 299 300 300 301 302 300 298 297 294 293 293 292 292 295 295 294 292 290
286 285 285 288 291 290 289 289 293 294 292 293 295 295 295 295 299 296 297 299 299 300 301 306 304 302 302 302 299 299 296 294 294 297 298 298 297 296 294 293 291 291 292 293 293 293 291 288 290
287 286 286 289 290 290 289 288 291 294 293 295 298 298 297 296 293 294 296 297 298 299 300 303 303 301 302 303 298 297 294 291 291 291 292 295 294 293 291 290 289 291 289 289 291 292 287 286 286
286 286 285 287 289 288 287 286 288 292 294 296 295 298 297 295 292 293 294 296 298 299 299 300 301 301 302 296 293 291 291 291 289 289 289 289 289 289 289 287 287 288 290 289 288 290 289 285 283
284 289 288 287 286 282 287 282 287 291 292 292 296 294 294 294 293 293 294 295 297 299 298 300 300 300 297 296 294 295 294 292 289 288 287 287 288 287 287 286 286 285 285 285 285 285 286 286 282
287 289 287 286 285 283 283 282 286 288 289 293 295 294 294 293 292 292 293 295 297 299 298 299 300 298 296 297 296 297 294 289 288 287 286 286 286 286 285 285 285 284 285 283 284 284 284 285 284
290 288 287 285 283 279 284 285 287 288 290 292 293 293 293 293 292 291 293 294 296 299 298 298 297 295 295 295 295 295 289 288 286 285 285 285 285 284 285 284 283 283 283 282 282 282 283 282 282
288 287 281 279 277 280 282 282 289 292 292 292 293 292 292 291 290 290 291 293 295 296 297 297 295 293 293 294 293 292 289 288 287 286 285 283 283 282 282 282 281 281 281 281 281 281 280 281 280
286 287 282 275 276 280 282 280 286 290 291 291 291 291 291 290 289 289 290 293 294 295 297 297 294 292 293 292 290 290 289 287 286 286 285 284 283 282 282 281 281 280 280 280 280 280 280 280 279
286 284 289 282 270 276 282 284 289 291 291 291 291 290 290 289 288 288 289 292 295 296 296 295 293 292 292 290 289 288 288 287 286 285 285 283 283 281 281 280 279 279 279 279 279 279 278 279 279
288 290 284 283 277 275 280 280 285 289 289 290 289 289 289 287 287 287 288 290 293 295 295 293 292 291 290 289 288 287 287 286 285 284 282 282 281 280 280 279 278 278 278 278 278 278 278 278 278
285 285 285 286 283 277 274 282 287 290 290 290 289 290 289 287 287 287 287 289 290 290 291 291 291 290 288 288 287 286 286 285 284 283 282 281 280 279 278 278 278 277 277 277 278 277 277 277 277
288 288 288 284 279 280 279 284 289 289 290 290 290 289 288 287 287 286 286 287 288 289 290 290 290 288 288 288 287 285 285 284 283 282 282 281 280 279 278 278 278 277 277 277 277 277 277 276 276

GFSSGP_sfc_thetae_096.txt.gz
Theta_e
325 321 324 320 309 308 301 300 304 302 303 307 307 307 307 308 305 304 326 340 343 344 346 347 348 350 350 351 349 348 347 343 342 341 339 339 339 339 339 338 340 341 337 343 342 341 338 337 335
321 318 321 316 305 300 299 302 301 304 308 310 309 310 309 308 318 324 330 338 343 344 346 347 346 349 351 350 350 348 346 342 341 339 338 338 337 337 337 337 338 339 338 342 341 339 336 335 334
317 315 314 310 305 300 300 302 304 306 309 306 308 312 311 310 320 328 334 341 344 344 346 347 346 349 350 350 349 347 346 342 340 338 336 335 335 335 335 336 336 336 337 339 340 336 334 333 333
318 316 311 304 300 301 302 304 305 306 307 306 309 307 315 321 324 327 335 344 344 344 346 344 347 350 350 349 348 347 345 342 339 337 335 333 332 331 331 332 334 335 335 335 335 331 328 329 330
315 314 304 301 300 301 303 304 306 306 306 306 309 306 310 321 325 331 336 343 343 344 346 347 346 348 349 348 346 346 344 341 338 336 334 332 330 328 328 328 329 330 330 330 329 326 323 323 326
310 310 300 298 299 301 303 305 306 307 304 306 307 308 311 323 324 336 339 341 344 344 346 346 340 342 344 345 345 344 344 341 338 337 335 333 331 331 331 328 327 326 326 326 325 323 321 321 323
307 305 300 300 299 299 303 306 305 306 305 306 310 306 312 320 327 338 341 342 344 344 345 345 345 342 337 340 341 342 342 340 339 339 338 335 335 335 333 333 330 328 326 324 322 321 320 320 321
308 307 298 299 298 299 303 304 304 306 305 308 312 305 307 319 329 339 341 342 343 343 344 344 344 344 344 346 334 337 338 338 338 336 333 331 331 331 331 329 331 330 328 325 322 320 319 320 321
303 302 298 298 298 301 302 302 302 304 304 307 309 308 313 324 330 336 337 338 339 340 343 344 344 344 344 345 339 333 333 333 332 331 327 326 331 331 331 327 328 328 327 326 324 321 319 319 319
303 299 298 300 301 301 302 303 303 303 303 304 306 308 309 324 328 331 331 331 334 335 338 343 344 344 344 342 341 342 341 338 335 333 330 330 331 332 329 323 323 325 324 322 321 318 316 318 319
300 298 298 299 300 301 302 301 304 303 302 306 306 309 309 322 326 327 331 330 332 335 335 337 341 343 344 342 343 344 342 339 336 333 332 329 325 326 325 325 323 322 318 320 319 318 317 317 317
298 299 299 300 301 301 301 302 301 303 306 306 309 307 309 318 323 325 328 331 333 333 332 333 338 342 344 343 343 343 339 341 336 335 331 328 325 324 322 323 321 321 320 318 318 316 315 314 313
300 299 300 301 300 301 300 301 302 302 307 306 305 304 308 313 321 325 328 333 333 330 329 329 332 340 342 342 342 340 335 337 338 335 331 328 325 321 320 320 318 311 313 314 316 313 312 310 307
300 300 300 301 301 301 300 301 300 303 304 304 304 305 307 310 318 324 326 329 331 331 328 327 328 336 337 339 341 340 335 335 334 332 331 331 325 321 322 314 313 307 308 309 312 311 309 305 300
300 298 300 301 300 300 301 299 299 305 303 303 304 305 305 307 313 321 325 326 329 329 327 324 327 332 331 331 333 335 333 332 331 330 330 328 323 318 317 310 309 302 303 306 307 308 306 300 296
298 299 295 298 299 299 300 296 302 302 302 303 305 306 305 306 308 315 323 326 327 325 322 322 321 324 325 324 323 321 320 320 321 327 325 323 319 316 309 303 304 301 303 303 303 306 302 298 295
297 293 294 296 299 298 299 298 302 301 301 303 305 306 305 306 306 309 316 322 323 323 320 319 320 321 318 317 315 313 311 310 308 311 317 317 313 309 309 301 298 302 302 302 303 300 299 296 293
293 292 293 294 297 296 297 297 302 303 301 304 306 306 306 306 306 308 309 314 320 320 319 319 318 319 315 311 309 307 305 304 306 304 304 307 307 305 304 297 296 302 300 298 298 296 295 293 292
294 293 293 296 297 296 297 297 299 303 303 302 304 305 306 307 309 308 307 309 312 315 314 315 315 315 314 308 306 306 304 301 301 305 301 301 301 301 300 296 297 302 297 297 295 294 292 290 292
294 293 293 296 296 295 296 295 299 301 302 304 305 306 307 308 306 304 305 306 308 311 312 313 313 312 313 313 310 305 301 298 297 298 302 300 299 297 297 295 295 295 295 294 293 292 291 291 294
293 292 293 292 295 295 293 294 297 300 301 303 304 305 306 307 305 304 303 304 307 308 309 310 312 311 312 313 306 300 294 293 293 293 293 297 295 296 294 294 293 293 295 293 294 293 291 290 292
290 295 294 292 292 289 294 287 296 300 301 301 304 305 305 305 305 304 303 303 305 307 309 309 310 309 310 307 306 303 301 298 299 295 294 292 292 291 291 290 291 291 293 294 293 293 296 294 290
293 295 294 293 292 290 292 289 295 297 297 301 305 305 303 303 302 302 301 303 304 306 306 308 309 307 304 303 303 303 302 301 298 296 293 290 290 289 289 288 288 289 290 291 291 290 292 295 292
294 293 292 291 291 286 292 291 293 297 299 302 303 301 301 301 300 299 299 301 302 305 304 307 307 306 302 301 300 301 302 296 295 294 290 288 287 287 286 286 287 288 286 288 289 289 291 293 292
294 293 287 286 284 285 290 289 294 299 300 301 301 301 302 300 299 298 298 299 301 302 303 304 305 303 304 304 302 301 298 296 295 292 293 290 287 285 285 285 284 286 284 285 287 288 287 289 289
291 294 289 284 284 288 287 286 294 300 302 301 300 300 300 300 298 297 298 299 300 300 301 303 303 302 302 301 300 298 295 294 294 294 293 289 289 288 285 283 283 282 283 283 283 285 285 287 287
292 288 296 290 282 285 291 295 297 299 299 299 299 299 300 298 296 296 296 298 299 299 300 302 302 301 301 299 296 294 293 293 292 289 288 287 286 283 282 282 281 282 284 283 284 283 283 285 285
295 297 288 290 284 283 289 290 292 296 297 298 298 300 298 296 296 296 296 297 299 299 300 301 301 300 300 298 295 293 292 291 290 288 286 284 283 282 281 280 280 280 280 282 283 283 283 283 283
291 290 290 292 290 286 285 290 297 299 298 298 298 298 298 296 296 296 296 297 298 300 300 300 299 299 298 296 295 292 291 289 287 287 285 284 282 281 280 279 279 279 280 281 281 281 282 281 281
294 293 293 288 285 287 286 290 296 297 299 299 298 297 297 297 297 296 296 296 296 297 299 298 298 297 296 295 293 291 290 287 286 285 284 283 282 281 279 279 279 279 279 280 280 279 281 280 279

GFSSGP_sfc_thetae_099.txt.gz
Theta_e
328 323 323 320 309 307 301 302 306 304 305 309 310 309 308 310 308 306 329 341 343 344 345 345 349 350 349 349 348 347 343 342 341 340 340 340 339 339 339 341 341 342 342 342 339 338 336 335 335
322 320 321 315 305 299 300 304 302 306 310 311 310 310 309 310 319 324 331 342 344 344 345 345 346 349 349 349 348 347 345 341 340 339 339 338 338 337 338 339 338 341 342 340 338 336 335 334 334
321 318 314 309 305 301 300 303 306 308 310 309 309 313 312 311 321 326 337 342 343 344 345 346 346 349 349 348 348 346 344 340 338 337 337 337 337 337 337 337 337 339 340 338 335 334 333 333 333
319 316 313 304 301 303 304 306 307 308 308 309 310 308 315 322 324 330 339 342 342 344 345 344 347 348 348 348 347 345 343 339 337 336 335 334 333 334 336 336 336 335 337 334 331 330 331 331 332
318 314 304 302 302 304 306 307 308 307 307 308 310 307 310 322 327 331 339 342 341 342 344 347 346 347 348 347 347 345 343 339 336 334 333 331 330 330 332 333 333 333 332 329 326 326 327 329 329
309 311 301 299 302 304 306 308 308 308 307 308 308 307 311 324 325 331 335 340 342 341 344 345 340 342 345 346 345 344 342 339 337 334 332 331 330 329 328 329 328 328 328 326 324 323 325 326 327
309 305 301 302 302 302 305 309 307 307 307 306 311 306 314 320 325 334 334 338 341 342 342 344 345 342 337 340 341 342 341 339 338 337 336 335 335 334 332 331 328 326 325 323 322 321 323 325 325
310 307 302 302 300 301 306 308 309 308 306 311 313 306 308 319 326 334 334 336 339 340 341 342 343 342 344 343 335 336 337 337 338 336 333 331 331 331 330 329 330 326 324 323 321 322 323 324 324
309 302 299 300 301 302 307 305 307 309 307 308 312 311 317 323 328 333 333 334 336 337 340 341 340 341 342 343 338 333 332 333 332 330 327 326 329 329 330 327 329 328 326 323 322 322 323 322 321
305 302 302 304 305 303 305 306 306 305 305 306 308 312 315 325 326 329 329 330 332 336 338 341 342 342 342 341 342 341 338 337 335 332 328 332 331 332 328 322 324 324 323 322 320 319 321 320 317
303 300 302 301 303 304 305 304 307 305 304 307 307 310 311 322 324 326 328 329 331 334 337 339 341 342 343 342 342 343 340 336 335 332 332 330 326 326 326 324 323 321 318 318 319 318 318 319 316
299 302 302 302 303 303 302 306 304 305 307 309 311 311 312 317 321 323 326 327 330 332 334 338 340 340 342 343 341 343 341 339 334 333 333 328 326 326 324 325 324 323 322 321 319 317 316 314 313
301 301 302 303 302 303 303 303 304 305 309 310 308 308 310 312 318 323 325 329 329 330 333 335 338 339 341 341 341 341 341 339 336 334 333 328 326 324 324 322 322 319 320 319 316 314 312 310 307
303 302 302 303 303 303 301 302 302 305 308 308 308 307 309 310 313 319 323 325 329 331 332 334 335 338 339 340 340 340 337 338 339 336 332 328 327 325 321 321 314 312 316 314 312 311 308 304 302
302 299 302 302 303 302 303 300 300 306 306 305 306 307 308 309 311 315 321 324 328 331 332 332 333 336 338 339 340 339 334 335 336 336 333 329 327 324 320 315 312 308 312 310 309 306 303 299 297
300 300 296 302 302 302 302 296 304 306 306 305 307 308 308 309 309 313 319 325 328 331 331 332 330 333 336 336 337 333 330 331 331 332 331 330 326 321 315 312 309 308 309 309 308 302 298 296 296
299 293 296 298 302 301 300 298 304 305 305 305 308 309 309 309 310 311 315 323 326 329 331 330 328 329 330 330 326 323 322 319 318 322 326 324 321 318 311 308 305 308 305 305 304 301 297 293 292
294 294 296 296 299 299 299 298 302 305 305 305 306 307 308 309 310 311 312 317 325 328 329 328 327 328 324 319 316 312 310 309 310 310 312 316 315 311 307 304 302 305 306 303 301 297 295 292 290
297 296 294 297 300 297 297 298 300 304 304 304 305 306 307 308 312 313 312 314 320 325 326 326 325 326 320 312 310 309 308 305 305 307 307 305 306 305 302 300 302 302 302 300 298 295 291 289 290
296 294 294 297 300 297 297 297 301 303 303 304 305 306 307 309 310 312 311 311 313 319 323 323 323 323 322 317 315 312 309 305 303 303 304 304 303 302 301 299 301 301 299 297 295 292 290 289 290
294 293 293 294 297 298 296 295 298 302 304 305 306 307 308 308 309 309 307 309 310 313 318 320 321 321 320 319 315 302 299 298 297 297 299 303 302 300 298 299 299 299 299 296 294 292 290 288 291
291 297 296 294 292 289 296 288 296 299 301 304 306 308 309 309 309 309 309 307 308 311 315 317 318 318 317 316 314 307 309 305 302 299 298 298 299 297 296 298 297 298 298 296 294 293 292 291 290
294 297 295 295 293 293 293 289 294 300 298 301 306 308 310 309 308 307 307 307 308 311 313 313 314 315 314 314 311 308 309 312 306 300 295 293 293 294 293 293 294 295 296 296 294 292 293 294 293
298 296 295 295 293 286 292 291 292 296 299 302 306 307 306 305 305 304 304 305 306 309 310 310 310 311 311 310 308 309 310 306 302 296 294 291 291 289 290 290 291 293 293 294 293 292 292 293 294
296 293 286 286 286 285 294 292 295 300 303 304 306 305 304 305 304 303 302 302 304 305 307 307 309 308 308 305 307 307 308 304 301 297 295 291 289 288 287 287 287 290 291 291 291 290 289 292 291
293 293 288 284 284 287 290 287 294 303 305 306 306 307 305 304 304 303 303 303 303 304 305 306 306 307 307 305 305 304 302 300 299 299 299 296 292 290 288 287 287 285 287 286 287 289 288 289 291
293 290 297 290 288 286 290 295 301 302 302 304 304 303 303 305 302 301 301 302 303 303 303 305 305 306 305 306 307 305 303 298 296 296 296 295 293 289 286 285 283 284 283 283 284 284 284 286 287
296 299 289 291 284 283 288 291 293 298 299 303 303 302 304 303 300 300 301 301 302 303 303 304 305 304 304 304 303 301 300 299 297 295 291 290 288 285 283 283 282 282 282 283 283 284 284 284 285
292 292 293 294 291 286 285 290 301 300 303 303 304 304 304 301 301 301 301 301 302 302 302 303 303 303 303 303 302 299 298 296 294 291 290 288 285 284 282 281 280 280 281 282 282 282 283 283 282
296 293 294 289 287 290 289 290 300 300 302 303 302 301 302 302 302 301 300 300 300 301 302 302 302 301 302 302 300 298 296 294 291 289 288 285 283 282 281 280 280 280 280 281 281 280 281 281 280

GFSSGP_sfc_thetae_105.txt.gz
Theta_e
321 314 313 309 299 297 289 293 295 297 297 298 303 302 304 306 307 302 322 338 340 341 346 347 348 349 348 346 344 344 344 342 341 340 340 342 341 343 344 342 343 339 337 337 337 337 338 338 338
315 316 310 303 294 289 289 292 295 297 301 302 303 302 303 306 316 317 329 340 340 342 346 347 345 348 348 346 344 342 343 341 340 340 339 341 340 344 344 341 340 337 336 336 336 337 337 337 337
315 314 303 298 292 289 289 294 298 300 302 301 300 303 305 308 315 321 332 339 340 340 345 345 345 348 348 346 344 344 343 341 339 339 339 340 339 341 342 339 337 336 335 335 335 336 336 336 339
310 305 300 293 290 294 293 297 299 297 300 302 302 302 310 315 319 331 336 340 338 339 343 343 346 348 347 346 345 343 342 340 338 338 338 339 338 338 339 337 334 333 333 334 334 334 335 334 335
306 301 294 292 291 293 296 300 301 299 299 298 301 301 307 318 331 333 334 337 337 339 342 344 345 347 346 346 344 342 341 339 337 336 336 337 337 336 336 333 331 330 330 331 332 333 332 332 333
299 299 291 288 291 294 296 300 300 299 300 299 298 302 307 319 328 331 333 337 341 340 342 343 339 341 343 344 343 341 340 339 336 334 334 334 334 333 333 331 328 327 328 329 330 330 331 331 332
299 294 290 291 292 294 298 300 298 297 299 299 302 299 307 313 323 331 332 338 341 341 342 341 342 340 337 339 339 339 338 337 335 335 335 334 333 332 331 330 327 326 327 328 328 329 330 329 329
299 297 292 291 292 292 296 298 299 299 296 302 302 299 304 312 322 327 330 336 339 341 341 340 340 340 340 338 333 334 335 335 334 335 332 330 330 329 328 327 327 326 327 327 328 328 327 327 325
300 292 289 291 293 293 297 297 299 300 300 299 303 307 310 316 324 322 321 329 333 337 339 340 339 339 338 337 332 330 331 331 331 329 326 324 324 324 323 324 326 326 325 326 325 325 323 321 319
295 289 292 293 293 293 297 297 298 296 296 296 301 307 314 321 321 319 318 322 328 330 336 339 339 339 338 338 332 331 331 331 330 328 326 325 324 323 323 321 323 324 324 325 323 322 319 315 310
294 292 294 295 297 297 297 295 298 296 293 298 299 305 313 315 319 319 319 321 327 330 335 337 337 338 337 336 334 333 331 329 328 327 327 326 323 321 318 317 314 314 314 313 314 311 310 309 309
292 296 296 299 298 297 295 297 295 297 298 300 301 306 312 313 316 319 320 321 323 329 332 335 336 336 338 338 336 334 332 329 327 326 323 322 322 320 318 316 313 311 311 310 308 306 305 304 304
293 294 296 298 297 295 297 294 295 295 299 298 302 305 311 313 314 316 321 321 322 327 330 333 334 335 336 335 335 334 333 329 326 325 323 324 322 320 319 316 314 312 311 309 306 306 302 300 300
296 296 295 297 297 296 294 293 295 296 298 298 300 302 305 310 313 313 315 319 320 325 329 332 333 336 336 335 334 334 333 329 327 325 324 325 323 321 320 317 314 314 311 310 303 299 296 294 295
297 292 293 295 296 295 296 292 294 297 297 297 297 298 300 304 309 312 316 316 320 323 328 329 332 332 335 334 334 334 333 330 328 325 325 323 323 321 315 313 310 310 310 304 299 295 293 291 291
291 290 286 292 296 296 293 286 294 297 296 296 296 295 297 299 301 307 310 314 316 320 323 328 331 328 333 333 334 333 333 333 331 329 326 323 323 321 315 312 310 310 308 300 297 293 291 291 290
288 283 286 290 295 295 292 287 296 297 295 295 294 296 297 297 298 300 303 311 315 319 322 326 327 327 327 327 331 333 332 332 332 330 326 324 322 319 313 310 309 309 305 300 296 293 292 290 289
284 284 286 286 293 292 290 290 294 296 295 296 295 296 297 298 299 301 301 304 313 317 322 325 326 325 324 322 319 318 321 320 326 328 326 324 320 316 312 308 308 308 304 298 295 293 292 290 288
287 286 284 288 294 291 290 290 292 295 293 293 293 295 296 297 299 301 301 302 309 315 320 323 322 322 321 318 316 314 314 311 312 316 321 322 319 315 309 307 308 307 304 299 295 292 290 288 288
288 286 285 289 293 291 289 290 292 294 295 295 296 295 295 295 297 300 300 300 308 315 320 321 322 321 320 318 312 313 310 307 307 308 310 312 314 311 308 306 306 306 303 298 293 291 289 288 289
287 286 285 287 289 289 288 286 289 292 294 296 297 297 297 297 297 298 298 299 304 312 316 321 321 319 317 314 306 303 303 302 302 303 303 305 307 307 306 306 305 305 303 297 293 291 289 287 288
285 290 290 288 285 281 287 279 286 291 292 294 296 295 296 296 298 298 299 298 301 307 313 316 319 317 315 311 310 309 308 305 304 302 302 302 303 303 303 304 305 304 302 298 294 292 291 289 287
288 291 289 288 284 283 283 280 284 288 289 292 293 297 295 297 298 298 298 299 300 303 307 313 315 316 314 311 311 312 310 310 304 302 301 300 300 301 301 302 302 302 302 299 296 292 291 290 289
294 291 290 287 285 279 283 283 281 285 290 291 294 294 296 295 296 297 298 299 299 300 302 307 310 310 311 310 306 307 306 306 301 300 299 298 297 296 297 299 300 301 300 298 295 294 292 291 291
291 285 278 278 277 277 284 281 286 290 293 295 295 296 296 296 295 296 296 296 298 300 302 304 306 305 306 305 303 302 303 300 299 296 297 295 293 291 293 295 296 297 299 298 296 293 292 292 292
288 286 280 273 276 278 283 280 286 293 295 298 296 297 296 296 296 296 296 296 297 299 300 302 302 302 303 302 301 300 300 298 297 295 292 292 292 293 293 293 294 295 296 296 295 294 293 292 292
288 285 289 282 275 276 281 285 291 294 296 297 295 296 296 295 295 296 296 296 297 298 299 300 300 301 301 301 300 299 298 297 295 294 292 291 290 290 288 291 290 291 291 292 293 292 291 292 292
290 292 284 283 275 273 278 280 284 290 292 295 293 294 293 294 294 294 295 296 296 297 298 299 299 300 300 299 299 298 297 296 295 294 292 291 289 287 287 288 288 288 289 290 291 290 290 289 289
288 286 288 287 284 277 275 278 289 291 291 291 293 294 294 293 293 293 294 295 296 296 297 297 298 299 298 298 298 297 296 294 293 292 292 291 287 286 286 285 285 285 286 287 288 288 287 288 285
290 289 289 282 279 282 281 283 292 293 293 293 292 294 293 294 293 293 294 294 295 295 295 296 297 297 297 297 297 295 294 292 291 289 289 287 286 284 284 283 283 283 283 284 285 284 285 284 283

GFSSGP_sfc_thetae_108.txt.gz
Theta_e
316 310 310 308 299 295 288 291 292 295 295 297 301 303 304 306 305 298 321 336 339 341 344 346 348 347 347 345 345 344 344 341 341 342 341 341 345 343 340 338 337 337 337 337 339 338 339 339 338
313 313 308 300 293 287 287 292 293 295 299 300 302 302 304 307 313 323 329 337 340 342 345 346 344 346 346 345 345 344 343 341 340 340 340 344 344 342 340 337 336 336 336 337 338 338 338 337 338
313 310 302 296 290 287 288 292 296 297 299 299 298 303 306 308 313 325 334 338 341 342 344 344 344 347 346 344 344 343 343 341 339 340 340 342 343 341 338 336 335 335 335 337 337 339 337 337 336
308 303 298 292 289 291 294 296 297 296 297 300 301 303 308 315 321 328 337 339 340 342 343 342 345 347 345 345 344 343 342 339 339 339 339 339 340 339 336 334 333 333 334 336 335 335 337 337 337
303 298 292 289 289 292 293 297 297 296 296 296 301 300 308 321 324 335 336 337 337 340 342 343 344 345 345 344 343 342 341 339 338 338 338 337 337 335 333 331 331 332 332 334 334 334 334 334 333
298 296 289 287 289 293 294 298 298 296 297 297 299 304 308 320 328 331 335 335 339 339 341 343 338 340 342 343 342 341 340 339 337 337 336 335 335 333 331 329 329 330 331 332 333 333 333 333 331
298 292 289 289 290 293 297 297 297 296 297 298 301 302 307 315 327 330 335 338 339 339 340 341 341 339 336 338 338 338 338 337 336 337 336 335 334 333 330 329 329 329 330 331 331 331 330 330 328
298 295 289 290 291 292 295 296 297 297 297 300 303 302 304 313 324 329 335 337 338 339 340 339 339 339 338 336 332 333 335 334 334 333 331 329 329 329 328 326 328 328 329 330 329 329 328 327 325
298 291 288 290 291 292 295 295 296 298 299 298 301 304 307 316 323 325 326 330 336 337 339 339 338 338 337 334 330 329 330 330 330 328 325 322 321 320 320 323 327 328 328 328 327 326 324 321 320
294 290 291 291 291 292 296 295 297 295 295 295 302 308 312 318 320 321 321 326 327 331 335 338 338 337 336 335 330 329 329 329 327 324 322 322 321 320 320 320 324 326 325 325 324 322 317 312 308
293 291 293 293 294 295 295 294 296 295 292 297 300 307 314 317 317 319 318 327 328 331 334 336 337 337 336 335 332 331 328 326 326 325 325 322 320 318 317 315 315 315 313 311 311 309 308 307 306
291 294 294 297 297 296 294 295 293 295 297 298 300 311 315 317 317 318 318 320 325 328 332 335 336 337 336 336 332 332 328 326 324 324 325 321 321 318 314 313 311 310 310 306 304 304 303 303 303
292 293 295 296 296 295 295 293 293 294 297 296 300 308 313 316 318 318 320 319 324 327 331 333 334 335 336 335 334 332 330 326 324 322 321 322 321 318 316 312 310 309 308 305 303 301 300 299 299
294 294 294 296 295 295 293 291 292 294 294 295 300 304 310 312 314 314 317 319 320 328 329 333 332 334 335 334 334 332 330 328 323 323 321 322 321 319 317 312 311 310 309 304 301 298 296 294 296
295 291 293 293 294 294 294 290 292 293 295 293 296 298 302 310 311 314 318 320 321 326 329 331 332 333 334 333 334 332 330 329 325 323 322 321 322 319 317 314 311 309 306 300 297 293 292 291 291
290 289 284 290 294 294 291 286 292 294 294 294 294 292 297 300 306 313 315 317 319 321 326 329 332 332 333 332 333 333 331 329 326 323 323 322 321 320 317 314 312 310 302 299 295 293 290 289 288
287 282 285 289 293 293 290 287 292 294 292 293 293 294 294 294 297 300 308 314 316 319 323 326 330 330 332 332 332 333 332 330 328 326 323 322 322 319 316 313 311 308 301 297 295 292 290 288 287
284 283 284 284 291 290 288 289 293 294 292 293 293 294 294 295 297 299 299 306 312 315 320 326 328 328 331 330 331 332 331 331 330 328 325 324 322 318 312 309 309 306 300 297 294 291 289 288 288
286 285 283 286 292 290 289 289 291 293 292 292 292 292 293 295 300 299 299 300 302 309 317 322 325 325 326 326 325 325 326 320 325 328 325 323 321 316 312 310 308 306 301 297 294 291 289 287 287
286 284 283 288 290 290 287 288 290 292 293 294 296 295 294 293 294 298 298 297 299 308 317 321 324 322 324 326 326 320 314 311 311 312 320 323 318 315 311 309 308 306 301 296 293 291 289 288 288
285 284 284 286 287 286 286 285 287 289 291 293 294 297 297 294 293 295 296 296 296 306 314 319 322 321 323 317 310 306 307 306 307 306 307 309 318 314 311 310 309 307 302 296 292 291 290 287 288
283 289 288 287 284 280 284 279 283 288 290 291 293 293 294 294 294 295 296 296 296 304 312 318 319 320 316 312 314 311 311 310 308 307 305 305 307 311 310 309 309 307 304 298 294 293 292 289 287
287 290 287 285 283 281 280 280 282 285 287 290 292 293 292 293 295 296 296 297 297 305 310 314 315 315 312 312 314 312 310 312 306 305 305 303 302 304 305 306 306 306 305 300 296 292 291 291 290
292 289 287 285 282 277 281 281 279 283 288 288 292 293 293 294 293 294 296 297 298 300 306 310 312 311 311 310 309 313 313 308 304 302 303 302 300 299 300 302 304 304 304 301 297 294 293 292 292
288 284 277 276 276 276 281 280 283 287 291 291 294 295 294 293 294 295 295 296 298 298 301 305 308 306 307 306 306 306 308 307 306 304 303 299 297 295 297 299 300 301 302 301 298 295 293 292 291
286 285 279 272 274 277 281 278 284 290 292 293 295 295 294 293 294 293 294 296 298 299 299 301 303 303 304 303 302 302 303 301 300 299 297 300 300 299 298 297 298 298 299 299 297 295 294 293 292
287 284 287 281 272 275 280 284 289 292 294 293 294 294 293 292 294 294 294 295 296 298 299 300 300 301 301 301 300 299 299 298 297 295 294 294 292 291 293 296 295 295 296 295 296 294 293 292 292
289 291 283 282 273 272 277 279 283 287 289 292 293 292 292 292 293 294 295 295 296 296 298 298 299 299 299 300 299 298 297 297 296 294 292 291 290 289 288 290 292 292 293 293 293 293 292 290 291
287 285 286 286 282 276 274 278 286 289 291 291 292 293 292 292 293 293 293 294 295 295 296 296 297 297 298 298 298 297 296 295 294 293 292 290 288 287 286 287 287 289 290 290 290 291 290 290 290
288 287 288 281 278 280 280 281 291 290 291 292 291 292 292 293 292 292 293 293 293 294 294 295 295 296 297 297 296 296 295 293 292 290 290 288 287 285 285 285 286 287 287 288 289 288 289 289 288

GFSSGP_sfc_thetae_111.txt.gz
Theta_e
317 309 307 306 298 293 288 289 291 293 294 296 299 300 300 304 300 295 321 333 338 340 343 345 347 347 345 342 342 343 343 341 341 341 343 344 342 339 338 337 337 337 339 339 340 339 339 337 335
312 311 306 299 292 286 287 289 292 294 297 302 302 301 305 303 312 323 327 336 339 341 344 344 344 346 345 342 343 344 343 340 341 341 345 343 341 338 337 336 336 336 337 338 337 338 338 336 336
311 306 302 295 288 287 287 291 294 296 298 298 297 304 306 307 313 325 330 337 339 341 344 342 343 345 345 344 343 343 343 341 341 341 343 342 339 337 336 335 335 336 337 338 337 338 337 336 336
306 301 297 291 288 289 290 295 296 295 296 300 300 302 308 314 321 328 336 338 339 341 342 341 345 345 344 344 343 342 341 341 342 340 342 341 339 336 335 334 334 336 337 336 337 338 338 336 336
301 297 291 289 289 293 292 295 296 295 295 296 299 300 307 318 326 334 335 338 339 340 340 341 344 344 344 344 343 342 341 341 341 339 340 339 336 334 333 333 333 334 334 334 335 336 335 336 335
297 295 289 286 288 291 294 295 295 294 295 296 301 304 309 317 329 332 335 335 339 339 340 341 337 340 342 342 342 341 341 340 340 338 337 336 334 332 331 331 332 333 333 333 334 334 333 332 332
295 291 288 288 288 291 296 298 294 295 295 296 305 301 305 315 327 332 332 334 338 339 339 340 339 337 336 338 338 339 339 338 339 338 337 336 333 331 330 331 330 332 332 332 332 331 331 331 330
298 294 288 290 290 291 295 296 296 296 296 298 305 300 304 317 327 331 333 337 338 337 339 339 338 337 336 334 332 333 334 335 336 335 332 330 329 329 328 328 330 330 331 330 329 329 329 328 326
297 291 287 288 290 292 294 294 295 296 298 299 300 305 308 321 326 330 330 332 335 337 338 337 338 336 334 332 329 329 330 330 330 327 325 322 320 319 319 324 329 330 329 329 328 327 324 322 320
293 289 290 292 290 292 295 295 296 296 295 299 303 307 310 320 324 326 326 326 329 331 335 337 337 336 334 333 328 327 327 326 323 322 319 319 318 318 320 320 325 327 326 327 325 321 316 310 306
293 290 291 292 293 294 296 293 294 294 294 296 299 305 312 316 320 323 326 327 328 330 333 336 337 336 335 332 328 326 325 324 322 320 319 318 317 316 316 316 315 313 312 310 309 307 306 304 304
290 292 293 295 295 294 294 294 292 293 295 296 300 308 313 317 320 321 321 324 325 327 331 334 335 335 336 333 331 329 325 323 322 321 320 318 317 313 313 312 311 309 307 304 303 303 302 301 301
290 292 293 294 293 292 294 292 293 293 296 295 298 310 313 317 319 321 323 321 324 327 330 332 334 334 335 333 332 330 326 324 323 320 320 319 319 316 315 310 309 307 305 303 301 301 300 298 298
293 293 292 293 293 293 291 290 292 292 293 294 300 307 310 313 315 314 315 316 322 327 329 332 333 334 334 333 331 330 328 325 322 321 320 319 320 318 315 309 307 306 304 302 300 299 297 295 296
294 290 290 292 292 292 293 290 292 292 293 292 294 299 305 310 311 314 318 318 320 327 329 330 332 333 333 331 332 330 330 326 323 322 320 319 319 318 313 309 309 306 302 298 296 296 294 292 292
289 287 284 288 292 292 289 285 290 293 291 292 292 291 295 301 308 311 315 317 318 322 326 330 332 331 332 332 333 332 330 327 324 322 321 320 318 318 314 312 311 307 301 296 295 292 290 288 289
287 281 283 288 292 291 288 286 290 293 290 291 291 292 293 293 296 302 310 313 317 319 325 327 330 329 331 331 332 331 330 328 325 323 321 320 319 319 316 313 312 305 300 296 295 293 291 289 287
284 282 282 283 289 289 287 289 292 292 291 292 291 292 292 293 295 298 300 310 314 316 320 326 328 329 330 331 331 331 329 329 328 324 323 321 321 319 316 313 309 303 299 296 293 292 291 289 288
286 284 283 285 290 289 288 289 290 292 292 291 292 292 292 293 298 297 297 297 304 308 314 321 325 328 329 330 329 328 326 327 327 327 324 322 322 318 315 312 308 304 299 295 293 291 289 288 287
284 283 282 286 289 289 287 288 290 290 292 293 294 293 292 292 292 295 296 296 296 303 312 318 323 326 328 330 331 329 328 320 325 326 325 323 322 318 314 311 309 304 299 295 292 291 289 288 288
283 282 282 284 286 285 285 284 286 288 289 291 292 293 294 294 293 293 294 294 294 295 306 314 321 324 327 328 323 310 311 309 310 310 312 321 321 317 314 312 310 305 301 296 292 292 291 287 287
282 288 287 285 283 280 283 277 282 286 289 289 291 291 292 292 293 293 293 293 294 296 301 311 318 321 324 325 321 321 320 318 314 313 311 311 318 317 315 313 311 307 303 299 295 293 292 290 287
286 289 286 285 281 280 279 279 281 283 285 289 291 291 291 291 291 293 294 294 294 296 303 310 315 318 317 320 322 321 320 317 308 308 310 309 307 309 313 312 311 309 306 302 297 293 292 291 290
290 288 286 284 281 277 280 281 278 282 286 286 289 291 294 293 294 294 294 295 296 301 305 309 312 311 312 314 313 316 313 308 307 306 308 306 306 305 304 306 309 309 307 303 297 295 294 292 293
286 284 277 276 275 276 279 279 282 286 288 287 290 291 293 293 293 294 294 295 296 299 303 307 309 309 310 308 308 310 311 311 311 307 307 303 300 298 300 302 303 304 305 303 299 296 294 293 292
284 285 278 272 273 276 280 278 283 288 290 292 292 292 294 292 293 294 294 294 296 298 298 302 304 306 308 306 305 305 306 306 305 305 304 305 303 303 302 300 301 302 302 301 299 296 295 294 293
286 283 287 280 271 275 279 282 287 291 291 292 293 293 292 293 293 294 294 294 295 297 298 300 301 302 303 304 302 302 302 301 300 299 297 297 295 294 296 298 298 298 298 298 298 296 294 294 293
288 290 282 280 271 271 276 278 282 285 288 291 291 291 291 292 292 293 293 294 295 295 297 298 299 300 300 300 300 300 299 298 297 296 295 293 292 291 290 292 294 294 294 295 296 294 293 292 292
286 285 285 284 280 275 272 278 284 285 290 290 290 292 291 292 293 293 293 294 295 295 296 296 296 297 297 298 297 297 296 295 295 294 293 292 290 289 288 287 287 289 290 291 292 292 291 291 291
288 286 286 281 277 279 278 281 289 290 290 291 290 291 292 292 293 292 292 293 293 293 294 295 295 295 296 296 296 296 295 294 293 292 292 290 289 287 286 286 285 286 288 289 290 290 290 289 289

GFSSGP_sfc_thetae_114.txt.gz
Theta_e
315 308 306 305 296 291 287 288 292 292 292 298 299 298 298 301 298 294 320 332 336 339 343 345 347 346 344 342 343 343 344 343 342 345 344 341 337 336 337 337 341 340 340 340 339 337 337 336 336
312 310 305 298 292 286 287 290 291 293 297 304 301 303 303 301 313 321 325 334 338 341 343 343 344 345 343 342 342 343 343 342 341 344 343 339 336 337 337 336 338 338 337 339 339 338 337 336 335
310 305 301 294 287 286 287 289 292 294 298 296 299 304 304 304 313 323 327 336 339 340 342 341 343 345 344 343 343 343 343 343 344 344 341 337 337 336 335 336 337 337 338 337 337 338 337 336 336
305 300 296 291 286 289 290 292 295 295 295 298 301 301 306 314 320 327 334 337 338 340 340 341 344 345 345 343 343 342 342 342 343 343 341 338 336 335 334 336 336 335 338 340 339 337 338 336 336
300 296 290 288 289 292 292 294 295 294 296 299 299 300 304 315 325 332 334 337 337 339 338 340 343 343 344 343 342 342 342 342 341 341 340 337 335 334 333 334 335 333 336 337 336 337 335 334 335
296 294 288 286 287 290 294 295 295 292 294 297 301 304 307 316 327 330 335 335 337 338 338 339 337 339 342 342 342 341 341 341 339 339 337 335 333 333 332 333 333 332 335 336 335 333 334 334 333
294 290 287 287 288 291 295 296 293 294 294 296 304 300 303 313 326 330 332 335 338 338 338 337 337 337 336 338 338 339 339 340 339 338 337 335 333 332 332 333 333 333 334 334 332 332 332 331 330
295 292 287 288 288 289 294 296 295 295 295 299 305 298 301 315 327 329 331 333 335 337 339 338 335 335 334 333 332 334 335 336 336 335 332 329 329 330 329 329 332 332 332 331 330 330 329 328 327
295 290 287 288 290 291 292 293 293 295 295 295 299 302 306 322 328 327 329 330 333 335 336 337 337 333 332 331 328 329 330 331 330 328 325 321 319 320 321 326 330 330 329 328 328 327 325 323 322
294 289 290 292 291 290 294 293 295 295 296 296 301 305 312 323 327 326 326 326 327 330 333 335 336 336 331 331 327 326 326 325 323 321 319 317 316 318 320 321 326 327 326 326 324 321 316 311 306
292 291 291 292 292 294 295 292 294 294 293 296 298 302 313 318 324 325 324 324 327 329 333 334 335 336 332 329 326 324 323 321 320 318 317 316 315 316 316 316 315 313 313 311 309 306 304 304 305
290 291 293 295 294 293 294 294 291 293 296 296 298 305 313 319 321 324 324 323 325 326 331 333 335 335 334 330 327 324 323 320 319 318 317 315 314 313 313 312 310 309 306 304 303 302 301 301 301
289 290 292 293 293 291 293 292 292 292 295 295 296 308 313 319 321 323 324 323 323 326 328 332 334 333 333 331 329 326 323 322 319 318 317 316 313 312 311 310 308 305 304 302 301 300 299 299 299
292 291 290 292 291 293 290 288 290 291 291 293 298 304 310 315 318 316 317 319 322 327 328 331 332 333 333 332 329 328 325 322 320 319 318 317 316 315 312 308 306 303 302 300 299 298 296 295 295
292 289 288 290 291 291 292 289 291 291 291 291 293 297 305 309 310 315 320 320 323 326 328 329 332 332 332 332 331 328 327 325 321 320 318 317 317 316 313 309 307 304 300 297 296 296 295 294 292
289 287 284 288 291 290 289 285 289 291 289 292 291 290 295 302 308 311 314 316 317 322 325 329 331 332 332 331 331 330 327 324 323 321 320 318 316 316 312 311 309 303 300 297 297 295 292 291 290
286 281 282 287 291 289 287 286 289 291 291 290 290 290 291 292 294 301 310 314 315 318 324 327 329 330 331 331 331 330 328 326 323 321 322 320 318 316 314 312 310 303 299 296 296 292 292 291 290
283 282 282 283 287 289 287 288 291 292 290 291 290 291 292 292 294 296 299 310 314 316 320 326 328 329 329 332 331 331 329 328 325 322 322 321 320 318 314 312 308 303 298 296 294 293 292 291 289
286 283 282 283 288 286 286 287 291 291 290 291 292 292 292 292 297 295 295 296 306 310 316 322 325 328 328 329 328 327 326 326 325 324 322 321 321 319 316 312 308 303 299 297 295 291 290 288 287
285 283 281 285 288 288 286 287 290 290 291 292 293 292 292 292 292 293 294 294 295 305 313 318 323 326 327 330 330 329 328 327 327 326 323 322 321 319 317 313 308 305 301 296 293 291 290 288 289
282 282 281 283 285 286 283 283 285 287 288 290 292 292 292 293 293 292 293 293 292 293 304 313 319 324 327 328 329 315 314 312 313 315 323 322 322 320 318 314 311 306 302 297 293 293 293 286 287
282 286 286 284 283 279 282 277 281 285 287 288 290 290 290 289 291 292 293 292 291 292 294 305 313 320 324 327 327 324 323 321 321 323 321 322 322 321 318 314 312 307 304 299 296 295 295 293 288
285 287 286 284 281 280 279 278 281 283 285 288 290 289 289 291 291 290 291 292 292 293 293 300 309 314 319 325 327 325 324 325 316 313 316 316 314 319 317 316 313 310 307 303 298 296 295 295 293
289 286 285 282 280 277 280 280 278 282 285 285 287 288 291 292 292 293 294 295 296 300 300 303 309 313 318 324 325 324 323 313 310 309 312 312 310 308 309 310 312 311 308 306 301 297 296 295 295
285 283 277 276 275 276 279 278 281 285 287 286 288 288 290 292 292 293 293 294 296 299 302 305 310 311 314 317 318 319 320 313 313 311 312 308 307 303 305 306 305 308 309 307 303 299 296 295 294
284 284 278 272 273 275 279 277 282 287 288 290 291 292 292 292 292 292 292 293 295 296 299 303 308 308 309 310 312 311 311 312 311 309 309 308 306 305 303 302 303 304 305 304 301 298 296 295 293
285 282 285 278 269 274 278 281 286 289 289 290 291 291 290 290 291 291 292 293 294 296 296 298 301 305 307 308 306 307 307 307 306 303 303 302 300 297 300 300 299 300 300 299 299 297 295 294 293
287 289 281 279 270 270 276 278 281 284 287 289 289 290 290 291 292 292 292 293 294 294 295 296 298 299 300 303 303 303 302 302 300 298 297 295 294 292 292 295 296 296 296 297 297 296 293 292 293
284 283 283 284 281 276 272 278 283 285 289 289 289 290 291 291 291 291 292 292 293 293 294 295 295 297 297 298 298 298 297 296 295 294 294 293 291 290 290 289 289 291 292 293 294 293 291 292 292
287 285 285 279 276 278 277 281 288 287 289 290 290 291 291 291 291 291 291 292 293 293 293 294 294 295 295 296 296 296 295 294 293 293 292 291 291 289 289 287 287 287 287 290 290 290 291 290 290

GFSSGP_sfc_thetae_117.txt.gz
Theta_e
316 311 310 308 300 296 292 295 297 297 298 301 309 304 307 307 304 299 327 334 337 341 346 346 346 346 345 343 343 345 344 345 345 343 340 337 338 338 340 340 341 341 341 338 337 337 337 338 338
313 311 308 302 296 291 291 295 295 298 302 305 305 308 308 306 317 322 329 336 340 343 345 345 343 345 344 343 344 344 344 343 345 342 338 338 338 337 339 338 338 340 339 339 338 336 335 336 337
311 307 305 297 292 292 292 294 296 300 305 302 305 308 309 310 319 326 333 338 342 343 345 343 343 345 344 344 344 343 343 345 345 341 338 337 337 337 337 337 339 340 338 339 338 338 337 337 337
307 303 299 295 292 295 295 296 298 299 300 301 306 305 311 318 326 330 337 340 341 343 343 342 344 345 345 344 343 343 344 345 345 341 337 337 336 336 337 337 339 340 339 338 339 338 337 338 337
302 299 294 292 293 295 295 298 298 298 299 302 303 303 310 320 328 335 337 339 338 341 342 342 342 344 344 344 343 343 343 344 343 340 337 336 335 335 337 334 334 338 338 337 337 336 336 336 335
299 297 291 290 292 295 298 298 298 298 299 301 305 306 312 324 330 334 338 338 339 339 341 342 337 339 341 342 342 342 342 343 342 340 336 335 334 334 335 333 333 337 336 335 334 334 335 334 333
297 293 291 291 291 295 298 298 297 297 298 300 308 304 309 319 330 335 337 338 339 339 340 342 341 338 335 337 338 339 340 340 340 338 337 335 334 335 335 331 332 335 332 334 335 334 332 332 331
296 295 291 291 291 294 297 297 299 298 298 304 308 301 305 317 331 333 337 336 335 337 339 340 340 340 340 340 332 334 336 336 336 335 331 329 330 330 331 329 331 332 332 333 332 331 331 330 328
300 292 289 291 292 294 295 297 297 300 299 300 306 305 309 324 330 331 329 330 331 334 338 339 338 338 337 337 332 330 330 331 330 328 325 323 327 327 328 327 329 331 330 330 329 328 327 325 324
296 291 291 294 294 293 295 296 297 298 298 299 303 308 320 326 328 326 326 326 328 330 333 337 338 336 335 333 333 333 332 332 330 327 325 324 324 326 327 324 325 326 327 327 324 321 318 316 318
295 293 294 293 294 296 295 295 297 297 295 299 300 305 319 323 326 326 326 328 328 330 332 334 336 336 334 333 331 330 330 328 327 325 323 322 322 325 326 325 324 323 317 318 315 313 313 314 315
293 294 293 295 296 295 295 296 295 296 299 299 300 306 318 320 324 326 326 326 328 330 332 333 334 336 334 332 330 329 327 326 324 323 322 321 321 322 322 322 320 319 316 312 311 310 310 310 309
291 292 293 294 294 293 295 293 295 295 298 297 299 308 317 321 324 327 328 326 327 329 332 332 333 335 335 331 330 328 327 325 324 322 321 320 320 320 320 318 317 314 312 310 309 309 308 307 307
294 292 292 294 293 293 292 291 293 293 295 294 300 304 311 319 322 321 323 325 325 329 331 332 332 333 334 332 331 327 326 325 324 322 321 320 320 319 318 315 313 310 310 309 308 308 306 304 305
293 290 292 292 292 293 293 291 292 293 294 294 295 298 305 313 317 320 324 325 327 328 330 332 332 333 332 332 331 330 328 325 323 323 321 320 320 319 316 314 311 309 307 305 304 302 301 301 299
289 289 287 289 293 292 292 287 291 293 292 294 293 293 294 303 312 316 320 322 323 328 328 331 332 331 331 332 332 330 328 327 325 322 322 320 320 319 315 312 310 306 305 303 302 301 299 298 299
287 283 285 288 292 291 290 288 291 293 292 293 293 292 293 294 297 306 314 318 321 325 328 329 332 331 331 331 331 330 328 327 326 324 323 321 319 317 315 313 309 305 303 301 300 299 299 298 297
283 283 284 284 288 289 287 289 291 292 292 293 293 293 293 294 295 298 301 312 317 320 325 329 330 332 331 331 330 330 328 327 325 324 324 322 320 317 315 313 308 304 301 299 298 296 296 297 294
287 284 284 285 289 288 288 288 291 292 292 292 292 293 294 294 298 297 298 299 309 315 319 325 328 330 331 329 327 327 326 326 325 324 324 322 321 318 315 313 308 304 301 300 297 295 294 291 292
285 284 284 287 289 289 287 287 290 291 292 293 294 294 294 295 295 295 296 297 297 306 315 319 325 329 329 330 330 330 328 328 327 325 324 323 321 319 319 314 310 306 305 300 298 294 293 292 294
284 283 283 285 286 285 284 284 286 288 289 291 292 293 294 294 294 295 295 295 295 296 306 315 320 326 329 331 330 320 320 317 320 323 323 323 322 320 318 317 314 309 305 299 298 297 296 290 291
282 287 286 285 284 280 283 278 283 286 287 289 291 291 291 291 292 292 292 293 294 295 296 307 316 322 327 329 329 325 324 321 324 324 325 323 322 321 319 318 314 308 308 305 301 298 299 296 291
285 287 286 285 282 281 281 280 282 284 286 289 290 290 292 294 295 295 295 296 296 298 295 297 308 316 323 326 329 326 325 326 324 323 322 322 321 322 320 318 315 311 308 306 303 299 298 297 298
288 286 284 282 281 277 280 281 279 283 286 287 288 289 290 293 294 295 296 297 299 303 303 300 303 311 318 324 327 326 324 324 316 315 319 317 312 312 315 317 315 313 310 307 303 301 298 298 299
285 283 278 277 276 276 279 279 282 286 287 288 289 289 292 293 294 294 295 296 298 301 306 307 309 311 316 321 324 324 323 320 317 314 316 310 308 306 309 310 311 310 309 308 304 300 298 298 297
283 283 278 273 274 276 280 278 283 287 288 290 291 293 294 293 293 293 294 295 297 298 303 308 310 310 313 314 315 316 316 315 315 313 312 311 310 308 307 306 306 306 307 306 305 301 299 298 296
285 282 284 278 270 275 278 281 286 288 288 290 292 292 293 293 293 294 294 294 295 297 298 304 307 308 309 310 310 311 311 311 309 307 308 308 305 301 303 304 303 303 302 302 301 300 297 296 295
286 288 281 279 270 270 276 277 281 284 287 291 291 291 292 292 292 293 293 294 295 295 297 298 301 304 305 306 307 306 307 306 306 304 303 302 300 299 298 300 300 299 299 299 299 297 295 294 295
284 283 283 283 280 274 271 277 283 286 287 289 291 292 292 292 292 292 293 294 294 295 296 296 297 299 300 301 301 302 301 300 300 300 299 298 296 296 295 294 295 296 296 295 296 295 293 293 293
287 285 285 280 276 277 277 280 287 286 289 291 291 292 292 292 292 292 292 293 294 294 295 295 296 296 297 298 298 298 298 297 297 297 297 295 295 293 293 292 291 292 292 293 292 292 293 291 291

GFSSGP_sfc_thetae_120.txt.gz
Theta_e
323 320 323 321 307 307 299 300 304 305 308 311 319 313 312 311 307 305 332 337 337 341 346 346 345 346 344 343 344 346 347 345 342 339 338 338 340 340 339 342 343 341 338 338 338 340 341 340 340
319 317 322 317 304 299 298 302 302 307 310 311 315 312 311 309 321 328 332 337 340 342 346 345 343 345 344 343 344 345 345 345 341 338 338 338 339 339 337 340 342 340 340 337 337 337 337 338 338
316 315 314 309 306 299 299 302 305 307 310 310 311 314 313 313 324 332 338 339 341 343 346 344 343 345 345 344 344 344 344 346 342 338 338 337 338 336 337 339 341 340 339 339 338 337 337 337 337
317 315 311 304 300 302 301 304 306 309 307 307 311 309 316 323 329 336 339 341 341 343 345 342 344 345 345 344 343 344 345 345 342 339 337 336 337 337 338 340 342 340 339 339 339 339 338 337 337
315 311 304 302 299 301 302 305 308 308 307 307 311 307 313 325 334 339 339 340 341 342 345 343 343 344 344 344 343 344 345 344 342 338 336 336 337 336 335 338 339 339 338 337 336 337 337 336 335
309 308 300 298 299 301 304 306 307 306 306 307 308 308 315 331 335 339 340 340 342 341 343 343 337 340 342 342 343 343 344 343 341 338 336 335 336 336 333 334 339 337 336 336 336 336 335 334 333
306 305 300 300 299 300 303 306 305 305 305 306 312 306 315 328 337 340 341 341 341 342 342 342 342 338 335 338 338 340 342 342 340 338 337 336 336 336 334 334 337 334 334 335 333 333 333 332 331
308 306 298 299 298 300 305 305 306 305 304 309 315 305 308 325 337 338 340 340 340 339 342 341 342 340 339 340 332 334 336 337 337 334 332 330 331 331 331 329 333 332 334 333 333 332 331 330 328
307 302 299 299 299 301 304 303 304 306 306 309 313 310 315 331 334 332 332 334 334 336 340 341 341 340 339 339 334 331 331 331 330 328 325 326 330 331 329 327 330 332 332 331 330 328 327 326 324
306 301 299 302 303 302 303 304 305 304 304 305 308 312 323 332 329 328 329 328 329 332 335 337 339 340 339 336 338 338 337 336 335 333 330 328 329 331 329 325 326 328 327 327 325 322 320 324 325
302 301 301 300 301 303 303 302 305 305 303 307 307 310 324 327 329 329 329 330 330 332 334 336 337 338 339 336 336 336 336 336 335 333 330 328 328 330 330 329 327 325 321 324 322 322 324 324 324
300 300 300 300 302 302 302 304 302 304 306 306 309 313 324 326 327 330 331 332 331 331 332 335 337 338 338 338 336 335 333 334 332 331 329 327 327 328 328 327 327 325 325 321 322 322 321 321 321
298 299 299 300 300 301 301 301 302 303 307 305 305 310 320 324 327 330 332 334 335 333 332 334 336 336 337 337 336 334 332 332 331 330 328 326 326 327 327 327 326 324 321 320 320 320 319 318 318
299 297 298 299 299 299 299 298 299 302 303 302 303 308 314 322 325 328 330 331 332 334 335 336 334 336 336 335 336 334 333 331 331 329 327 326 326 326 326 324 323 321 320 319 319 318 318 317 316
299 297 298 298 298 298 300 297 297 303 301 301 302 305 309 316 324 326 330 330 332 332 335 336 335 335 335 334 335 335 334 330 329 329 328 326 325 326 325 323 320 319 318 316 316 314 311 311 312
296 297 293 295 298 298 298 295 299 299 300 301 303 303 304 309 317 325 329 331 334 334 334 337 335 334 334 334 334 333 335 331 330 328 327 325 325 325 324 322 320 317 315 315 313 312 312 310 310
294 291 292 293 297 297 297 296 298 300 300 300 302 302 302 303 306 316 325 329 332 334 334 335 336 334 334 334 334 333 333 333 332 330 328 326 323 322 321 318 317 313 313 310 310 308 309 310 308
290 290 290 293 294 295 295 296 299 299 299 301 302 303 303 303 304 307 313 324 328 331 334 335 336 336 334 333 333 333 333 332 332 331 329 328 325 323 319 316 312 309 307 306 306 305 303 305 308
294 292 291 291 294 294 295 295 298 300 300 301 302 303 304 304 308 308 307 309 319 325 328 332 334 335 332 331 329 328 327 327 328 330 330 329 326 324 318 317 313 311 309 307 304 304 305 306 307
293 291 290 292 294 294 294 293 297 299 299 301 302 303 303 305 306 306 306 306 306 311 320 325 330 334 332 332 331 331 329 328 330 327 329 330 326 322 319 319 316 313 310 304 306 306 305 305 300
292 291 290 290 291 292 291 292 293 296 296 298 300 302 303 302 303 305 304 305 307 306 309 317 323 329 334 332 331 329 327 325 326 325 326 329 326 323 320 319 319 315 311 308 307 306 303 297 298
289 293 292 290 290 287 291 286 292 295 294 296 298 299 300 300 300 300 302 303 303 305 306 309 316 322 330 333 329 327 326 323 326 326 326 327 325 323 321 320 319 317 312 308 307 306 303 303 294
291 293 292 291 290 289 289 287 291 290 292 296 298 298 298 301 302 303 302 303 305 306 304 304 307 317 324 332 329 327 326 327 329 327 325 324 323 324 322 320 318 314 312 310 309 304 302 301 303
293 292 291 291 290 283 289 288 289 291 293 295 295 297 296 299 301 301 302 304 307 312 311 306 304 310 319 326 327 327 326 325 324 325 324 324 321 321 321 319 318 316 312 311 308 302 300 301 300
293 291 284 282 282 281 285 285 290 294 294 294 296 296 300 300 301 301 302 304 306 311 310 311 307 307 315 322 324 325 325 325 324 322 323 317 314 311 313 315 315 314 312 310 307 303 302 300 299
291 291 285 279 279 283 284 283 290 295 294 295 295 298 300 300 300 300 300 302 304 306 309 312 313 314 315 319 322 324 324 323 322 320 319 317 316 313 312 309 309 309 309 308 306 303 302 300 299
289 287 292 283 278 283 286 288 293 296 294 294 295 297 300 299 300 300 300 301 303 305 306 309 311 312 313 315 315 316 316 316 315 314 315 314 310 306 307 309 306 306 306 305 305 303 300 299 298
292 293 285 287 281 279 284 284 287 290 293 295 296 298 299 299 299 300 300 300 301 303 305 309 308 308 310 311 312 312 312 312 312 310 308 307 306 305 306 307 306 304 303 303 302 300 298 296 297
288 287 288 288 286 283 280 285 292 294 295 296 298 298 299 299 299 299 299 300 301 302 303 305 308 308 306 306 306 306 305 305 305 307 307 309 307 306 306 304 303 302 302 302 300 299 296 295 295
292 290 290 285 282 285 284 285 291 292 295 296 297 297 298 298 298 298 298 299 300 301 302 302 304 304 306 308 308 307 306 306 307 306 305 304 304 301 301 300 299 299 298 298 296 295 295 293 292

GFSSGP_sfc_thetae_126.txt.gz
Theta_e
326 321 317 316 304 303 297 298 303 304 305 309 313 309 307 312 312 308 330 333 339 341 342 342 345 346 347 347 347 345 343 341 340 342 340 342 343 340 340 339 341 340 340 341 343 343 342 341 340
317 317 316 312 299 296 295 300 301 304 309 312 308 307 308 311 322 325 326 335 341 341 341 340 342 345 346 346 347 345 343 342 340 341 339 339 342 340 341 339 340 340 338 339 340 339 338 339 338
319 315 310 304 300 296 295 300 303 307 310 311 308 311 309 313 323 328 332 335 341 339 340 340 342 345 346 346 347 344 343 342 340 340 338 339 341 340 340 341 342 341 338 337 337 337 337 336 336
314 310 310 300 298 300 299 302 305 305 306 309 308 307 315 323 325 332 333 336 339 339 339 340 344 345 346 345 346 344 343 342 340 340 338 339 341 340 341 341 340 341 339 339 340 338 336 335 334
311 309 299 297 299 299 301 305 306 304 303 304 306 304 312 325 334 333 333 336 338 338 338 341 343 344 345 345 346 344 343 341 339 339 338 337 338 340 340 340 338 338 339 338 337 336 335 334 333
304 306 297 295 298 300 300 304 305 303 304 305 301 305 315 327 331 332 334 334 339 337 337 339 336 339 342 344 344 342 342 341 339 339 338 337 336 337 339 338 338 339 338 336 335 335 334 332 331
304 301 297 298 297 298 301 304 302 302 301 302 305 301 316 323 332 333 334 336 338 338 337 337 338 336 336 339 340 340 340 339 338 338 339 337 335 337 338 337 337 336 336 334 333 333 332 331 329
305 303 298 299 297 297 302 303 302 302 302 307 308 301 308 324 332 333 333 335 336 336 337 335 335 335 335 335 334 336 337 336 336 334 332 330 329 330 331 330 335 335 334 333 332 332 330 329 328
308 299 297 299 299 299 303 300 302 303 303 302 307 309 319 330 332 330 330 332 334 335 335 336 334 333 333 335 330 331 331 331 330 328 327 325 324 326 325 326 331 333 333 332 330 329 328 326 325
302 299 300 303 301 301 303 302 301 298 301 302 306 312 328 329 328 327 325 329 331 332 334 334 335 334 332 334 331 332 331 329 328 327 325 326 325 325 324 322 325 327 327 328 327 325 326 323 318
302 299 300 302 303 305 303 301 303 299 298 301 304 311 325 326 326 327 328 330 331 331 333 335 334 333 333 330 332 332 331 329 328 326 324 324 325 323 323 321 321 322 319 319 320 319 319 318 318
297 301 301 303 302 302 302 303 300 301 300 305 306 314 322 324 325 325 327 329 329 331 332 335 335 334 333 333 330 331 330 329 330 326 325 322 323 322 322 320 320 319 318 317 318 317 318 317 318
298 297 300 301 300 300 304 301 300 300 303 304 308 315 318 322 324 327 329 330 329 330 332 334 335 335 334 332 331 332 329 330 329 327 325 323 322 321 322 321 321 319 318 317 316 316 316 315 316
299 299 298 298 299 299 300 298 298 301 303 302 304 309 314 317 321 321 323 326 330 330 331 334 335 335 335 334 331 331 331 329 328 326 324 323 322 322 322 321 319 317 316 316 316 315 315 314 314
299 296 296 297 298 296 298 294 295 298 302 302 301 302 307 313 317 319 322 323 326 330 331 332 334 335 334 334 333 331 331 330 327 326 325 323 323 322 321 320 318 316 315 315 314 314 314 312 313
294 294 289 296 297 297 295 290 298 300 298 298 298 298 300 305 310 315 319 323 325 327 331 332 333 334 334 334 333 332 331 330 327 326 324 323 322 323 321 319 318 316 314 313 312 311 309 309 309
293 286 290 291 298 296 294 291 296 298 297 296 297 298 300 302 304 308 315 320 324 326 328 332 332 331 332 333 333 333 331 330 330 326 324 323 322 323 323 321 318 316 313 311 311 309 308 308 307
288 287 290 290 293 293 291 292 294 295 295 295 296 297 298 298 300 304 310 317 322 324 326 328 332 331 330 332 332 332 331 330 330 327 324 324 322 321 321 321 319 314 311 311 309 307 307 307 308
291 290 289 292 294 291 291 292 294 296 295 295 296 297 298 299 302 302 305 311 317 321 324 326 328 331 331 329 329 328 328 329 328 329 326 324 323 321 319 316 313 310 309 309 307 307 305 304 307
290 289 287 290 293 291 290 291 295 296 295 296 297 297 298 299 300 302 302 304 312 317 321 324 326 330 331 331 330 329 329 329 329 329 329 328 324 321 319 317 314 310 308 309 306 304 301 302 304
289 288 288 288 291 290 288 287 290 294 296 296 297 299 299 299 300 301 302 302 303 309 316 321 324 327 331 331 330 328 327 326 326 327 328 328 327 325 320 318 315 310 310 310 306 304 303 303 304
287 292 291 290 287 281 288 279 287 291 292 293 295 296 298 297 298 299 300 300 301 302 304 306 317 321 325 331 327 325 325 324 326 326 328 328 328 326 324 320 316 313 313 311 310 306 307 305 302
289 293 291 289 286 284 284 281 285 289 289 292 293 294 296 296 298 297 299 301 301 302 301 301 302 305 314 322 329 326 324 325 325 325 325 325 326 326 322 319 318 317 316 314 313 309 308 307 304
294 291 290 287 285 279 285 283 283 287 290 290 291 293 295 296 298 299 301 302 302 306 307 306 302 301 305 313 323 326 327 324 323 322 323 324 324 324 322 321 320 319 316 314 312 310 308 305 305
291 287 279 278 277 277 284 282 286 291 291 290 292 293 294 297 298 298 299 301 304 305 308 308 304 301 302 308 313 320 326 324 322 323 324 321 319 317 319 319 318 318 317 314 311 308 306 304 304
288 287 281 275 276 277 281 278 285 292 292 292 294 293 297 297 299 299 300 301 302 305 305 309 308 302 303 307 310 315 319 319 320 322 322 321 320 319 318 316 315 314 313 311 309 307 305 303 302
287 285 289 282 275 277 281 284 290 292 292 291 291 293 294 296 297 298 299 300 301 303 306 307 308 309 310 310 312 313 315 318 318 319 319 317 315 311 312 312 310 309 308 307 306 304 301 300 299
290 292 283 282 273 273 278 279 282 287 290 291 291 291 294 297 297 297 298 299 300 302 305 307 310 308 307 308 309 309 311 314 314 314 312 311 307 306 306 307 306 305 304 304 303 302 300 298 298
286 286 287 287 284 277 274 278 286 288 291 291 291 293 294 295 296 296 297 298 299 300 303 305 306 308 307 307 305 305 306 307 308 308 307 306 305 306 306 305 303 303 303 301 301 299 298 297 296
291 288 288 282 279 280 279 282 290 290 292 292 292 296 296 296 296 296 296 297 298 299 300 302 304 305 307 307 306 305 305 306 306 306 306 306 304 303 302 299 298 297 298 300 298 297 296 295 293